.

MPMG - Transparência

Contracheque - Remuneração de todos os servidores ativos - Pós Resolução CNMP 200/2019

Período: 2023 - Março

Ordem Matrícula Nome Cargo Efetivo Lotação Rendimentos Descontos Rendimento Líquido Total *14 Data de Referência
Remuneração básica Remuneração eventual ou Temporária Outras Remunerações Temporárias *7 Verbas Indenizatórias *8 Total de Rendimentos Brutos *9 Obrigatórios Legais Outros Descontos Eventuais Total de descontos *13
Remuneração do Cargo Efetivo *1 Outras Verbas Remuneratórias *2 Função de Confiança ou Cargo em Comissão *3 Gratificação Natalina *4 Férias 1/3 Constitucional *5 Abono de Permanência *6 Contribuição Previdenciária *10 Imposto de Renda *11 Retenção por Teto Constitucional *12
1 498900 ABDON MARCIO BARBOSA DA SILVA OFICIAL DO MP ABRE CAMPO - COMARCA; ABRE CAMPO-PJ-01PJ 6.694,66 1.338,93 0,00 0,00 0,00 0,00 0,00 2.727,65 10.761,24 1.066,32 942,36 0,00 0,00 2.008,68 8.752,56 31/03/2023
2 177800 ADALBERTO MENEZES FARIA SAMORA OFICIAL DO MP BELO HORIZONTE - COMARCA; DIRET DE PLANOS PROJETOS E PROGRAMAS INST 19.037,29 7.614,92 0,00 0,00 0,00 0,00 488,62 7.408,44 34.549,27 4.045,30 5.243,27 0,00 0,00 9.288,57 25.260,70 31/03/2023
3 306400 ADALBERTO MOREIRA GONCALVES ANALISTA DO MP BELO HORIZONTE - COMARCA; BH-24PJ JUIZO REG BARREIRO-SECRETARIA 19.791,01 5.937,30 0,00 0,00 0,00 0,00 471,69 7.223,66 33.423,66 3.897,48 5.134,12 0,00 0,00 9.031,60 24.392,06 31/03/2023
4 179300 ADENISE AUXILIADORA SOUZA SAD OFICIAL DO MP BARBACENA - COMARCA; BARBACENA-PJ-06PJ 18.312,36 7.324,94 0,00 0,00 0,00 0,00 470,02 7.205,46 33.312,78 3.882,92 5.008,82 0,00 0,00 8.891,74 24.421,04 31/03/2023
5 272200 ADILSON BATISTA ORNELAS OFICIAL DO MP LAVRAS - COMARCA; LAVRAS-PJ-SECRETARIA 6.694,66 2.008,40 0,00 0,00 0,00 0,00 0,00 2.078,00 10.781,06 1.173,44 1.149,15 0,00 0,00 2.322,59 8.458,47 31/03/2023
6 380100 ADILSON GONCALVES DE MELO JUNIOR ANALISTA DO MP ARAXÁ - COMARCA; ARAXA-PJ-05PJ 14.687,60 4.406,28 0,00 0,00 0,00 0,00 2.045,01 8.364,29 29.503,18 3.070,97 3.836,57 0,00 0,00 6.907,54 22.595,64 31/03/2023
7 148800 ADILSON JANUARIO OFICIAL DO MP BELO HORIZONTE - COMARCA; BH-22PJ PES COM DEF E IDOSOS-SECRETARIA 20.574,59 16.459,68 0,00 0,00 0,00 5.454,90 450,09 6.988,05 49.927,31 5.454,90 8.830,61 1.572,05 0,00 15.857,56 34.069,75 31/03/2023
8 322601 ADMILSON SILVEIRA ANALISTA DO MP SAO JOAO DO PARAISO COMARCA; SAO JOAO DO PARAISO-PJ-UNPJ 11.008,33 1.100,83 0,00 0,00 0,00 0,00 44,40 3.512,37 15.665,93 1.718,41 1.988,10 0,00 0,00 3.706,51 11.959,42 31/03/2023
9 333700 ADRIANA ABRITTA TEIXEIRA OFICIAL DO MP BELO HORIZONTE - COMARCA; DIRET DE PESSOAL DO MINISTERIO PUBLICO - DPMP 11.008,33 3.302,50 0,00 0,00 0,00 0,00 262,37 4.940,17 19.513,37 2.070,68 2.496,68 0,00 0,00 4.567,36 14.946,01 31/03/2023
10 468500 ADRIANA APARECIDA FIRMINO ANALISTA DO MP CARATINGA - COMARCA; CARATINGA-PJ-04PJ 11.008,33 2.201,67 0,00 0,00 0,00 0,00 0,00 2.078,00 15.288,00 1.894,55 2.190,25 0,00 0,00 4.084,80 11.203,20 31/03/2023
11 326100 ADRIANA AUGUSTA AMARAL BELO OFICIAL DO MP BARBACENA - COMARCA; BARBACENA-PJ-08PJ 11.008,33 3.302,50 0,00 0,00 0,00 0,00 262,37 4.940,17 19.513,37 2.070,68 2.392,41 0,00 0,00 4.463,09 15.050,28 31/03/2023
12 605700 ADRIANA COSTA LIRA OFICIAL DO MP BELO HORIZONTE - COMARCA; CAO-EDUCACAO 6.694,66 669,47 3.585,64 0,00 0,00 0,00 0,00 2.078,00 13.027,77 959,93 1.877,85 0,00 0,00 2.837,78 10.189,99 31/03/2023
13 541100 ADRIANA CRISTINA DE OLIVEIRA OFICIAL DO MP GUAPÉ - COMARCA; GUAPE-PJ-UNPJ 6.694,66 1.338,93 0,00 0,00 2.677,86 0,00 890,39 4.488,08 16.089,92 1.173,44 1.885,56 0,00 0,00 3.059,00 13.030,92 31/03/2023
14 254800 ADRIANA DAS GRACAS FERNANDES ANALISTA DO MP UBERABA - COMARCA; UBERABA-PJ-07PJ 20.574,59 16.459,68 0,00 0,00 0,00 0,00 260,05 4.914,98 42.209,30 5.454,90 7.330,52 1.572,05 0,00 14.357,47 27.851,83 31/03/2023
15 217400 ADRIANA DE CARVALHO CATAO BRAGA ASSESSOR ADMINISTRATIVO III BELO HORIZONTE - COMARCA; DIV FISCAL ADM CONT TERCEIRIZACAO 0,00 3.873,69 9.684,23 0,00 0,00 0,00 0,00 2.078,00 15.635,92 877,22 3.030,33 0,00 0,00 3.907,55 11.728,37 31/03/2023
16 434600 ADRIANA FERREIRA DA SILVA ANALISTA DO MP BELO HORIZONTE - COMARCA; BH-14PJ DEFESA CONSUMIDOR-GAB 112PJ 15.659,55 3.131,91 0,00 0,00 0,00 0,00 0,00 2.078,00 20.869,46 2.787,58 3.531,71 0,00 0,00 6.319,29 14.550,17 31/03/2023
17 499800 ADRIANA FERREIRA TIAGO OFICIAL DO MP SALINAS - COMARCA; SALINAS-PJ-02PJ 8.650,50 1.730,10 0,00 0,00 0,00 0,00 0,00 2.078,00 12.458,60 1.441,84 1.484,52 0,00 0,00 2.926,36 9.532,24 31/03/2023
18 543400 ADRIANA GUIMARAES NUNES DE PAULA ANALISTA DO MP PATROCÍNIO - COMARCA; PATROCINIO-PJ-01PJ 11.008,33 1.100,83 0,00 0,00 0,00 0,00 0,00 3.028,00 15.137,16 982,16 2.043,52 0,00 0,00 3.025,68 12.111,48 31/03/2023
19 471500 ADRIANA HORTA DE CARVALHO RODRIGUES DE SOUSA ANALISTA DO MP BELO HORIZONTE - COMARCA; GRUPO ESP PROM JUST DEF PROB ADM PAT PUB 11.008,33 2.201,67 0,00 0,00 0,00 0,00 0,00 2.078,00 15.288,00 1.894,55 2.190,25 0,00 0,00 4.084,80 11.203,20 31/03/2023
20 86400 ADRIANA MOREIRA CALDEIRA BRANT OFICIAL DO MP BELO HORIZONTE - COMARCA; BH-21PJ TUTELA FUNDACOES-SECRETARIA 19.037,29 13.326,11 0,00 0,00 0,00 4.959,09 0,00 2.078,00 39.400,49 4.959,09 8.030,58 0,00 0,00 12.989,67 26.410,82 31/03/2023
21 480700 ADRIANA MOREIRA DE AVELLAR CEZILIO OFICIAL DO MP BELO HORIZONTE - COMARCA; BH-12PJ JUIZO CRIMINAL-SECRETARIA 6.694,66 1.338,93 0,00 0,00 0,00 0,00 0,00 2.078,00 10.111,59 1.066,32 942,36 0,00 0,00 2.008,68 8.102,91 31/03/2023
22 326000 ADRIANA PEREIRA CARNEIRO RESENDE OFICIAL DO MP BELO HORIZONTE - COMARCA; BH-25PJ DEFESA DA EDUCACAO-SECRETARIA 11.008,33 3.302,50 0,00 0,00 0,00 0,00 0,00 2.078,00 16.388,83 2.070,68 2.496,68 0,00 0,00 4.567,36 11.821,47 31/03/2023
23 502200 ADRIANA PETRUCCI DAVINA OFICIAL DO MP PATROCÍNIO - COMARCA; PATROCINIO-PJ-01PJ 9.378,86 1.875,77 0,00 0,00 0,00 0,00 0,00 3.028,00 14.282,63 1.581,69 1.790,70 0,00 0,00 3.372,39 10.910,24 31/03/2023
24 201900 ADRIANA REIS PIMENTA OFICIAL DO MP TEÓFILO OTONI - COMARCA; TEOFILO OTONI-PJ-03PJ 18.312,36 7.324,94 0,00 0,00 0,00 0,00 470,02 7.205,46 33.312,78 3.882,92 5.113,09 0,00 0,00 8.996,01 24.316,77 31/03/2023
25 278700 ADRIANA RODRIGUES PINTO COELHO AMARAL ANALISTA DO MP BELO HORIZONTE - COMARCA; CGMP-ASSESSORIA JURIDICA 20.574,59 6.172,38 0,00 0,00 0,00 0,00 490,36 7.427,39 34.664,72 4.060,46 5.369,43 0,00 0,00 9.429,89 25.234,83 31/03/2023
26 468000 ADRIANA SANTOS DE SANTANA MOREIRA ANALISTA DO MP GOVERNADOR VALADARES - COMARCA; GAECO REGIONAL DE GOVERNADOR VALADARES 11.008,33 4.403,33 0,00 0,00 0,00 0,00 395,57 6.393,26 22.200,49 2.246,81 2.646,70 0,00 0,00 4.893,51 17.306,98 31/03/2023
27 194700 ADRIANA TSUKIDE OFICIAL DO MP UBERABA - COMARCA; COORD REG BACIAS PARANAIBA BAIXO RIO GRANDE 18.312,36 7.324,94 0,00 0,00 0,00 0,00 0,00 2.078,00 27.715,30 3.882,92 5.060,96 0,00 0,00 8.943,88 18.771,42 31/03/2023
28 465500 ADRIANO CASSIANO MATOS ANALISTA DO MP ARAXÁ - COMARCA; ARAXA-PJ-02PJ 11.008,33 2.201,67 0,00 0,00 0,00 0,00 145,31 3.663,20 17.018,51 1.894,55 2.242,39 0,00 0,00 4.136,94 12.881,57 31/03/2023
29 500500 ADRIANO DE ALMEIDA SILVA OFICIAL DO MP UBERABA - COMARCA; UBERABA-PJ-12PJ 9.378,86 1.875,77 0,00 0,00 0,00 0,00 0,00 3.028,00 14.282,63 1.581,69 1.253,62 0,00 0,00 2.835,31 11.447,32 31/03/2023
30 187200 ADRIANO DE FREITAS MARON OFICIAL DO MP PONTE NOVA - COMARCA; PONTE NOVA-PJ-03PJ 15.659,55 14.093,61 0,00 0,00 0,00 4.541,45 502,99 7.565,14 42.362,74 4.541,45 7.312,76 0,00 0,00 11.854,21 30.508,53 31/03/2023
31 477900 ADRIANO FERREIRA DE ALMEIDA OFICIAL DO MP TAIOBEIRAS - COMARCA; TAIOBEIRAS-PJ-UNPJ 9.378,86 1.875,77 0,00 0,00 0,00 0,00 0,00 2.938,52 14.193,15 1.581,69 1.686,42 0,00 0,00 3.268,11 10.925,04 31/03/2023
32 269101 ADRIANO PEREIRA SILVA ANALISTA DO MP UBERABA - COMARCA; UBERABA-PJ-02PJ 11.008,33 2.201,67 0,00 0,00 0,00 0,00 145,31 3.663,20 17.018,51 1.894,55 2.085,98 0,00 0,00 3.980,53 13.037,98 31/03/2023
33 414200 ADRIANO RODRIGUES FERNANDES ANALISTA DO MP CARANDAÍ - COMARCA; CARANDAI-PJ-UNPJ 11.008,33 2.201,67 0,00 0,00 0,00 0,00 0,00 2.078,00 15.288,00 1.894,55 2.085,98 0,00 0,00 3.980,53 11.307,47 31/03/2023
34 536700 ADRIELLE COSTA MARIA MOURAO FIGUEIREDO OFICIAL DO MP SERRO - COMARCA; SERRO-PJ-SECRETARIA 6.694,66 1.338,93 0,00 0,00 0,00 0,00 669,47 3.028,00 11.731,06 1.173,44 1.201,29 0,00 0,00 2.374,73 9.356,33 31/03/2023
35 514300 ADRIENE DAMASCENO BRAGA ANALISTA DO MP ALFENAS - COMARCA; ALFENAS-PJ-03PJ 11.008,33 2.201,67 0,00 0,00 0,00 0,00 145,31 3.663,20 17.018,51 1.894,55 2.242,39 0,00 0,00 4.136,94 12.881,57 31/03/2023
36 254600 ADRIENE DOMINGUES COSTA ANALISTA DO MP BELO HORIZONTE - COMARCA; SUPER DE GESTAO DE PESSOAS-LOTACAO TEMPORARIA 20.574,59 8.229,84 0,00 0,00 0,00 0,00 0,00 0,00 28.804,43 4.389,66 5.844,70 0,00 0,00 10.234,36 18.570,07 31/03/2023
37 252001 ADRIENE GOMES BARRETO ANALISTA DO MP BELO HORIZONTE - COMARCA; BH-19PJ SAUDE-SECRETARIA 047PJ 16.695,70 8.347,85 0,00 0,00 0,00 0,00 459,13 7.086,71 32.589,39 3.787,92 4.975,94 0,00 0,00 8.763,86 23.825,53 31/03/2023
38 714800 ADSON GUSTAVO DE OLIVEIRA ASSESSOR PROCURADOR JUSTICA BELO HORIZONTE - COMARCA; GABINETE DE PROCURADOR DE JUSTIÇA - SALA 803 0,00 0,00 7.857,77 0,00 0,00 0,00 0,00 2.078,00 9.935,77 877,22 1.462,79 0,00 0,00 2.340,01 7.595,76 31/03/2023
39 724600 AECIO BRAS SILVA JUNIOR ASSESSOR PROMOTOR JUSTICA BAMBUÍ - COMARCA; BAMBUI-PJ-UNPJ 0,00 0,00 7.857,77 0,00 2.619,26 0,00 0,00 2.078,00 12.555,03 877,22 2.183,09 0,00 0,00 3.060,31 9.494,72 31/03/2023
40 302500 AGENOR JOSE DA SILVA JUNIOR ANALISTA DO MP JUIZ DE FORA - COMARCA; JUIZ DE FORA-PJ-07PJ 19.791,01 5.937,30 0,00 0,00 0,00 0,00 471,69 7.223,66 33.423,66 3.897,48 4.977,71 0,00 0,00 8.875,19 24.548,47 31/03/2023
41 357500 AILSON WAGNER DE ALENCAR SILVA OFICIAL DO MP BELO HORIZONTE - COMARCA; BH-12PJ JUIZO CRIMINAL-SECRETARIA 13.341,69 5.336,68 0,00 0,00 0,00 0,00 547,90 8.055,08 27.281,35 2.769,49 3.349,17 0,00 0,00 6.118,66 21.162,69 31/03/2023
42 366400 AILTON ALEXSSANDRO ALVES OFICIAL DO MP PARÁ DE MINAS - COMARCA; PARA DE MINAS-PJ-05PJ 11.008,33 4.403,33 0,00 0,00 0,00 0,00 0,00 2.078,00 17.489,66 2.246,81 2.750,97 0,00 0,00 4.997,78 12.491,88 31/03/2023
43 318900 AILTON DE CASTRO RIBEIRO JUNIOR OFICIAL DO MP CANDEIAS - COMARCA; CANDEIAS-PJ-UNPJ 11.008,33 3.302,50 0,00 0,00 0,00 0,00 262,37 4.940,17 19.513,37 2.070,68 2.288,13 0,00 0,00 4.358,81 15.154,56 31/03/2023
44 464400 ALAN MONTEIRO GASPAR ANALISTA DO MP SETE LAGOAS - COMARCA; SETE LAGOAS-PJ-08PJ 11.008,33 2.201,67 0,00 0,00 0,00 0,00 145,31 3.663,20 17.018,51 1.894,55 2.242,39 0,00 0,00 4.136,94 12.881,57 31/03/2023
45 492000 ALANA DE CASTRO FREITAS OFICIAL DO MP BELO HORIZONTE - COMARCA; SECRETARIA DO PROCON-MG 7.137,75 1.427,55 0,00 0,00 2.855,10 0,00 0,00 2.078,00 13.498,40 1.151,40 1.954,62 0,00 0,00 3.106,02 10.392,38 31/03/2023
46 306700 ALANA MARCIA DE OLIVEIRA OFICIAL DO MP BELO HORIZONTE - COMARCA; DIRETORIA DE ADMINISTRACAO FINANCEIRA 11.008,33 3.302,50 0,00 0,00 0,00 0,00 262,37 4.940,17 19.513,37 2.070,68 2.496,68 0,00 0,00 4.567,36 14.946,01 31/03/2023
47 324500 ALANMAR COUTINHO COSTA OFICIAL DO MP LEOPOLDINA - COMARCA; LEOPOLDINA-PJ-02PJ 11.008,33 3.302,50 0,00 0,00 0,00 0,00 262,37 4.940,17 19.513,37 2.070,68 2.392,41 0,00 0,00 4.463,09 15.050,28 31/03/2023
48 407300 ALBERTO LUIZ SOARES DE OLIVEIRA ANALISTA DO MP BELO HORIZONTE - COMARCA; DIRETORIA DE PROJETOS DE EDIFICACOES 15.659,55 3.131,91 0,00 0,00 0,00 0,00 0,00 2.078,00 20.869,46 2.787,58 3.531,71 0,00 0,00 6.319,29 14.550,17 31/03/2023
49 118200 ALBERTO PEREIRA DA COSTA OFICIAL DO MP DORES DO INDAIÁ - COMARCA; DORES DO INDAIA-PJ-UNPJ 19.791,01 17.811,91 0,00 0,00 0,00 5.454,90 450,08 6.988,06 50.495,96 5.454,90 8.830,61 2.140,70 0,00 16.426,21 34.069,75 31/03/2023
50 282400 ALCILENE MARISE DE ARAUJO ANALISTA DO MP BELO HORIZONTE - COMARCA; BH-23PJ INF-FISC MED SOC FEC 20.574,59 6.172,38 0,00 0,00 0,00 0,00 0,00 2.078,00 28.824,97 4.060,46 5.317,29 0,00 0,00 9.377,75 19.447,22 31/03/2023
51 112600 ALCIONE DA MOTA JARDIM OFICIAL DO MP BELO HORIZONTE - COMARCA; CAO-CRIANCAS E ADOLESCENTES-SECRETARIA 19.791,01 13.853,71 0,00 0,00 0,00 0,00 0,00 2.078,00 35.722,72 5.164,10 6.910,67 0,00 0,00 12.074,77 23.647,95 31/03/2023
52 396400 ALCIONE DE FREITAS E SILVA ANALISTA DO MP BELO HORIZONTE - COMARCA; ASSESS JUR DO CONS SUPERIOR DO MINISTERIO PUB 16.695,70 6.678,28 0,00 0,00 0,00 0,00 0,00 2.078,00 25.451,98 3.520,79 4.590,27 0,00 0,00 8.111,06 17.340,92 31/03/2023
53 657400 ALCIONE MARIA FERREIRA ASSESSOR PROCURADOR JUSTICA BELO HORIZONTE - COMARCA; GABINETE DE PROCURADOR DE JUSTIÇA - SALA 610 0,00 0,00 7.857,77 0,00 0,00 0,00 0,00 3.028,00 10.885,77 877,22 1.462,79 0,00 0,00 2.340,01 8.545,76 31/03/2023
54 161600 ALCIONE NERY SOUZA ASSESSOR ADMINISTRATIVO III BELO HORIZONTE - COMARCA; BH-18PJ DIREITOS HUMANOS-SECRETARIA 0,00 4.842,12 9.684,23 0,00 0,00 0,00 0,00 2.078,00 16.604,35 877,22 3.296,65 0,00 0,00 4.173,87 12.430,48 31/03/2023
55 376000 ALDA GOMES LANA OFICIAL DO MP BELO HORIZONTE - COMARCA; BH-18PJ VIOLENCIA DOMESTICA-SECRETARIA 11.008,33 3.302,50 0,00 0,00 0,00 0,00 1.669,96 8.286,70 24.267,49 2.246,81 2.698,84 0,00 0,00 4.945,65 19.321,84 31/03/2023
56 148000 ALDA MARTINS SIMOES OFICIAL DO MP BELO HORIZONTE - COMARCA; BH-23PJ CIVEL- FISC ENT AB POL 20.574,59 10.287,30 0,00 0,00 0,00 0,00 0,00 2.078,00 32.939,89 4.718,85 6.319,98 0,00 0,00 11.038,83 21.901,06 31/03/2023
57 318400 ALDO CREPALDI JUNIOR OFICIAL DO MP BELO HORIZONTE - COMARCA; DIVISAO DE MATERIAIS 11.008,33 3.302,50 0,00 0,00 0,00 0,00 262,37 4.940,17 19.513,37 2.070,68 2.444,54 0,00 0,00 4.515,22 14.998,15 31/03/2023
58 604500 ALENIZE APARECIDA RODRIGUES HENRIQUE OFICIAL DO MP RIO NOVO - COMARCA; RIO NOVO-PJ-UNPJ 6.694,66 669,47 0,00 0,00 0,00 0,00 0,00 2.078,00 9.442,13 959,93 891,80 0,00 0,00 1.851,73 7.590,40 31/03/2023
59 197900 ALESSA DE SOUSA E SILVA OFICIAL DO MP OLIVEIRA - COMARCA; OLIVEIRA-PJ-02PJ 19.037,29 7.614,92 0,00 0,00 0,00 0,00 0,00 2.243,15 28.895,36 4.045,30 5.243,27 0,00 0,00 9.288,57 19.606,79 31/03/2023
60 428500 ALESSANDRA ALVES DINIZ OFICIAL DO MP BELO HORIZONTE - COMARCA; CENTRAL DE APOIO TECNICO-SECRETARIA 8.932,15 4.466,08 0,00 0,00 0,00 0,00 0,00 2.078,00 15.476,23 1.924,67 2.285,87 0,00 0,00 4.210,54 11.265,69 31/03/2023
61 286801 ALESSANDRA BOTELHO JUNQUEIRA DE MENEZES ANALISTA DO MP PASSOS - COMARCA; PASSOS-PJ-05PJ 16.169,47 6.467,79 0,00 0,00 0,00 0,00 498,02 8.460,94 31.596,22 3.402,91 4.211,54 0,00 0,00 7.614,45 23.981,77 31/03/2023
62 307000 ALESSANDRA CRISTINA SANTOS MENDES ANALISTA DO MP BELO HORIZONTE - COMARCA; BH-18PJ VIOLENCIA DOMESTICA-SECRETARIA 18.312,36 5.493,71 0,00 0,00 0,00 0,00 0,00 2.078,00 25.884,07 3.589,92 4.637,94 0,00 0,00 8.227,86 17.656,21 31/03/2023
63 264400 ALESSANDRA DE SOUZA SANTOS ANALISTA DO MP BELO HORIZONTE - COMARCA; SECRETARIA DE ASSUNTOS INTERNACIONAIS 20.574,59 10.287,30 0,00 0,00 0,00 0,00 0,00 2.078,00 32.939,89 4.718,85 6.319,98 0,00 0,00 11.038,83 21.901,06 31/03/2023
64 441500 ALESSANDRA DRUMMOND DE FIGUEIREDO ROSSI ANALISTA DO MP BELO HORIZONTE - COMARCA; DIRETORIA DE PROJETOS DE EDIFICACOES 11.008,33 2.201,67 0,00 0,00 0,00 0,00 0,00 2.078,00 15.288,00 1.894,55 2.242,39 0,00 0,00 4.136,94 11.151,06 31/03/2023
65 524000 ALESSANDRA LUCIOLI DE BARROS GUERRA ANALISTA DO MP BELO HORIZONTE - COMARCA; BH-19PJ SAUDE--SECRETARIA 11.008,33 2.201,67 0,00 0,00 0,00 0,00 532,80 7.890,40 21.633,20 1.894,55 2.138,11 0,00 0,00 4.032,66 17.600,54 31/03/2023
66 479900 ALESSANDRA MARA ANDRADE DE FARIA OFICIAL DO MP UBERABA - COMARCA; UBERABA-PJ-09PJ 9.378,86 1.875,77 0,00 0,00 0,00 0,00 0,00 2.078,00 13.332,63 1.581,69 1.790,70 0,00 0,00 3.372,39 9.960,24 31/03/2023
67 226700 ALESSANDRA MARA VASCONCELOS REZENDE OFICIAL DO MP CONSELHEIRO LAFAIETE - COMARCA; CONSELHEIRO LAFAIETE-PJ-07PJ 15.659,55 6.263,82 0,00 0,00 0,00 0,00 482,31 7.339,61 29.745,29 3.288,69 4.255,18 0,00 0,00 7.543,87 22.201,42 31/03/2023
68 196500 ALESSANDRA MARIA RIBEIRO LUCIANO OFICIAL DO MP RIO PARANAÍBA - COMARCA; RIO PARANAIBA-PJ-UNPJ 19.037,29 9.518,65 0,00 0,00 0,00 0,00 0,00 2.078,00 30.633,94 4.349,90 5.683,03 0,00 0,00 10.032,93 20.601,01 31/03/2023
69 651700 ALESSANDRA PROFIRIO SOUZA OFICIAL DO MP NOVA ERA - COMARCA; NOVA ERA-PJ-UNPJ 5.438,14 543,81 0,00 0,00 0,00 0,00 0,00 2.078,00 8.059,95 749,62 517,39 0,00 0,00 1.267,01 6.792,94 31/03/2023
70 384900 ALESSANDRA RODRIGUES ANALISTA DO MP VISCONDE DO RIO BRANCO - COMARCA; VISCONDE DO RIO BRANCO-PJ-03PJ 16.695,70 5.008,71 0,00 0,00 0,00 0,00 2.232,77 9.172,02 33.109,20 3.520,79 4.485,99 0,00 0,00 8.006,78 25.102,42 31/03/2023
71 390000 ALESSANDRA SPADANO MASSARA VASCONCELOS OFICIAL DO MP BETIM - COMARCA; BETIM-PJ-10PJ 11.008,33 2.201,67 0,00 0,00 0,00 0,00 0,00 2.078,00 15.288,00 1.894,55 2.242,39 0,00 0,00 4.136,94 11.151,06 31/03/2023
72 426500 ALESSANDRO CAMPOS DE PAIVA ANALISTA DO MP BELO HORIZONTE - COMARCA; DIR CRIACAO E MIDIAS 16.169,47 3.233,89 0,00 0,00 0,00 0,00 0,00 2.078,00 21.481,36 2.885,49 3.673,05 0,00 0,00 6.558,54 14.922,82 31/03/2023
73 623400 ALESSANDRO DE OLIVEIRA REZENDE ANALISTA DO MP BELO HORIZONTE - COMARCA; DIRET DE INFORMACAO E CONHECIMENTO-DINC/CEAF 10.325,15 1.032,52 0,00 0,00 0,00 0,00 0,00 2.078,00 13.435,67 1.598,18 1.814,50 0,00 0,00 3.412,68 10.022,99 31/03/2023
74 420600 ALESSANDRO SILVA OFICIAL DO MP VISCONDE DO RIO BRANCO - COMARCA; VISCONDE DO RIO BRANCO-PJ-02PJ 10.325,15 4.130,06 0,00 0,00 0,00 0,00 265,01 4.969,04 19.689,26 2.093,78 1.854,12 0,00 0,00 3.947,90 15.741,36 31/03/2023
75 375301 ALETHEIA PATRICIA ASSIS MORAIS MOREIRA ANALISTA DO MP ITABIRA - COMARCA; ITABIRA-PJ-02PJ 11.008,33 1.100,83 0,00 0,00 0,00 0,00 44,40 3.512,37 15.665,93 1.718,41 1.935,96 0,00 0,00 3.654,37 12.011,56 31/03/2023
76 382300 ALEX CARVALHO LIMA ANALISTA DO MP UBERLÂNDIA - COMARCA; UBERLANDIA-PJ-14PJ 16.695,70 3.339,14 0,00 0,00 0,00 0,00 514,23 8.637,76 29.186,83 2.986,52 3.818,93 0,00 0,00 6.805,45 22.381,38 31/03/2023
77 195201 ALEX DE CASTRO PEREIRA ANALISTA DO MP UBERABA - COMARCA; UBERABA-PJ-09PJ 20.574,59 8.229,84 0,00 0,00 0,00 0,00 528,08 7.838,89 37.171,40 4.389,66 5.844,70 0,00 0,00 10.234,36 26.937,04 31/03/2023
78 358900 ALEX DE PAULA LANZA ASSESSOR ADMINISTRATIVO IV BELO HORIZONTE - COMARCA; DIR CONTEUDO JORNALISTICO 0,00 0,00 12.920,95 0,00 0,00 0,00 0,00 3.028,00 15.948,95 877,22 2.855,17 0,00 0,00 3.732,39 12.216,56 31/03/2023
79 178400 ALEX RODRIGO SALDANHA GUIMARAES OFICIAL DO MP BELO HORIZONTE - COMARCA; DIRETORIA DE SISTEMAS DE INFORMACAO 6.694,66 2.677,86 0,00 0,00 0,00 0,00 0,00 2.078,00 11.450,52 1.280,55 1.355,93 0,00 0,00 2.636,48 8.814,04 31/03/2023
80 413500 ALEX VILELA OLIVEIRA ANALISTA DO MP GOVERNADOR VALADARES - COMARCA; COORD REG PJ DEF EDU DIR CRIANCA ADOL RIODOCE 16.169,47 3.233,89 0,00 0,00 0,00 0,00 0,00 2.078,00 21.481,36 2.885,49 3.673,05 0,00 0,00 6.558,54 14.922,82 31/03/2023
81 264300 ALEXANDRA FATIMA SARAIVA SOARES ANALISTA DO MP BELO HORIZONTE - COMARCA; CENTRAL DE APOIO TECN-SETOR DE MEIO AMBIENTE 20.574,59 6.172,38 0,00 0,00 0,00 0,00 0,00 2.078,00 28.824,97 4.060,46 5.369,43 0,00 0,00 9.429,89 19.395,08 31/03/2023
82 488000 ALEXANDRA LARA PAIS DE CARVALHO ANALISTA DO MP SABARÁ - COMARCA; SABARA-PJ-04PJ 11.008,33 2.201,67 0,00 0,00 0,00 0,00 145,31 3.663,20 17.018,51 1.894,55 2.085,98 0,00 0,00 3.980,53 13.037,98 31/03/2023
83 256300 ALEXANDRA SANTOS GOMES OFICIAL DO MP BELO HORIZONTE - COMARCA; DIRETORIA GESTAO COMPRAS LICITACOES 11.008,33 4.403,33 0,00 0,00 0,00 0,00 0,00 2.078,00 17.489,66 2.246,81 2.750,97 0,00 0,00 4.997,78 12.491,88 31/03/2023
84 403300 ALEXANDRE AUGUSTO RODRIGUES ANALISTA DO MP ÁGUAS FORMOSAS - COMARCA; AGUAS FORMOSAS-PJ-UNPJ 11.008,33 2.201,67 0,00 0,00 0,00 0,00 0,00 3.978,00 17.188,00 1.894,55 2.242,39 0,00 0,00 4.136,94 13.051,06 31/03/2023
85 640900 ALEXANDRE BARBOSA MASCARENHAS ANALISTA DO MP BETIM - COMARCA; BETIM-PJ-02PJ 8.377,76 837,78 0,00 0,00 0,00 0,00 0,00 2.078,00 11.293,54 982,16 1.058,44 0,00 0,00 2.040,60 9.252,94 31/03/2023
86 311700 ALEXANDRE BARCELOS RESENDE OFICIAL DO MP BELO HORIZONTE - COMARCA; BH-13ª PJ JUÍZO DE TÓXICOS-SECRETARIA 9.684,23 2.905,27 0,00 0,00 0,00 0,00 0,00 3.028,00 15.617,50 1.795,27 2.099,05 0,00 0,00 3.894,32 11.723,18 31/03/2023
87 285600 ALEXANDRE CAMPOS DE OLIVEIRA OFICIAL DO MP UBERABA - COMARCA; COORD REG BACIAS PARANAIBA BAIXO RIO GRANDE 11.008,33 3.302,50 0,00 0,00 0,00 0,00 262,37 4.940,17 19.513,37 2.070,68 2.340,27 0,00 0,00 4.410,95 15.102,42 31/03/2023
88 509200 ALEXANDRE CAPUANO DE REZENDE ANALISTA DO MP BELO HORIZONTE - COMARCA; BH-07PJ 03 TRIBUNAL DO JURI-GAB 061PJ 11.008,33 2.201,67 0,00 0,00 0,00 0,00 0,00 2.078,00 15.288,00 1.894,55 2.190,25 0,00 0,00 4.084,80 11.203,20 31/03/2023
89 229400 ALEXANDRE CARLOS BOTREL SUPERINTENDENTE BELO HORIZONTE - COMARCA; SUPERINTENDENCIA DOS ORGAOS COLEGIADOS 24.982,93 9.993,17 0,00 0,00 0,00 0,00 512,98 7.674,18 43.163,26 3.402,91 7.813,27 0,00 0,00 11.216,18 31.947,08 31/03/2023
90 411900 ALEXANDRE CARVALHO SANTOS RIBEIRO ANALISTA DO MP OLIVEIRA - COMARCA; OLIVEIRA-PJ-02PJ 16.169,47 3.233,89 0,00 0,00 0,00 0,00 498,02 8.460,94 28.362,32 2.885,49 3.673,05 0,00 0,00 6.558,54 21.803,78 31/03/2023
91 641600 ALEXANDRE DA SILVA ASSUNCAO OFICIAL DO MP BELO HORIZONTE - COMARCA; SERVICO MEDICO-DEPTO PERIC MEDICA SAUDE OCUP 5.889,39 588,94 0,00 0,00 0,00 0,00 0,00 2.078,00 8.556,33 822,63 685,96 0,00 0,00 1.508,59 7.047,74 31/03/2023
92 201200 ALEXANDRE DE ALENCAR CORDEIRO OFICIAL DO MP ÁGUAS FORMOSAS - COMARCA; AGUAS FORMOSAS-PJ-UNPJ 6.694,66 3.347,33 0,00 0,00 0,00 0,00 0,00 2.078,00 12.119,99 1.387,67 1.510,58 0,00 0,00 2.898,25 9.221,74 31/03/2023
93 288200 ALEXANDRE DE VASCONCELOS COSTA KER ANALISTA DO MP BELO HORIZONTE - COMARCA; BH-03PJ EMPRESARIAL-SECRETARIA 19.791,01 5.937,30 0,00 0,00 0,00 0,00 471,69 7.223,66 33.423,66 3.897,48 5.081,98 0,00 0,00 8.979,46 24.444,20 31/03/2023
94 445000 ALEXANDRE DIOGENES OLIVEIRA ANALISTA DO MP SALINAS - COMARCA; SALINAS-PJ-02PJ 12.118,97 2.423,79 0,00 0,00 0,00 0,00 266,62 5.936,55 20.745,93 2.107,79 2.550,26 0,00 0,00 4.658,05 16.087,88 31/03/2023
95 463400 ALEXANDRE LEAL WINKELSTROTER ANALISTA DO MP TEÓFILO OTONI - COMARCA; TEOFILO OTONI-PJ-04PJ 11.008,33 2.201,67 0,00 0,00 0,00 0,00 0,00 2.078,00 15.288,00 1.894,55 2.242,39 0,00 0,00 4.136,94 11.151,06 31/03/2023
96 615700 ALEXANDRE LUIZ DE CASTRO MACIEL ANALISTA DO MP BELO HORIZONTE - COMARCA; BH-08PJ JUIZADO ESPECIAL-SECRETARIA 10.325,15 1.032,52 0,00 0,00 0,00 0,00 0,00 2.078,00 13.435,67 1.598,18 1.762,36 0,00 0,00 3.360,54 10.075,13 31/03/2023
97 356900 ALEXANDRE MOISES MENDONCA E ARAUJO OFICIAL DO MP UBERABA - COMARCA; UBERABA-PJ-13PJ 8.650,50 2.595,15 0,00 0,00 0,00 0,00 0,00 2.078,00 13.323,65 1.580,25 1.788,63 0,00 0,00 3.368,88 9.954,77 31/03/2023
98 633300 ALEXANDRE NONATO MARTINS OFICIAL DO MP IGARAPÉ - COMARCA; IGARAPE-PJ-02PJ 5.889,39 588,94 0,00 0,00 0,00 0,00 0,00 2.078,00 8.556,33 824,08 633,42 0,00 0,00 1.457,50 7.098,83 31/03/2023
99 469900 ALEXANDRE PEREIRA GUEDES ANALISTA DO MP CATAGUASES - COMARCA; CATAGUASES-PJ-03PJ 11.008,33 2.201,67 0,00 0,00 0,00 0,00 145,31 3.663,20 17.018,51 1.894,55 2.242,39 0,00 0,00 4.136,94 12.881,57 31/03/2023
100 208700 ALEXANDRE RESENDE FRAGA ANALISTA DO MP BELO HORIZONTE - COMARCA; BH-19PJ SAUDE-SECRETARIA 130PJ 20.574,59 8.229,84 0,00 0,00 0,00 0,00 0,00 2.078,00 30.882,43 4.389,66 5.688,29 0,00 0,00 10.077,95 20.804,48 31/03/2023
101 216401 ALEXANDRE RIBEIRO DE LIMA MAIORINO ANALISTA DO MP UBERABA - COMARCA; UBERABA-PJ-03PJ 19.791,01 7.916,40 0,00 0,00 0,00 0,00 507,97 7.619,48 35.834,86 4.214,13 5.539,15 0,00 0,00 9.753,28 26.081,58 31/03/2023
102 475100 ALEXANDRE TEOTONIO COSTA ANALISTA DO MP ARAGUARI - COMARCA; ARAGUARI-PJ-01PJ 11.008,33 2.201,67 0,00 0,00 0,00 0,00 0,00 2.078,00 15.288,00 1.894,55 2.138,11 0,00 0,00 4.032,66 11.255,34 31/03/2023
103 339000 ALEXANDRE VITOR CARDOSO OFICIAL DO MP BELO HORIZONTE - COMARCA; BH-23PJ INFRACIONAL-SEC EXP 6.694,66 2.008,40 0,00 0,00 0,00 0,00 0,00 2.078,00 10.781,06 1.173,44 1.044,87 0,00 0,00 2.218,31 8.562,75 31/03/2023
104 623100 ALEXSANDER BATISTA AGUIAR COORDENADOR II BELO HORIZONTE - COMARCA; DIRETORIA DE SUPORTE E MANUTENCAO 18.312,36 1.831,24 0,00 0,00 0,00 0,00 517,02 8.668,21 29.328,83 1.598,18 4.074,22 0,00 0,00 5.672,40 23.656,43 31/03/2023
105 513300 ALFSON MIRANDA BRAGA ANALISTA DO MP BELO HORIZONTE - COMARCA; BH-12PJ JUIZO CRIMINAL-GAB 087PJ 11.008,33 2.201,67 0,00 0,00 0,00 0,00 0,00 2.078,00 15.288,00 1.894,55 2.242,39 0,00 0,00 4.136,94 11.151,06 31/03/2023
106 618400 ALICE MAGALHAES MACEDO DE CARVALHO ANALISTA DO MP IPATINGA - COMARCA; IPATINGA-PJ-10PJ 10.325,15 1.032,52 0,00 0,00 0,00 0,00 0,00 3.028,00 14.385,67 1.598,18 1.814,50 0,00 0,00 3.412,68 10.972,99 31/03/2023
107 707000 ALICE MARIA RIBEIRO DINIZ ASSESSOR PROMOTOR JUSTICA BELO HORIZONTE - COMARCA; PROC JUST ATUACAO TRIBUNAIS SUPERIORES-GAB004 0,00 0,00 7.857,77 0,00 0,00 0,00 0,00 2.078,00 9.935,77 877,22 1.462,79 0,00 0,00 2.340,01 7.595,76 31/03/2023
108 471000 ALICE TITONELI MOREIRA ANALISTA DO MP MIRADOURO - COMARCA; MIRADOURO-PJ-UNPJ 11.008,33 2.201,67 0,00 0,00 0,00 0,00 0,00 3.028,00 16.238,00 1.894,55 2.138,11 0,00 0,00 4.032,66 12.205,34 31/03/2023
109 731600 ALICIA PAULA RODRIGUES DE LIMA ASSESSOR PROMOTOR JUSTICA TIROS - COMARCA; TIROS-PJ-UNPJ 0,00 0,00 7.857,77 0,00 0,00 0,00 0,00 2.078,00 9.935,77 877,22 1.462,79 0,00 0,00 2.340,01 7.595,76 31/03/2023
110 725800 ALINE ALBIERI FRANCISCO ASSESSOR PROMOTOR JUSTICA BELO HORIZONTE - COMARCA; CAO-ORDEM ECONOMICA E TRIBUTARIA-ASSESS TECN 0,00 0,00 7.857,77 0,00 0,00 0,00 0,00 2.078,00 9.935,77 877,22 1.462,79 0,00 0,00 2.340,01 7.595,76 31/03/2023
111 733200 ALINE APARECIDA DO PRADO TERRITO ASSESSOR ADMINISTRATIVO II BELO HORIZONTE - COMARCA; SUPER DE GESTAO DE PESSOAS-LOTACAO TEMPORARIA 0,00 0,00 6.248,35 0,00 0,00 0,00 0,00 1.941,64 8.189,99 877,22 982,70 0,00 0,00 1.859,92 6.330,07 31/03/2023
112 622400 ALINE BALBINO PORTUGAL LOPES ANALISTA DO MP TRÊS PONTAS - COMARCA; TRES PONTAS-PJ-03PJ 10.325,15 1.032,52 0,00 0,00 0,00 0,00 0,00 3.028,00 14.385,67 1.598,18 1.814,50 0,00 0,00 3.412,68 10.972,99 31/03/2023
113 373000 ALINE BOTELHO RESENDE OFICIAL DO MP JUIZ DE FORA - COMARCA; JUIZ DE FORA-PJ-22PJ 10.661,25 3.198,38 0,00 0,00 0,00 0,00 0,00 2.078,00 15.937,63 1.998,49 2.392,45 0,00 0,00 4.390,94 11.546,69 31/03/2023
114 699800 ALINE CRISTINA DE OLIVEIRA AMARAL BARBOSA ASSESSOR PROCURADOR JUSTICA BELO HORIZONTE - COMARCA; GABINETE DE PROCURADOR DE JUSTIÇA - SALA 904 0,00 0,00 7.857,77 0,00 0,00 0,00 0,00 2.078,00 9.935,77 877,22 1.358,52 0,00 0,00 2.235,74 7.700,03 31/03/2023
115 407700 ALINE CRISTINA RODRIGUES PEREIRA COORDENADOR II BELO HORIZONTE - COMARCA; DIRETORIA DE PROJETOS DE EDIFICACOES 18.312,36 3.662,47 0,00 0,00 0,00 0,00 0,00 2.078,00 24.052,83 1.894,55 4.652,72 0,00 0,00 6.547,27 17.505,56 31/03/2023
116 193100 ALINE CRISTINA SENA OLIVEIRA OFICIAL DO MP UBERLÂNDIA - COMARCA; UBERLANDIA-PJ-03PJ 18.312,36 7.324,94 0,00 0,00 0,00 0,00 470,02 8.155,46 34.262,78 3.882,92 5.060,96 0,00 0,00 8.943,88 25.318,90 31/03/2023
117 554200 ALINE CRISTINA SILVA SOUZA OFICIAL DO MP TIROS - COMARCA; TIROS-PJ-UNPJ 6.694,66 669,47 0,00 0,00 0,00 0,00 0,00 2.078,00 9.442,13 959,93 891,80 0,00 0,00 1.851,73 7.590,40 31/03/2023
118 505500 ALINE DA CUNHA MARREIROS OLIVEIRA ANALISTA DO MP EUGENÓPOLIS - COMARCA; EUGENOPOLIS-PJ-UNPJ 11.008,33 2.201,67 0,00 0,00 0,00 0,00 0,00 3.978,00 17.188,00 1.894,55 2.190,25 0,00 0,00 4.084,80 13.103,20 31/03/2023
119 433500 ALINE DE MELO QUEIROZ OFICIAL DO MP BELO HORIZONTE - COMARCA; ASSESSORIA JURIDICA DO PROCON-MG 9.999,62 1.999,92 3.585,64 0,00 0,00 0,00 400,02 7.391,85 23.377,05 1.700,87 2.948,83 0,00 0,00 4.649,70 18.727,35 31/03/2023
120 691100 ALINE DE MELO SOUZA ASSESSOR PROCURADOR JUSTICA BELO HORIZONTE - COMARCA; GABINETE DE PROCURADOR DE JUSTIÇA - SALA 401 0,00 0,00 7.857,77 0,00 0,00 0,00 0,00 2.078,00 9.935,77 877,22 1.462,79 0,00 0,00 2.340,01 7.595,76 31/03/2023
121 542700 ALINE DE SOUSA ALBINO ANALISTA DO MP CONTAGEM - COMARCA; CONTAGEM-PJ-09PJ 11.008,33 1.100,83 0,00 0,00 0,00 0,00 0,00 2.078,00 14.187,16 1.718,41 1.988,10 0,00 0,00 3.706,51 10.480,65 31/03/2023
122 330000 ALINE DIORIO MAYRINK OFICIAL DO MP BELO HORIZONTE - COMARCA; NUCLEO DE ACORDOS DE NAO PERSECUCAO PENAL BH 8.932,15 1.786,43 0,00 0,00 0,00 0,00 0,00 2.078,00 12.796,58 1.495,92 1.666,87 0,00 0,00 3.162,79 9.633,79 31/03/2023
123 499000 ALINE FERREIRA LOPES ANALISTA DO MP TEÓFILO OTONI - COMARCA; TEOFILO OTONI-PJ-09PJ 11.008,33 2.201,67 0,00 0,00 0,00 0,00 145,31 3.663,20 17.018,51 1.894,55 2.190,25 0,00 0,00 4.084,80 12.933,71 31/03/2023
124 405300 ALINE LAIA CARDOZO SUPERINTENDENTE BELO HORIZONTE - COMARCA; SUPERINTENDENCIA LOGISTICA SERVICOS 24.982,93 4.996,59 0,00 0,00 0,00 0,00 549,62 8.073,90 38.603,04 2.986,52 6.553,72 0,00 0,00 9.540,24 29.062,80 31/03/2023
125 278200 ALINE MARCIA FARIA BARBOSA FERNANDES OFICIAL DO MP BARBACENA - COMARCA; BARBACENA-PJ-SECRETARIA 8.650,50 2.595,15 0,00 0,00 0,00 0,00 0,00 2.078,00 13.323,65 1.580,25 1.684,35 0,00 0,00 3.264,60 10.059,05 31/03/2023
126 389000 ALINE NERI NOBRE ANALISTA DO MP MONTES CLAROS - COMARCA; COORD REG PJ DEF EDUC DIR CRIANCA ADOL NORTE 16.695,70 6.678,28 0,00 0,00 0,00 0,00 514,23 7.687,76 31.575,97 3.520,79 4.590,27 0,00 0,00 8.111,06 23.464,91 31/03/2023
127 294600 ALINE PATRICIA SILVA VIEIRA OFICIAL DO MP UBERLÂNDIA - COMARCA; UBERLANDIA-PJ-03PJ 13.341,69 4.002,51 0,00 0,00 0,00 0,00 2.065,72 7.376,78 26.786,70 2.556,02 3.423,34 0,00 0,00 5.979,36 20.807,34 31/03/2023
128 420000 ALINE RODRIGUES CAMOROPIN ANALISTA DO MP SABARÁ - COMARCA; SABARA-PJ-02PJ 16.169,47 3.233,89 0,00 0,00 0,00 0,00 498,02 7.510,94 27.412,32 2.885,49 3.673,05 0,00 0,00 6.558,54 20.853,78 31/03/2023
129 715800 ALINE SANTOS PEDROSA MAIA BARBOSA ASSESSOR PROCURADOR JUSTICA BELO HORIZONTE - COMARCA; GABINETE DE PROCURADOR DE JUSTIÇA - SALA 1010 0,00 0,00 7.857,77 0,00 0,00 0,00 0,00 2.078,00 9.935,77 877,22 1.462,79 0,00 0,00 2.340,01 7.595,76 31/03/2023
130 699600 ALINE SEPULVEDA ROSA PIRES ASSESSOR PROCURADOR JUSTICA BELO HORIZONTE - COMARCA; GABINETE DE PROCURADOR DE JUSTIÇA - SALA 905 0,00 0,00 7.857,77 0,00 0,00 0,00 0,00 2.078,00 9.935,77 877,22 1.462,79 0,00 0,00 2.340,01 7.595,76 31/03/2023
131 408300 ALINE SILVA ARAUJO DE PAULA ANALISTA DO MP SÃO SEBASTIÃO DO PARAÍSO - COMARCA; SAO SEBASTIAO DO PARAISO-PJ-02PJ 16.169,47 3.233,89 0,00 0,00 0,00 0,00 0,00 2.078,00 21.481,36 982,16 4.081,97 0,00 0,00 5.064,13 16.417,23 31/03/2023
132 425400 ALINE TRINDADE DE FREITAS CAMPOS OFICIAL DO MP BELO HORIZONTE - COMARCA; BH-14PJ DEFESA CONSUMIDOR-SECRETARIA 9.999,62 1.999,92 0,00 0,00 0,00 0,00 0,00 2.078,00 14.077,54 1.700,87 1.962,77 0,00 0,00 3.663,64 10.413,90 31/03/2023
133 517200 ALISSOM PEREIRA DA SILVA ANALISTA DO MP BORDA DA MATA - COMARCA; BORDA DA MATA-PJ-UNPJ 11.008,33 2.201,67 0,00 0,00 0,00 0,00 145,31 4.613,20 17.968,51 1.894,55 2.242,39 0,00 0,00 4.136,94 13.831,57 31/03/2023
134 442400 ALISSON LABRE ANALISTA DO MP VARGINHA - COMARCA; VARGINHA-PJ-03PJ 11.736,91 2.347,38 0,00 0,00 0,00 0,00 258,21 4.894,86 19.237,36 982,16 2.733,73 0,00 0,00 3.715,89 15.521,47 31/03/2023
135 643800 ALLAN PAUL FONSECA DE CASTRO OFICIAL DO MP CONTAGEM - COMARCA; CONTAGEM-PJ-SECRETARIA 5.889,39 588,94 2.602,68 0,00 0,00 0,00 0,00 3.028,00 12.109,01 822,63 1.401,69 0,00 0,00 2.224,32 9.884,69 31/03/2023
136 612900 ALLAN VINICIUS VIEIRA ARAUJO COORDENADOR II BELO HORIZONTE - COMARCA; DIRETORIA DE GESTAO DOCUMENTAL 18.312,36 1.831,24 0,00 0,00 0,00 0,00 517,02 7.718,21 28.378,83 959,93 4.406,15 0,00 0,00 5.366,08 23.012,75 31/03/2023
137 349000 ALLEC RODRIGUES VIEIRA OFICIAL DO MP CAPINÓPOLIS - COMARCA; CAO-CIVEL 11.008,33 3.302,50 0,00 0,00 0,00 0,00 262,37 4.940,17 19.513,37 2.070,68 2.496,68 0,00 0,00 4.567,36 14.946,01 31/03/2023
138 297300 ALLYSON SALIBA MONTEIRO LAIZO ANALISTA DO MP CONSELHEIRO LAFAIETE - COMARCA; CONSELHEIRO LAFAIETE-PJ-03PJ 20.574,59 6.172,38 0,00 0,00 0,00 0,00 490,36 8.377,39 35.614,72 4.060,46 5.369,43 0,00 0,00 9.429,89 26.184,83 31/03/2023
139 303700 ALMIR LOPES LOURES ANALISTA DO MP BELO HORIZONTE - COMARCA; CENTRAL DE APOIO TECN-SETOR DE MEIO AMBIENTE 20.574,59 6.172,38 0,00 0,00 0,00 0,00 490,36 7.427,39 34.664,72 4.060,46 5.369,43 0,00 0,00 9.429,89 25.234,83 31/03/2023
140 696600 ALOIZIO MARTINS JALES JUNIOR ASSESSOR PROMOTOR JUSTICA CAMPESTRE - COMARCA; CAMPESTRE-PJ-SECRETARIA 0,00 0,00 7.857,77 0,00 0,00 0,00 0,00 2.078,00 9.935,77 877,22 1.462,79 0,00 0,00 2.340,01 7.595,76 31/03/2023
141 515900 ALTAIR NEVES JUNIOR OFICIAL DO MP BELO HORIZONTE - COMARCA; BH-01PJ FAZENDA PUBLICA-SECRETARIA 8.650,50 1.730,10 0,00 0,00 0,00 0,00 0,00 2.078,00 12.458,60 1.441,84 1.588,80 0,00 0,00 3.030,64 9.427,96 31/03/2023
142 233300 ALVARINDO BATISTA ANALISTA DO MP BELO HORIZONTE - COMARCA; NUCLEO APOIO TECNICO ESP COMUNICACAO 20.574,59 8.229,84 0,00 0,00 0,00 0,00 0,00 2.078,00 30.882,43 4.389,66 5.792,56 0,00 0,00 10.182,22 20.700,21 31/03/2023
143 274100 ALYSSON CARVALHO VIDAL DE LACERDA OFICIAL DO MP MANHUAÇU - COMARCA; MANHUACU-PJ-01PJ 11.008,33 3.302,50 0,00 0,00 0,00 0,00 0,00 2.078,00 16.388,83 2.070,68 2.496,68 0,00 0,00 4.567,36 11.821,47 31/03/2023
144 621000 AMANDA BASTOS ALVES ANALISTA DO MP BELO HORIZONTE - COMARCA; BH-07PJ 02 TRIBUNAL DO JURI-GAB 066PJ 10.325,15 1.032,52 0,00 0,00 0,00 0,00 0,00 2.078,00 13.435,67 982,16 1.904,50 0,00 0,00 2.886,66 10.549,01 31/03/2023
145 521700 AMANDA CRISTINA AGUIAR MACHADO OFICIAL DO MP CONGONHAS - COMARCA; CONGONHAS-PJ-01PJ 6.694,66 1.338,93 0,00 0,00 0,00 0,00 0,00 2.078,00 10.111,59 1.066,32 994,50 0,00 0,00 2.060,82 8.050,77 31/03/2023
146 733500 AMANDA CRISTINA GONCALVES ASSESSOR ADMINISTRATIVO I PARACATU - COMARCA; COORD REG AP COM INCL MOB SOCIAIS NOROESTE MG 0,00 0,00 3.476,46 0,00 0,00 0,00 0,00 1.805,27 5.281,73 484,70 313,15 0,00 0,00 797,85 4.483,88 31/03/2023
147 713900 AMANDA DE ARAUJO CARVALHO ASSESSOR PROMOTOR JUSTICA ARAÇUAÍ - COMARCA; ARACUAI-PJ-01PJ 0,00 0,00 7.857,77 0,00 2.619,26 0,00 288,12 5.221,11 15.986,26 877,22 2.183,09 0,00 0,00 3.060,31 12.925,95 31/03/2023
148 613400 AMANDA DE ASSIS IUNES SANTOS ANALISTA DO MP CONGONHAS - COMARCA; CONGONHAS-PJ-01PJ 10.325,15 1.032,52 0,00 0,00 0,00 0,00 0,00 2.078,00 13.435,67 1.598,18 1.814,50 0,00 0,00 3.412,68 10.022,99 31/03/2023
149 695900 AMANDA DE OLIVEIRA ASSESSOR PROCURADOR JUSTICA BELO HORIZONTE - COMARCA; PROC JUST ATUACAO TRIBUNAIS SUPERIORES-GAB004 0,00 0,00 7.857,77 0,00 0,00 0,00 0,00 2.078,00 9.935,77 877,22 1.462,79 0,00 0,00 2.340,01 7.595,76 31/03/2023
150 520800 AMANDA DE SOUZA MACHADO ANALISTA DO MP BAEPENDI - COMARCA; BAEPENDI-PJ-UNPJ 11.008,33 2.201,67 0,00 0,00 0,00 0,00 145,31 3.663,20 17.018,51 1.894,55 2.138,11 0,00 0,00 4.032,66 12.985,85 31/03/2023
151 663900 AMANDA DENISE GONCALVES DA SILVA ASSESSOR ADMINISTRATIVO I BELO HORIZONTE - COMARCA; BH-12PJ JUIZO CRIMINAL-SECRETARIA 0,00 0,00 4.345,58 0,00 0,00 0,00 0,00 2.078,00 6.423,58 644,55 560,92 0,00 0,00 1.205,47 5.218,11 31/03/2023
152 677000 AMANDA LETICIA MESSIAS PEGO ASSESSOR PROMOTOR JUSTICA CORAÇÃO DE JESUS - COMARCA; CORACAO DE JESUS-PJ-UNPJ 0,00 0,00 7.857,77 0,00 0,00 0,00 0,00 2.078,00 9.935,77 877,22 1.462,79 0,00 0,00 2.340,01 7.595,76 31/03/2023
153 543100 AMANDA VIEIRA FREITAS BRESSANE ANALISTA DO MP VARGINHA - COMARCA; COORD REG DEF ORDEM ECON TRIB VARGINHA 11.008,33 1.100,83 0,00 0,00 0,00 0,00 0,00 2.078,00 14.187,16 1.718,41 1.988,10 0,00 0,00 3.706,51 10.480,65 31/03/2023
154 434400 AMARILIS ASSIS SIMAO CURCIO ANALISTA DO MP BELO HORIZONTE - COMARCA; DIRETORIA GESTAO COMPRAS LICITACOES 11.008,33 2.201,67 0,00 0,00 0,00 0,00 0,00 2.078,00 15.288,00 1.894,55 2.242,39 0,00 0,00 4.136,94 11.151,06 31/03/2023
155 652000 AMAURI SILVA ALVES ASSESSOR ADMINISTRATIVO III BELO HORIZONTE - COMARCA; BH-23PJ INFRACIONAL-SEC EXP 9.684,23 968,42 0,00 0,00 0,00 0,00 593,40 2.078,00 13.324,05 745,69 2.018,24 0,00 0,00 2.763,93 10.560,12 31/03/2023
156 58000 AMELIA GUARIZE DE CASTRO OFICIAL DO MP JUIZ DE FORA - COMARCA; JUIZ DE FORA-PJ-SECRETARIA 7.370,10 8.107,11 0,00 0,00 0,00 2.257,30 390,16 6.334,29 24.458,96 2.257,30 3.386,87 0,00 0,00 5.644,17 18.814,79 31/03/2023
157 324301 AMERICA SUELI FERREIRA DA SILVA ANALISTA DO MP UBERLÂNDIA - COMARCA; UBERLANDIA-PJ-02PJ 11.008,33 2.201,67 0,00 0,00 0,00 0,00 145,31 3.663,20 17.018,51 1.894,55 2.190,25 0,00 0,00 4.084,80 12.933,71 31/03/2023
158 273300 AMUJACY DE BRITO ASSIZ OFICIAL DO MP BELO HORIZONTE - COMARCA; BH-12PJ JUIZO CRIMINAL-SECRETARIA 11.008,33 3.302,50 0,00 0,00 0,00 0,00 0,00 2.078,00 16.388,83 2.070,68 2.288,13 0,00 0,00 4.358,81 12.030,02 31/03/2023
159 482200 ANA ALICE LOPES ACHTSCHIN ANALISTA DO MP BELO HORIZONTE - COMARCA; PROC JUST ATUACAO TRIBUNAIS SUPERIORES-GAB002 13.341,69 2.668,34 0,00 0,00 0,00 0,00 410,92 6.560,81 22.981,76 2.342,55 2.889,20 0,00 0,00 5.231,75 17.750,01 31/03/2023
160 490400 ANA AMELIA PAULINO GARCIA OFICIAL DO MP CONTAGEM - COMARCA; CONTAGEM-PJ-SECRETARIA 9.378,86 1.875,77 0,00 0,00 0,00 0,00 0,00 3.028,00 14.282,63 1.581,69 1.738,56 0,00 0,00 3.320,25 10.962,38 31/03/2023
161 690400 ANA ANGELICA MOREIRA DA CUNHA ASSESSOR PROMOTOR JUSTICA TIMÓTEO - COMARCA; TIMOTEO-PJ-02PJ 0,00 0,00 7.857,77 0,00 0,00 0,00 0,00 2.078,00 9.935,77 877,22 1.462,79 0,00 0,00 2.340,01 7.595,76 31/03/2023
162 714900 ANA BEATRIZ LOBATO ALVES DE CARVALHO ASSESSOR PROCURADOR JUSTICA BELO HORIZONTE - COMARCA; GABINETE DE PROCURADOR DE JUSTICA - SALA 309 0,00 3.143,11 7.857,77 0,00 0,00 0,00 0,00 2.078,00 13.078,88 877,22 2.327,15 0,00 0,00 3.204,37 9.874,51 31/03/2023
163 715000 ANA CARLA RODRIGUES DE SOUZA ASSESSOR PROMOTOR JUSTICA TRÊS CORACOES - COMARCA; TRES CORACOES-PJ-01PJ 0,00 0,00 7.857,77 0,00 0,00 0,00 0,00 2.078,00 9.935,77 877,22 1.462,79 0,00 0,00 2.340,01 7.595,76 31/03/2023
164 279100 ANA CAROLINA ARAUJO PEREIRA ANALISTA DO MP BELO HORIZONTE - COMARCA; DIRETORIA DE PROJETOS DE EDIFICACOES 20.574,59 6.172,38 0,00 0,00 8.915,66 0,00 490,36 7.427,39 43.580,38 4.060,46 7.769,10 0,00 0,00 11.829,56 31.750,82 31/03/2023
165 653300 ANA CAROLINA CYRNE DINIZ ASSESSOR ADMINISTRATIVO III BELO HORIZONTE - COMARCA; CENTRAL DE APOIO TECNICO-SETOR CONTABIL 0,00 0,00 9.684,23 0,00 0,00 0,00 0,00 2.078,00 11.762,23 877,22 1.965,07 0,00 0,00 2.842,29 8.919,94 31/03/2023
166 359400 ANA CAROLINA DE ABREU FARIA ASSESSOR ADMINISTRATIVO IV BELO HORIZONTE - COMARCA; SUPERINTENDÊNCIA DE ENGENHARIA E ARQUITETURA 0,00 0,00 12.920,95 0,00 0,00 0,00 142,13 4.578,51 17.641,59 877,22 2.803,03 0,00 0,00 3.680,25 13.961,34 31/03/2023
167 408500 ANA CAROLINA DE CASTRO CARVALHO ANALISTA DO MP BARBACENA - COMARCA; BARBACENA - SECRETARIA DAS PJS CRIMINAIS 16.169,47 3.233,89 0,00 0,00 0,00 0,00 0,00 3.028,00 22.431,36 2.885,49 3.673,05 0,00 0,00 6.558,54 15.872,82 31/03/2023
168 688000 ANA CAROLINA DE OLIVEIRA PINTO ASSESSOR PROCURADOR JUSTICA BELO HORIZONTE - COMARCA; GABINETE DE PROCURADOR DE JUSTIÇA - SALA 1005 0,00 0,00 7.857,77 0,00 0,00 0,00 0,00 2.078,00 9.935,77 877,22 1.462,79 0,00 0,00 2.340,01 7.595,76 31/03/2023
169 420200 ANA CAROLINA FERNANDES SILVA ANALISTA DO MP BELO HORIZONTE - COMARCA; GABINETE DE PROCURADOR DE JUSTIÇA - SALA 704 15.659,55 3.131,91 0,00 0,00 0,00 0,00 0,00 2.078,00 20.869,46 2.787,58 3.531,71 0,00 0,00 6.319,29 14.550,17 31/03/2023
170 522100 ANA CAROLINA FERNANDINO VIDAL PEREIRA SANTOS OFICIAL DO MP BELO HORIZONTE - COMARCA; SECRETARIA DO PROCON-MG 8.650,50 1.730,10 0,00 0,00 0,00 0,00 0,00 2.078,00 12.458,60 982,16 1.655,95 0,00 0,00 2.638,11 9.820,49 31/03/2023
171 716000 ANA CAROLINA FIGUEIREDO SILVA ASSESSOR PROCURADOR JUSTICA BELO HORIZONTE - COMARCA; PROC JUST ATUACAO TRIBUNAIS SUPERIORES-GAB001 0,00 0,00 7.857,77 0,00 0,00 0,00 0,00 2.078,00 9.935,77 877,22 1.462,79 0,00 0,00 2.340,01 7.595,76 31/03/2023
172 502400 ANA CAROLINA GONCALVES FERNANDES ANALISTA DO MP IPATINGA - COMARCA; IPATINGA-PJ-01PJ 11.008,33 2.201,67 0,00 0,00 0,00 0,00 145,31 5.563,20 18.918,51 982,16 2.375,68 0,00 0,00 3.357,84 15.560,67 31/03/2023
173 529900 ANA CAROLINA GONCALVES PECANHA CHEQUER ANALISTA DO MP MANHUAÇU - COMARCA; MANHUACU-PJ-04PJ 11.008,33 2.201,67 0,00 0,00 0,00 0,00 1.100,83 3.978,00 18.288,83 2.070,68 2.496,68 0,00 0,00 4.567,36 13.721,47 31/03/2023
174 431900 ANA CAROLINA MOTTA GUATIMOSIM ANALISTA DO MP BELO HORIZONTE - COMARCA; ASSESSORIA JURIDICO-ADMINISTRATIVA 15.659,55 3.131,91 0,00 0,00 0,00 0,00 0,00 3.028,00 21.819,46 2.787,58 3.531,71 0,00 0,00 6.319,29 15.500,17 31/03/2023
175 490600 ANA CAROLINA XAVIER GODOY ANALISTA DO MP BELO HORIZONTE - COMARCA; BH-18PJ DIREITOS HUMANOS-SECRETARIA 11.008,33 2.201,67 0,00 0,00 0,00 0,00 145,31 5.563,20 18.918,51 1.894,55 2.138,11 0,00 0,00 4.032,66 14.885,85 31/03/2023
176 600300 ANA CAROLINE PEREIRA DINIZ ANALISTA DO MP BELO HORIZONTE - COMARCA; PROC JUST ESP ACOES COMP ORIG CRIMINAL-SEC 11.008,33 1.100,83 0,00 0,00 0,00 0,00 44,40 3.512,37 15.665,93 1.718,41 1.988,10 0,00 0,00 3.706,51 11.959,42 31/03/2023
177 615800 ANA CAROLINE PEREIRA OLIVEIRA OFICIAL DO MP ALFENAS - COMARCA; ALFENAS-PJ-06PJ 6.694,66 669,47 0,00 0,00 0,00 0,00 0,00 2.078,00 9.442,13 959,93 891,80 0,00 0,00 1.851,73 7.590,40 31/03/2023
178 324800 ANA CECILIA MENDES DA SILVA OFICIAL DO MP OURO FINO - COMARCA; OURO FINO-PJ-01PJ 11.008,33 4.403,33 0,00 0,00 0,00 0,00 0,00 2.078,00 17.489,66 2.246,81 2.698,84 0,00 0,00 4.945,65 12.544,01 31/03/2023
179 704100 ANA CLARA MARTINS ALBUQUERQUE ASSESSOR ADMINISTRATIVO I BELO HORIZONTE - COMARCA; CAO-CRIANCAS E ADOLESCENTES-ASS TECNICA 0,00 0,00 4.345,58 0,00 0,00 0,00 0,00 2.078,00 6.423,58 644,55 560,92 0,00 0,00 1.205,47 5.218,11 31/03/2023
180 698700 ANA CLARA SANTOS ALMEIDA ASSESSOR PROMOTOR JUSTICA SABINÓPOLIS - COMARCA; SABINOPOLIS-PJ-UNPJ 0,00 0,00 7.857,77 0,00 0,00 0,00 0,00 2.078,00 9.935,77 877,22 1.462,79 0,00 0,00 2.340,01 7.595,76 31/03/2023
181 441300 ANA CLAUDIA ALKIMIM MIRANDA BOMTEMPO ANALISTA DO MP MONTES CLAROS - COMARCA; MONTES CLAROS-PJ-11PJ 15.659,55 3.131,91 0,00 0,00 0,00 0,00 0,00 2.078,00 20.869,46 2.787,58 3.427,43 0,00 0,00 6.215,01 14.654,45 31/03/2023
182 642500 ANA CLAUDIA DA COSTA NAVES OFICIAL DO MP MONTE CARMELO - COMARCA; MONTE CARMELO-PJ-02PJ 5.438,14 543,81 0,00 0,00 0,00 0,00 0,00 3.211,96 9.193,91 745,69 570,61 0,00 0,00 1.316,30 7.877,61 31/03/2023
183 716800 ANA CLAUDIA DOURADO MENDES ASSESSOR PROMOTOR JUSTICA ARAÇUAÍ - COMARCA; ARACUAI-PJ-02PJ 0,00 0,00 7.857,77 0,00 0,00 0,00 0,00 2.078,00 9.935,77 877,22 1.462,79 0,00 0,00 2.340,01 7.595,76 31/03/2023
184 604900 ANA CLAUDIA OLIVEIRA DE MIRANDA OFICIAL DO MP PONTE NOVA - COMARCA; PONTE NOVA-PJ-04PJ 6.694,66 669,47 0,00 0,00 0,00 0,00 0,00 2.078,00 9.442,13 959,93 839,66 0,00 0,00 1.799,59 7.642,54 31/03/2023
185 379300 ANA CRISTINA ALVES FLAVIO ANALISTA DO MP SÃO GOTARDO - COMARCA; SAO GOTARDO-PJ-01PJ 16.695,70 5.008,71 0,00 0,00 0,00 0,00 1.669,57 3.028,00 26.401,98 3.520,79 4.538,13 0,00 0,00 8.058,92 18.343,06 31/03/2023
186 461200 ANA CRISTINA ALVES PASCHOAL ANALISTA DO MP BELO HORIZONTE - COMARCA; BH-07PJ 03 TRIBUNAL DO JURI-GAB 064PJ 11.008,33 2.201,67 0,00 0,00 0,00 0,00 0,00 2.078,00 15.288,00 1.894,55 2.190,25 0,00 0,00 4.084,80 11.203,20 31/03/2023
187 514100 ANA CRISTINA ARAUJO ASSUNCAO ANALISTA DO MP BELO HORIZONTE - COMARCA; ASSESS JUR DO CONS SUPERIOR DO MINISTERIO PUB 11.008,33 2.201,67 0,00 0,00 0,00 0,00 0,00 3.028,00 16.238,00 1.894,55 2.190,25 0,00 0,00 4.084,80 12.153,20 31/03/2023
188 113401 ANA CRISTINA BRAGA ALBUQUERQUE ASSESSOR ADM. ESPECIAL BELO HORIZONTE - COMARCA; DIRETORIA-GERAL 0,00 0,00 24.982,93 0,00 8.327,64 0,00 549,62 7.495,90 41.356,09 877,22 8.462,31 0,00 0,00 9.339,53 32.016,56 31/03/2023
189 233800 ANA CRISTINA BRAGA SOARES OFICIAL DO MP BELO HORIZONTE - COMARCA; DIRETORIA DE CONTABILIDADE 13.341,69 5.336,68 0,00 0,00 0,00 0,00 0,00 2.078,00 20.756,37 2.769,49 3.401,31 0,00 0,00 6.170,80 14.585,57 31/03/2023
190 186400 ANA CRISTINA DE AZEVEDO LOPES OFICIAL DO MP UBÁ - COMARCA; UBA-PJ-01PJ 18.312,36 7.324,94 0,00 0,00 0,00 0,00 470,02 7.205,46 33.312,78 3.882,92 5.113,09 0,00 0,00 8.996,01 24.316,77 31/03/2023
191 693000 ANA CRISTINA DE MELO SILVEIRA ASSESSOR PROCURADOR JUSTICA BELO HORIZONTE - COMARCA; COORD DE CONTROLE CONSTITUCIONALIDADE 0,00 0,00 7.857,77 0,00 0,00 0,00 0,00 3.028,00 10.885,77 877,22 1.462,79 0,00 0,00 2.340,01 8.545,76 31/03/2023
192 465100 ANA CRISTINA DE OLIVEIRA GUIMARAES ANALISTA DO MP ITAJUBA - COMARCA; ITAJUBA-PJ-05PJ 11.008,33 2.201,67 0,00 0,00 0,00 0,00 145,31 4.613,20 17.968,51 1.894,55 2.138,11 0,00 0,00 4.032,66 13.935,85 31/03/2023
193 500600 ANA CRISTINA LATADO SUDARIO ANALISTA DO MP UBERLÂNDIA - COMARCA; UBERLANDIA-PJ-09PJ 11.008,33 2.201,67 0,00 0,00 0,00 0,00 0,00 2.078,00 15.288,00 1.894,55 2.242,39 0,00 0,00 4.136,94 11.151,06 31/03/2023
194 331400 ANA CRISTINA RIBEIRO ALVES OFICIAL DO MP BAMBUÍ - COMARCA; BAMBUI-PJ-UNPJ 11.008,33 3.302,50 0,00 0,00 0,00 0,00 262,37 4.940,17 19.513,37 2.070,68 2.444,54 0,00 0,00 4.515,22 14.998,15 31/03/2023
195 249300 ANA ELOINA MARTINS OFICIAL DO MP BETIM - COMARCA; BETIM-PJ-02PJ 15.659,55 7.829,78 0,00 0,00 0,00 0,00 516,77 7.715,44 31.721,54 3.539,24 4.616,91 0,00 0,00 8.156,15 23.565,39 31/03/2023
196 257400 ANA FLAVIA CAMBRAIA ANALISTA DO MP BELO HORIZONTE - COMARCA; BH-19PJ SAUDE-SECRETARIA 150PJ 20.574,59 8.229,84 0,00 0,00 0,00 0,00 0,00 2.078,00 30.882,43 4.389,66 5.792,56 0,00 0,00 10.182,22 20.700,21 31/03/2023
197 248201 ANA FLAVIA DE MORAIS SOUZA ANALISTA DO MP DIVINÓPOLIS - COMARCA; DIVINOPOLIS-PJ-01PJ 13.341,69 5.336,68 0,00 0,00 0,00 0,00 547,90 8.498,41 27.724,68 2.769,49 3.401,31 0,00 0,00 6.170,80 21.553,88 31/03/2023
198 621100 ANA FLAVIA DINIZ TEODORO OFICIAL DO MP SANTA LUZIA - COMARCA; SANTA LUZIA-PJ-06PJ 6.694,66 669,47 0,00 0,00 0,00 0,00 0,00 2.078,00 9.442,13 959,93 891,80 0,00 0,00 1.851,73 7.590,40 31/03/2023
199 238600 ANA FLAVIA FRANCO OFICIAL DO MP BELO HORIZONTE - COMARCA; DIRETORIA DE PESSOAL ADMINISTRATIVO - DPAD 16.169,47 6.467,79 0,00 0,00 0,00 0,00 498,02 7.510,94 30.646,22 3.402,91 4.420,09 0,00 0,00 7.823,00 22.823,22 31/03/2023
200 690000 ANA FLAVIA LURIAN DE PAIVA ASSESSOR PROCURADOR JUSTICA BELO HORIZONTE - COMARCA; GABINETE DE PROCURADOR DE JUSTIÇA - SALA 609 0,00 0,00 7.857,77 0,00 0,00 0,00 0,00 2.078,00 9.935,77 877,22 1.462,79 0,00 0,00 2.340,01 7.595,76 31/03/2023
201 402900 ANA FLAVIA PORTES DE CARVALHO ANALISTA DO MP BELO HORIZONTE - COMARCA; DIRET DE PLANOS PROJETOS E PROGRAMAS INST 16.695,70 3.339,14 0,00 0,00 0,00 0,00 514,23 7.687,76 28.236,83 2.986,52 3.766,79 0,00 0,00 6.753,31 21.483,52 31/03/2023
202 382700 ANA KARENINA SALDANHA GONTIJO ANALISTA DO MP BELO HORIZONTE - COMARCA; ASSESS TECNICO-JUR JUNTO AS PROC. DE JUST 16.944,07 5.083,22 0,00 0,00 0,00 0,00 1.694,41 2.078,00 25.799,70 3.576,42 4.670,59 0,00 0,00 8.247,01 17.552,69 31/03/2023
203 620500 ANA KARINE DE ANDRADE OLIVEIRA ANALISTA DO MP RIBEIRÃO DAS NEVES - COMARCA; RIBEIRAO NEVES-SEC PJ EXECUCAO PENAL 9.378,86 937,89 0,00 0,00 0,00 0,00 0,00 2.078,00 12.394,75 1.431,63 1.574,05 0,00 0,00 3.005,68 9.389,07 31/03/2023
204 462200 ANA LUCIA ANDRADE TOMICH OTTONI ANALISTA DO MP TEÓFILO OTONI - COMARCA; TEOFILO OTONI-PJ-07PJ 11.008,33 2.201,67 0,00 0,00 0,00 0,00 0,00 3.028,00 16.238,00 1.894,55 2.138,11 0,00 0,00 4.032,66 12.205,34 31/03/2023
205 504100 ANA LUCIA CATAO DE CARVALHO OFICIAL DO MP BELO HORIZONTE - COMARCA; DIR RELACOES INSTITUCIONAIS 9.378,86 1.875,77 0,00 0,00 0,00 0,00 82,53 2.978,37 14.315,53 1.581,69 1.738,56 0,00 0,00 3.320,25 10.995,28 31/03/2023
206 274700 ANA LUCIA DE ALENCAR BRAGATO OFICIAL DO MP UBERABA - COMARCA; UBERABA-PJ-07PJ 11.008,33 3.302,50 0,00 0,00 0,00 0,00 262,37 4.940,17 19.513,37 2.070,68 2.496,68 0,00 0,00 4.567,36 14.946,01 31/03/2023
207 509400 ANA LUCIA DORNELAS MALLOSTO ANALISTA DO MP JUIZ DE FORA - COMARCA; JUIZ DE FORA-PJ-25PJ 11.008,33 2.201,67 0,00 0,00 0,00 0,00 0,00 2.078,00 15.288,00 1.894,55 2.190,25 0,00 0,00 4.084,80 11.203,20 31/03/2023
208 302600 ANA LUCIA LOPES SANTOS OFICIAL DO MP BELO HORIZONTE - COMARCA; DIVISÃO DE FISCALIZAÇÃO DAS RELAÇÕES DE CONSU 11.008,33 3.302,50 0,00 0,00 0,00 0,00 1.580,00 2.078,00 17.968,83 2.070,68 2.879,04 0,00 0,00 4.949,72 13.019,11 31/03/2023
209 716700 ANA LUISA DE LANA COELHO ASSESSOR PROCURADOR JUSTICA BELO HORIZONTE - COMARCA; GABINETE DE PROCURADOR DE JUSTIÇA - SALA 715 0,00 0,00 7.857,77 0,00 0,00 0,00 0,00 2.078,00 9.935,77 877,22 1.462,79 0,00 0,00 2.340,01 7.595,76 31/03/2023
210 702000 ANA LUISA DE OLIVEIRA RIBEIRO ASSESSOR PROCURADOR JUSTICA BELO HORIZONTE - COMARCA; ASSESS TECNICO-JUR JUNTO AS PROC. DE JUST 0,00 0,00 7.857,77 0,00 0,00 0,00 0,00 2.078,00 9.935,77 877,22 1.462,79 0,00 0,00 2.340,01 7.595,76 31/03/2023
211 493400 ANA LUISA NOGUEIRA MOREIRA ANALISTA DO MP BELO HORIZONTE - COMARCA; BH-19PJ SAUDE-SECRETARIA 130PJ 11.008,33 2.201,67 0,00 0,00 0,00 0,00 0,00 2.078,00 15.288,00 1.894,55 2.242,39 0,00 0,00 4.136,94 11.151,06 31/03/2023
212 389300 ANA LUISA REUTER LIMA ANALISTA DO MP BELO HORIZONTE - COMARCA; DIRETORIA DE SISTEMAS DE INFORMACAO 16.695,70 5.008,71 4.939,72 0,00 0,00 0,00 1.669,57 2.078,00 30.391,70 3.520,79 5.948,69 0,00 0,00 9.469,48 20.922,22 31/03/2023
213 480600 ANA LUIZA FERNANDES FRAGA E GRECO COORDENADOR I BELO HORIZONTE - COMARCA; OUVIDORIA DO MPMG 14.687,60 2.937,52 0,00 0,00 0,00 0,00 517,00 7.718,04 25.860,16 1.441,84 3.581,04 0,00 0,00 5.022,88 20.837,28 31/03/2023
214 726800 ANA LUIZA GOMES PEREIRA ASSESSOR ADMINISTRATIVO I BELO HORIZONTE - COMARCA; OUVIDORIA DO MPMG 0,00 0,00 4.345,58 0,00 0,00 0,00 0,00 2.078,00 6.423,58 644,55 560,92 0,00 0,00 1.205,47 5.218,11 31/03/2023
215 733600 ANA LUIZA MACHADO RODRIGUES ASSESSOR PROMOTOR JUSTICA CARMO DA MATA - COMARCA 0,00 0,00 6.286,22 0,00 0,00 0,00 0,00 1.805,27 8.091,49 877,22 955,61 0,00 0,00 1.832,83 6.258,66 31/03/2023
216 517800 ANA LUIZA MAGALHAES CIRINO PIOTO DE MELO OFICIAL DO MP BELO HORIZONTE - COMARCA; DIVISAO DE MATERIAIS 6.081,20 608,12 0,00 0,00 0,00 0,00 0,00 3.978,00 10.667,32 855,73 734,88 0,00 0,00 1.590,61 9.076,71 31/03/2023
217 481400 ANA MARCIA CANDIDA FERREIRA OFICIAL DO MP BRUMADINHO - COMARCA; BRUMADINHO-PJ-02PJ 6.694,66 1.338,93 0,00 0,00 0,00 0,00 0,00 2.078,00 10.111,59 1.066,32 1.046,64 0,00 0,00 2.112,96 7.998,63 31/03/2023
218 643100 ANA MARIA LOPES MIRANDA ANALISTA DO MP BELO HORIZONTE - COMARCA; CAO-FUNDACOES 9.223,00 922,30 0,00 0,00 0,00 0,00 0,00 3.028,00 13.173,30 982,16 1.541,69 0,00 0,00 2.523,85 10.649,45 31/03/2023
219 556400 ANA MARIA OLIVEIRA SOUZA OFICIAL DO MP ITAPECERICA - COMARCA; ITAPECERICA-PJ-UNPJ 7.137,75 713,78 0,00 0,00 0,00 0,00 0,00 2.078,00 9.929,53 1.037,19 1.004,58 0,00 0,00 2.041,77 7.887,76 31/03/2023
220 409600 ANA OLIVIA FARIA ROSENBURG ANALISTA DO MP BELO HORIZONTE - COMARCA; DIRETORIA DO COLEGIO E DA CAMARA DE PJ 16.169,47 6.467,79 0,00 0,00 0,00 0,00 1.814,12 3.888,98 28.340,36 3.402,91 4.873,32 0,00 0,00 8.276,23 20.064,13 31/03/2023
221 461500 ANA PAULA ALVES CARVALHO ANALISTA DO MP UBERLÂNDIA - COMARCA; UBERLANDIA-PJ-25PJ 11.736,91 2.347,38 0,00 0,00 0,00 0,00 258,21 5.844,86 20.187,36 2.034,43 2.340,08 0,00 0,00 4.374,51 15.812,85 31/03/2023
222 523200 ANA PAULA ALVES DA SILVA OFICIAL DO MP GOVERNADOR VALADARES - COMARCA; GOVERNADOR VALADARES-PJ-10PJ 8.650,50 1.730,10 0,00 0,00 0,00 0,00 0,00 5.878,00 16.258,60 982,16 1.551,68 0,00 0,00 2.533,84 13.724,76 31/03/2023
223 381200 ANA PAULA BARROS PEREIRA RIGHI ANALISTA DO MP BELO HORIZONTE - COMARCA; PROC JUST ATUACAO TRIBUNAIS SUPERIORES-GAB003 16.695,70 5.008,71 0,00 0,00 0,00 0,00 1.669,57 3.028,00 26.401,98 982,16 4.909,01 0,00 0,00 5.891,17 20.510,81 31/03/2023
224 696400 ANA PAULA CARVALHO SILVA ASSESSOR PROMOTOR JUSTICA PERDÕES - COMARCA; PERDOES-PJ-UNPJ 0,00 0,00 7.857,77 0,00 0,00 0,00 0,00 3.028,00 10.885,77 877,22 1.410,65 0,00 0,00 2.287,87 8.597,90 31/03/2023
225 700900 ANA PAULA CRAVO SALOME ASSESSOR ADMINISTRATIVO I BELO HORIZONTE - COMARCA; PROCURADOR-GERAL DE JUSTIÇA 0,00 0,00 4.345,58 0,00 0,00 0,00 0,00 2.078,00 6.423,58 644,55 560,92 0,00 0,00 1.205,47 5.218,11 31/03/2023
226 227200 ANA PAULA DA SILVA CAMPOLINA ANALISTA DO MP BELO HORIZONTE - COMARCA; DIRETORIA DE ORCAMENTO-DIOR/SPC 20.574,59 10.287,30 0,00 0,00 0,00 0,00 452,64 7.015,90 38.330,43 4.718,85 6.319,98 0,00 0,00 11.038,83 27.291,60 31/03/2023
227 278500 ANA PAULA DIAS CAPANEMA OFICIAL DO MP BELO HORIZONTE - COMARCA; DIRETORIA DE SEGURANCA 11.736,91 3.521,07 0,00 0,00 0,00 0,00 391,62 6.350,23 21.999,83 2.222,23 2.715,47 0,00 0,00 4.937,70 17.062,13 31/03/2023
228 327300 ANA PAULA GARCIA MAXIMO OFICIAL DO MP UNAÍ - COMARCA; UNAI-PJ-01PJ 13.776,02 6.888,01 0,00 0,00 0,00 0,00 530,38 7.863,93 29.058,34 3.087,19 3.807,86 0,00 0,00 6.895,05 22.163,29 31/03/2023
229 270000 ANA PAULA GOULART CRUZ DE MAGALHAES ANALISTA DO MP BELO HORIZONTE - COMARCA; ASSESSORIA ESPECIAL DO PGJ 20.574,59 6.172,38 0,00 0,00 0,00 0,00 490,36 7.427,39 34.664,72 4.060,46 5.369,43 0,00 0,00 9.429,89 25.234,83 31/03/2023
230 262100 ANA PAULA KOMATSUZAKI ABIJAUDI ANALISTA DO MP BELO HORIZONTE - COMARCA; BH-17PJ PATRIMONIO PUBLICO-SECRETARIA 20.574,59 10.287,30 0,00 0,00 0,00 0,00 452,64 7.015,90 38.330,43 4.718,85 6.215,70 0,00 0,00 10.934,55 27.395,88 31/03/2023
231 278900 ANA PAULA MOREIRA GURGEL ANALISTA DO MP BELO HORIZONTE - COMARCA; ASSESSORIA JURIDICO-ADMINISTRATIVA 20.574,59 8.229,84 7.494,88 0,00 0,00 0,00 520,11 7.751,96 44.571,38 4.389,66 7.675,59 837,09 0,00 12.902,34 31.669,04 31/03/2023
232 425701 ANA PAULA ROCHA ANALISTA DO MP BELO HORIZONTE - COMARCA; ASSESSORIA DE COMUNICACAO INTEGRADA 11.008,33 1.100,83 0,00 0,00 0,00 0,00 0,00 3.028,00 15.137,16 1.718,41 1.988,10 0,00 0,00 3.706,51 11.430,65 31/03/2023
233 395601 ANA PAULA SALGE OLIVEIRA ANALISTA DO MP UBERABA - COMARCA; UBERABA-PJ-15PJ 11.008,33 3.302,50 0,00 0,00 0,00 0,00 262,37 4.940,17 19.513,37 2.070,68 2.496,68 0,00 0,00 4.567,36 14.946,01 31/03/2023
234 473200 ANA PAULA SCOTTON BRASIL ANALISTA DO MP JUIZ DE FORA - COMARCA; JUIZ DE FORA-PJ-09PJ 11.008,33 2.201,67 0,00 0,00 0,00 0,00 532,80 7.890,40 21.633,20 1.894,55 2.242,39 0,00 0,00 4.136,94 17.496,26 31/03/2023
235 633600 ANA PAULA SILVA FERNANDES OFICIAL DO MP CATAGUASES - COMARCA; CATAGUASES-PJ-04PJ 6.483,63 648,36 0,00 0,00 0,00 0,00 0,00 2.101,86 9.233,85 923,95 837,85 0,00 0,00 1.761,80 7.472,05 31/03/2023
236 470900 ANA PAULA VALADARES ANALISTA DO MP PITANGUI - COMARCA; PITANGUI-PJ-01PJ 11.008,33 2.201,67 0,00 0,00 0,00 0,00 0,00 2.078,00 15.288,00 1.894,55 2.138,11 0,00 0,00 4.032,66 11.255,34 31/03/2023
237 447000 ANA PAULA VALENTIM DE ARAUJO ANALISTA DO MP BELO HORIZONTE - COMARCA; PROC JUST ESP ACOES COMP ORIG CRIMINAL-ASSESS 12.118,97 2.423,79 0,00 0,00 0,00 0,00 0,00 2.078,00 16.620,76 2.107,79 2.550,26 0,00 0,00 4.658,05 11.962,71 31/03/2023
238 604200 ANA PAULA VIANA E SILVA OFICIAL DO MP BELO HORIZONTE - COMARCA; BH-17PJ PATRIMONIO PUBLICO-SECRETARIA 6.694,66 669,47 0,00 0,00 0,00 0,00 0,00 2.078,00 9.442,13 959,93 891,80 0,00 0,00 1.851,73 7.590,40 31/03/2023
239 505400 ANA PAULA VIEIRA SOUTO OFICIAL DO MP ALMENARA - COMARCA; ALMENARA-PJ-01PJ 6.694,66 2.677,86 0,00 0,00 0,00 0,00 0,00 2.078,00 11.450,52 1.280,55 1.303,79 0,00 0,00 2.584,34 8.866,18 31/03/2023
240 280200 ANA RACHEL BRANDAO LADEIRA ROLAND ANALISTA DO MP BELO HORIZONTE - COMARCA; SUPERINTENDENCIA GESTÃO DE PESSOAS 20.574,59 6.172,38 7.494,88 0,00 0,00 0,00 251,11 4.817,35 39.310,31 4.060,46 7.430,52 0,00 0,00 11.490,98 27.819,33 31/03/2023
241 691000 ANA RACHEL DOS REIS E SENA COSTA ASSESSOR PROMOTOR JUSTICA BELO HORIZONTE - COMARCA; GABINETE DE PROCURADOR DE JUSTIÇA - SALA 601 0,00 0,00 7.857,77 0,00 0,00 0,00 0,00 2.078,00 9.935,77 877,22 1.462,79 0,00 0,00 2.340,01 7.595,76 31/03/2023
242 601200 ANA REGINA RIBEIRO ANALISTA DO MP BELO HORIZONTE - COMARCA; DIV FISCAL ADM CONT TERCEIRIZACAO 11.008,33 1.100,83 4.406,28 0,00 0,00 0,00 423,90 6.702,32 23.641,66 982,16 3.216,50 0,00 0,00 4.198,66 19.443,00 31/03/2023
243 384700 ANA RODRIGUES PEREIRA MARRA ANALISTA DO MP COROMANDEL - COMARCA; COROMANDEL-PJ-01PJ 11.008,33 3.302,50 0,00 0,00 0,00 0,00 1.347,05 4.764,04 20.421,92 2.246,81 2.646,70 0,00 0,00 4.893,51 15.528,41 31/03/2023
244 232700 ANA SILVIA SEMBLANO NAKAMURA OFICIAL DO MP BELO HORIZONTE - COMARCA; CENT DE APOIO TEC-SETOR DEF,IDOSO E INFANC 11.008,33 4.403,33 3.585,64 0,00 0,00 0,00 0,00 2.078,00 21.075,30 2.246,81 3.737,02 0,00 0,00 5.983,83 15.091,47 31/03/2023
245 602100 ANACLETO FRANCISCO MARCIER PIMENTA OFICIAL DO MP SÃO JOÃO DEL REI - COMARCA; SAO JOAO DEL REI-PJ-03PJ 6.694,66 669,47 0,00 0,00 0,00 0,00 0,00 3.028,00 10.392,13 959,93 631,11 0,00 0,00 1.591,04 8.801,09 31/03/2023
246 310400 ANADEJE DO CARMO DINIZ ARAUJO OFICIAL DO MP BELO HORIZONTE - COMARCA; DIRETORIA DE PESSOAL ADMINISTRATIVO - DPAD 11.008,33 3.302,50 0,00 0,00 0,00 0,00 262,37 4.940,17 19.513,37 2.070,68 2.496,68 0,00 0,00 4.567,36 14.946,01 31/03/2023
247 337000 ANAILDES MARIA MENDES OFICIAL DO MP JANAÚBA - COMARCA; JANAUBA-PJ-02PJ 11.008,33 3.302,50 0,00 0,00 0,00 0,00 0,00 3.028,00 17.338,83 2.070,68 2.496,68 0,00 0,00 4.567,36 12.771,47 31/03/2023
248 377400 ANDEIRSON DA MATTA BARBOSA ANALISTA DO MP POUSO ALEGRE - COMARCA; POUSO ALEGRE-PJ-01PJ 11.008,33 3.302,50 0,00 0,00 0,00 0,00 1.347,05 5.714,04 21.371,92 2.246,81 2.750,97 0,00 0,00 4.997,78 16.374,14 31/03/2023
249 317400 ANDERSON DA SILVA BICALHO OFICIAL DO MP CONTAGEM - COMARCA; CONTAGEM-PJ-SECRETARIA 10.661,25 3.198,38 0,00 0,00 0,00 0,00 0,00 2.078,00 15.937,63 1.998,49 2.236,04 0,00 0,00 4.234,53 11.703,10 31/03/2023
250 506900 ANDERSON DE SOUZA DAMIANI ANALISTA DO MP BELO HORIZONTE - COMARCA; DIRETORIA DE PAGAMENTO DE PESSOAL-DPAG 11.008,33 4.403,33 4.939,72 0,00 0,00 0,00 522,35 7.776,39 28.650,12 2.246,81 4.057,26 0,00 0,00 6.304,07 22.346,05 31/03/2023
251 410000 ANDERSON DE SOUZA NETO ASSESSOR ADMINISTRATIVO II BELO HORIZONTE - COMARCA; DIRETORIA DE ADMINISTRACAO FINANCEIRA 0,00 0,00 6.694,66 0,00 0,00 0,00 0,00 2.078,00 8.772,66 877,22 1.142,94 0,00 0,00 2.020,16 6.752,50 31/03/2023
252 181900 ANDERSON FLAVIO DE OLIVEIRA OFICIAL DO MP ITAGUARA - COMARCA; ITAGUARA-PJ-SECRETARIA 16.169,47 6.467,79 0,00 0,00 0,00 0,00 0,00 2.078,00 24.715,26 3.402,91 4.420,09 0,00 0,00 7.823,00 16.892,26 31/03/2023
253 333200 ANDERSON JOSE DE FREITAS OFICIAL DO MP IPATINGA - COMARCA; IPATINGA-PJ-04PJ 11.008,33 3.302,50 0,00 0,00 0,00 0,00 1.987,86 7.477,43 23.776,12 2.070,68 2.774,77 0,00 0,00 4.845,45 18.930,67 31/03/2023
254 699400 ANDERSON LUIZ CABRAL ASSESSOR PROMOTOR JUSTICA ALÉM PARAÍBA - COMARCA; ALEM PARAIBA-PJ-03PJ 0,00 0,00 7.857,77 0,00 0,00 0,00 432,18 6.792,66 15.082,61 877,22 1.462,79 0,00 0,00 2.340,01 12.742,60 31/03/2023
255 462100 ANDERSON LUIZ GUIMARAES CARDOSO ANALISTA DO MP BARBACENA - COMARCA; BARBACENA-PJ-02PJ 13.341,69 2.668,34 0,00 0,00 0,00 0,00 410,92 6.560,81 22.981,76 2.342,55 2.889,20 0,00 0,00 5.231,75 17.750,01 31/03/2023
256 429700 ANDERSON MELO DE SOUZA COORDENADOR II BELO HORIZONTE - COMARCA; DIRET DE ESTAGIOS E CONVENIOS ACADEMICOS 18.312,36 3.662,47 0,00 0,00 0,00 0,00 1.343,92 9.681,05 32.999,80 1.066,32 5.058,40 0,00 0,00 6.124,72 26.875,08 31/03/2023
257 545600 ANDERSON MENDES PROCOPIO FERREIRA ANALISTA DO MP BELO HORIZONTE - COMARCA; BH-12PJ JUIZO CRIMINAL-GAB 089PJ 11.008,33 1.100,83 0,00 0,00 0,00 0,00 44,40 2.562,37 14.715,93 1.718,41 1.988,10 0,00 0,00 3.706,51 11.009,42 31/03/2023
258 519900 ANDERSON MOREIRA DOEHLER ANALISTA DO MP TEÓFILO OTONI - COMARCA; COORD REG SAUDE MACRORREGIAO SANIT NORDESTE 11.008,33 4.403,33 0,00 0,00 0,00 0,00 0,00 2.078,00 17.489,66 2.246,81 2.750,97 0,00 0,00 4.997,78 12.491,88 31/03/2023
259 103000 ANDERSON TADEU DE DEUS ASSESSOR ADMINISTRATIVO II BELO HORIZONTE - COMARCA; BH-26 CRIME CONT CRIAN ADOL-SECRETARIA 0,00 5.355,73 6.694,66 0,00 4.016,80 0,00 530,22 11.878,99 28.476,40 877,22 3.720,38 0,00 0,00 4.597,60 23.878,80 31/03/2023
260 309200 ANDITYAS SOARES DE MOURA COSTA MATOS ANALISTA DO MP BELO HORIZONTE - COMARCA; GABINETE DE PROCURADOR DE JUSTIÇA - SALA 909 18.312,36 5.493,71 0,00 0,00 0,00 0,00 0,00 2.078,00 25.884,07 3.589,92 4.690,08 0,00 0,00 8.280,00 17.604,07 31/03/2023
261 519200 ANDRE BORJA LANA ANALISTA DO MP BELO HORIZONTE - COMARCA; DIR CONTEUDO JORNALISTICO 11.008,33 2.201,67 0,00 0,00 0,00 0,00 0,00 2.078,00 15.288,00 1.894,55 2.242,39 0,00 0,00 4.136,94 11.151,06 31/03/2023
262 637200 ANDRE FERNANDES DA CUNHA OFICIAL DO MP MORADA NOVA DE MINAS - COMARCA; MORADA NOVA DE MINAS-PJ-UNPJ 6.483,63 648,36 0,00 0,00 0,00 0,00 104,60 3.219,12 10.455,71 923,95 837,85 0,00 0,00 1.761,80 8.693,91 31/03/2023
263 651500 ANDRE GONCALVES MARANHAO OFICIAL DO MP ANDRADAS - COMARCA; ANDRADAS-PJ-02PJ 5.438,14 543,81 0,00 0,00 0,00 0,00 0,00 2.078,00 8.059,95 749,62 569,53 0,00 0,00 1.319,15 6.740,80 31/03/2023
264 521900 ANDRE LUIS GOMES SILVA ANALISTA DO MP FORMIGA - COMARCA; FORMIGA-PJ-02PJ 11.008,33 2.201,67 0,00 0,00 0,00 0,00 145,31 5.563,20 18.918,51 1.894,55 1.743,37 0,00 0,00 3.637,92 15.280,59 31/03/2023
265 304300 ANDRE LUIZ AVELAR ANALISTA DO MP BELO HORIZONTE - COMARCA; DIRETORIA DE REDES E BANCOS DE DADOS 9.223,00 2.766,90 0,00 0,00 0,00 0,00 0,00 2.078,00 14.067,90 1.699,33 1.908,41 0,00 0,00 3.607,74 10.460,16 31/03/2023
266 397400 ANDRE PATARO MYRRHA DE PAULA E SILVA ANALISTA DO MP BELO HORIZONTE - COMARCA; ASSESSORIA JURIDICO-ADMINISTRATIVA 16.695,70 3.339,14 0,00 0,00 0,00 0,00 73,46 3.829,39 23.937,69 2.986,52 3.818,93 0,00 0,00 6.805,45 17.132,24 31/03/2023
267 650100 ANDRE THOME VARGAS OFICIAL DO MP LEOPOLDINA - COMARCA; LEOPOLDINA-PJ-04PJ 5.889,39 588,94 0,00 0,00 0,00 0,00 0,00 2.078,00 8.556,33 822,63 685,96 0,00 0,00 1.508,59 7.047,74 31/03/2023
268 548500 ANDRE VINICIUS CARVALHO MEIRA ANALISTA DO MP JUIZ DE FORA - COMARCA; JUIZ DE FORA-PJ-24PJ 11.008,33 1.100,83 0,00 0,00 0,00 0,00 0,00 2.078,00 14.187,16 982,16 2.095,65 0,00 0,00 3.077,81 11.109,35 31/03/2023
269 297200 ANDRE WILLE ROSARIO ANALISTA DO MP BELO HORIZONTE - COMARCA; ASSESSORIA ESPECIAL DO PGJ 20.574,59 6.172,38 0,00 0,00 0,00 0,00 490,36 7.427,39 34.664,72 4.060,46 5.265,16 0,00 0,00 9.325,62 25.339,10 31/03/2023
270 423600 ANDREA COSTA GUALBERTO ALVES ANALISTA DO MP GOVERNADOR VALADARES - COMARCA; COORD REG PJ DEF EDU DIR CRIANCA ADOL RIODOCE 15.659,55 12.527,65 0,00 0,00 0,00 4.290,90 0,00 2.078,00 34.556,10 4.290,90 6.829,98 0,00 0,00 11.120,88 23.435,22 31/03/2023
271 467300 ANDREA DE CASSIA PENNA ALVERNAZ ANALISTA DO MP PONTE NOVA - COMARCA; PONTE NOVA-PJ-01PJ 11.008,33 2.201,67 0,00 0,00 0,00 0,00 0,00 2.078,00 15.288,00 1.894,55 2.190,25 0,00 0,00 4.084,80 11.203,20 31/03/2023
272 308000 ANDREA DE CASSIA SANTOS OLIVEIRA ANALISTA DO MP BELO HORIZONTE - COMARCA; COORD DE GABINETE DO PGJ 19.791,01 5.937,30 0,00 0,00 0,00 0,00 2.014,36 2.078,00 29.820,67 3.897,48 5.635,93 0,00 0,00 9.533,41 20.287,26 31/03/2023
273 349500 ANDREA DE OLIVEIRA LOIOLA REGIS OFICIAL DO MP IGUATAMA - COMARCA; IGUATAMA-PJ-UNPJ 11.008,33 3.302,50 0,00 0,00 0,00 0,00 0,00 2.078,00 16.388,83 2.070,68 2.392,41 0,00 0,00 4.463,09 11.925,74 31/03/2023
274 287900 ANDREA FERNANDES PENA MARTINS OFICIAL DO MP MONTES CLAROS - COMARCA; MONTES CLAROS-PJ-09PJ 11.008,33 3.302,50 0,00 0,00 0,00 0,00 262,37 4.940,17 19.513,37 2.070,68 2.392,41 0,00 0,00 4.463,09 15.050,28 31/03/2023
275 300800 ANDREA FERREIRA ANALISTA DO MP LAVRAS - COMARCA; LAVRAS-PJ-04PJ 19.037,29 5.711,19 0,00 0,00 0,00 0,00 544,47 8.017,64 33.310,59 3.740,71 4.907,78 0,00 0,00 8.648,49 24.662,10 31/03/2023
276 395100 ANDREA LANNA MENDES NOVAIS ANALISTA DO MP BELO HORIZONTE - COMARCA; PROMOT ESTADUAL DE DEF PATRI CULT E TUR DE MG 16.695,70 3.339,14 0,00 0,00 0,00 0,00 0,00 2.078,00 22.112,84 2.986,52 3.766,79 0,00 0,00 6.753,31 15.359,53 31/03/2023
277 67300 ANDREA LEAO MAGALHAES ROQUE ASSESSOR ADMINISTRATIVO IV BELO HORIZONTE - COMARCA; GRUPO ATUACAO ESP COMB CRIMES CIBER 0,00 10.336,77 12.920,95 0,00 0,00 0,00 0,00 2.078,00 25.335,72 877,22 5.645,64 0,00 0,00 6.522,86 18.812,86 31/03/2023
278 335700 ANDREA LOPES PEREIRA ANALISTA DO MP GOVERNADOR VALADARES - COMARCA; COORD REG DO MA DA BACIA DO RIO DOCE 19.791,01 5.937,30 0,00 0,00 0,00 0,00 0,00 2.078,00 27.806,31 3.897,48 5.134,12 0,00 0,00 9.031,60 18.774,71 31/03/2023
279 419000 ANDREIA BARBOSA DE ALMEIDA ANALISTA DO MP BELO HORIZONTE - COMARCA; SUPER DE RECURSOS HUMANOS-COOP REMOTA 15.659,55 3.131,91 0,00 0,00 0,00 0,00 482,31 7.339,61 26.613,38 2.787,58 3.531,71 0,00 0,00 6.319,29 20.294,09 31/03/2023
280 281501 ANDREIA CARLA COSTA ANALISTA DO MP UBÁ - COMARCA; UBA-PJ-02PJ 16.169,47 3.233,89 0,00 0,00 0,00 0,00 498,02 7.510,94 27.412,32 2.885,49 3.673,05 0,00 0,00 6.558,54 20.853,78 31/03/2023
281 477100 ANDREIA DE ALMEIDA RIBEIRO MELO OFICIAL DO MP CONTAGEM - COMARCA; CONTAGEM-PJ-SECRETARIA 9.378,86 2.813,66 0,00 0,00 0,00 0,00 0,00 2.078,00 14.270,52 1.731,75 2.007,35 0,00 0,00 3.739,10 10.531,42 31/03/2023
282 619000 ANDREIA FERREIRA NORONHA COORDENADOR II BELO HORIZONTE - COMARCA; DIRETORIA DE SERVICO CRIMINAL 18.312,36 1.831,24 0,00 0,00 0,00 0,00 517,02 7.718,21 28.378,83 959,93 4.406,15 0,00 0,00 5.366,08 23.012,75 31/03/2023
283 424000 ANDREIA LUCIA COUTO ANALISTA DO MP BELO HORIZONTE - COMARCA; BH-18PJ DIREITOS HUMANOS-SECRETARIA 16.169,47 3.233,89 0,00 0,00 0,00 0,00 0,00 2.078,00 21.481,36 2.885,49 3.673,05 0,00 0,00 6.558,54 14.922,82 31/03/2023
284 370100 ANDREIA MARIA SILVA PINTO OFICIAL DO MP CORONEL FABRICIANO - COMARCA; CORONEL FABRICIANO-PJ-01PJ 11.008,33 3.302,50 0,00 0,00 0,00 0,00 0,00 3.028,00 17.338,83 982,16 2.655,71 0,00 0,00 3.637,87 13.700,96 31/03/2023
285 382100 ANDREIA NATALI PEREIRA DE OLIVEIRA OFICIAL DO MP PRADOS - COMARCA; PRADOS-PJ-UNPJ 11.008,33 3.302,50 0,00 0,00 0,00 0,00 1.100,83 2.078,00 17.489,66 2.246,81 2.750,97 0,00 0,00 4.997,78 12.491,88 31/03/2023
286 275200 ANDREIA RIBEIRO FREITAS OFICIAL DO MP VIÇOSA - COMARCA; VICOSA-PJ-04PJ 11.736,91 4.694,76 0,00 0,00 0,00 0,00 0,00 2.078,00 18.509,67 2.410,02 2.934,46 0,00 0,00 5.344,48 13.165,19 31/03/2023
287 352200 ANDREIA XAVIER PEREIRA OFICIAL DO MP CLÁUDIO - COMARCA; CLAUDIO-PJ-UNPJ 11.008,33 3.302,50 0,00 0,00 0,00 0,00 0,00 3.503,00 17.813,83 2.070,68 2.496,68 0,00 0,00 4.567,36 13.246,47 31/03/2023
288 638500 ANDRESA ALVES FEITOSA CASAGRANDE ANALISTA DO MP LAVRAS - COMARCA; COORD REG DO MA DA BACIA DO RIO GRANDE 9.999,62 999,96 0,00 0,00 0,00 0,00 0,00 2.078,00 13.077,58 982,16 1.885,43 0,00 0,00 2.867,59 10.209,99 31/03/2023
289 383700 ANDRESSA EDUARDO SOUZA ANALISTA DO MP OURO BRANCO - COMARCA; OURO BRANCO-PJ-SECRETARIA 16.695,70 5.008,71 0,00 0,00 0,00 0,00 1.669,57 3.028,00 26.401,98 3.520,79 4.590,27 0,00 0,00 8.111,06 18.290,92 31/03/2023
290 678400 ANDRESSA LUIZA SILVA LOPES ASSESSOR PROMOTOR JUSTICA CARMO DO PARANAÍBA - COMARCA; CARMO DO PARANAIBA-PJ-02PJ 0,00 0,00 7.857,77 0,00 0,00 0,00 0,00 2.078,00 9.935,77 877,22 1.462,79 0,00 0,00 2.340,01 7.595,76 31/03/2023
291 426200 ANDRESSA MENDES CASAL OFICIAL DO MP BELO HORIZONTE - COMARCA; DIR ESTRUTURA E PROCESSOS ORGANIZACIONAIS 8.650,50 1.730,10 0,00 0,00 0,00 0,00 0,00 3.028,00 13.408,60 1.441,84 1.536,66 0,00 0,00 2.978,50 10.430,10 31/03/2023
292 390100 ANDRESSA RIBEIRO PUCCI OFICIAL DO MP UBERABA - COMARCA; UBERABA-PJ-14PJ 8.377,76 1.675,55 0,00 0,00 0,00 0,00 36,86 2.480,13 12.570,30 1.389,48 1.513,19 0,00 0,00 2.902,67 9.667,63 31/03/2023
293 462500 ANDREZA APARECIDA COSTA E SILVA ANALISTA DO MP CONSELHEIRO LAFAIETE - COMARCA; CONSELHEIRO LAFAIETE-PJ-02PJ 11.008,33 2.201,67 0,00 0,00 0,00 0,00 0,00 3.978,00 17.188,00 982,16 2.375,68 0,00 0,00 3.357,84 13.830,16 31/03/2023
294 677700 ANDREZA DE LOURDES FERREIRA DE PAIVA ASSESSOR PROMOTOR JUSTICA ABRE CAMPO - COMARCA; ABRE CAMPO-PJ-01PJ 0,00 0,00 7.857,77 0,00 0,00 0,00 0,00 2.078,00 9.935,77 877,22 1.462,79 0,00 0,00 2.340,01 7.595,76 31/03/2023
295 537800 ANDREZZA LUZIA DE OLIVEIRA ALVES ANALISTA DO MP PATOS DE MINAS - COMARCA; COORD REG PJ DEF EDU DIR CRI ADO AL PAR NOROE 11.008,33 2.201,67 0,00 0,00 0,00 0,00 1.246,14 3.663,20 18.119,34 2.070,68 2.444,54 0,00 0,00 4.515,22 13.604,12 31/03/2023
296 491600 ANE PATRICIA RIBEIRO DUARTE ANALISTA DO MP SETE LAGOAS - COMARCA; SETE LAGOAS-PJ-11PJ 11.008,33 2.201,67 0,00 0,00 0,00 0,00 0,00 2.078,00 15.288,00 1.894,55 2.190,25 0,00 0,00 4.084,80 11.203,20 31/03/2023
297 465800 ANELISE GAMA ASSESSOR ADMINISTRATIVO III BELO HORIZONTE - COMARCA; BH-18PJ VIOLENCIA DOMESTICA-SECRETARIA 0,00 0,00 9.684,23 0,00 0,00 0,00 0,00 2.078,00 11.762,23 877,22 1.965,07 0,00 0,00 2.842,29 8.919,94 31/03/2023
298 535200 ANELIZE FERNANDA ALVES VILARINHO OFICIAL DO MP CAPINÓPOLIS - COMARCA; CAPINOPOLIS-PJ-UNPJ 6.694,66 1.338,93 0,00 0,00 0,00 0,00 730,84 3.697,47 12.461,90 1.173,44 1.201,29 0,00 0,00 2.374,73 10.087,17 31/03/2023
299 197200 ANGELA COELHO SALDANHA OFICIAL DO MP PARÁ DE MINAS - COMARCA; PARA DE MINAS-PJ-03PJ 19.037,29 7.614,92 0,00 0,00 0,00 0,00 0,00 2.078,00 28.730,21 4.045,30 5.347,54 0,00 0,00 9.392,84 19.337,37 31/03/2023
300 307400 ANGELA CRISTINA GONCALVES MUNIZ ANALISTA DO MP UBERLÂNDIA - COMARCA; UBERLANDIA-PJ-SEC FAMILIA 20.574,59 8.229,84 0,00 0,00 0,00 0,00 0,00 2.078,00 30.882,43 4.389,66 5.740,43 0,00 0,00 10.130,09 20.752,34 31/03/2023
301 191800 ANGELA MARIA DE OLIVEIRA OFICIAL DO MP GUARANÉSIA - COMARCA; GUARANESIA-PJ-SECRETARIA 19.037,29 15.229,83 0,00 0,00 0,00 5.263,69 0,00 2.078,00 41.608,81 5.263,69 8.554,10 0,00 0,00 13.817,79 27.791,02 31/03/2023
302 497400 ANGELA MARIA HENRIQUES ANALISTA DO MP BELO HORIZONTE - COMARCA; COORD REG BACIAS RIO VELHAS E PARAOPEBA 11.008,33 2.201,67 0,00 0,00 0,00 0,00 145,31 3.663,20 17.018,51 1.894,55 2.242,39 0,00 0,00 4.136,94 12.881,57 31/03/2023
303 260700 ANGELICA CRISTINA AZEVEDO MOREIRA MOUCO OFICIAL DO MP UBÁ - COMARCA; UBA-PJ-05PJ 15.659,55 6.263,82 0,00 0,00 0,00 0,00 2.128,66 8.216,55 32.268,58 3.539,24 4.616,91 0,00 0,00 8.156,15 24.112,43 31/03/2023
304 708300 ANGELICA NUNES VIEIRA DA SILVA ASSESSOR PROMOTOR JUSTICA IBIRITÉ - COMARCA; IBIRITE-PJ-02PJ 0,00 0,00 7.857,77 0,00 0,00 0,00 0,00 2.078,00 9.935,77 877,22 1.462,79 0,00 0,00 2.340,01 7.595,76 31/03/2023
305 334600 ANGELICA PANISSA DE FREITAS GALLATI OFICIAL DO MP GUAXUPÉ - COMARCA; GUAXUPE-PJ-02PJ 11.008,33 4.403,33 0,00 0,00 0,00 0,00 339,06 6.726,80 22.477,52 2.246,81 2.698,84 0,00 0,00 4.945,65 17.531,87 31/03/2023
306 521100 ANGELICA SALES MOREIRA OFICIAL DO MP BELO HORIZONTE - COMARCA; BH-02PJ FAMILIA-SECRETARIA 8.650,50 1.730,10 0,00 0,00 0,00 0,00 0,00 2.078,00 12.458,60 1.441,84 1.588,80 0,00 0,00 3.030,64 9.427,96 31/03/2023
307 466500 ANGELLO MARQUES AGRELLI ANALISTA DO MP MAR DE ESPANHA - COMARCA; MAR DE ESPANHA-PJ-UNPJ 11.008,33 2.201,67 0,00 0,00 0,00 0,00 0,00 2.078,00 15.288,00 1.894,55 2.242,39 0,00 0,00 4.136,94 11.151,06 31/03/2023
308 363300 ANGELO VERDOLIN HENRIQUES ANALISTA DO MP SETE LAGOAS - COMARCA; SETE LAGOAS-PJ-04PJ 19.037,29 7.614,92 0,00 0,00 0,00 0,00 488,62 7.408,44 34.549,27 4.045,30 5.347,54 0,00 0,00 9.392,84 25.156,43 31/03/2023
309 250900 ANISIO APARECIDO SANTOS OFICIAL DO MP BETIM - COMARCA; BETIM - SECRETARIA DAS PJS CRIMINAIS 6.382,24 2.677,86 0,00 0,00 0,00 0,00 0,00 2.017,41 11.077,51 1.280,55 676,54 0,00 0,00 1.957,09 9.120,42 31/03/2023
310 698100 ANNA CAROLINA POLICARIO BERTOLIN ASSESSOR PROCURADOR JUSTICA BELO HORIZONTE - COMARCA; PROC. JUSTICA DIR. DIFUSOS E COLETIVOS-SEC 0,00 0,00 7.857,77 0,00 0,00 0,00 0,00 2.078,00 9.935,77 877,22 1.462,79 0,00 0,00 2.340,01 7.595,76 31/03/2023
311 253400 ANNA FLAVIA LEHMAN ANALISTA DO MP BELO HORIZONTE - COMARCA; SUPRIN DE PLANEJAMENTO E COORDENACAO 20.574,59 8.229,84 7.494,88 0,00 0,00 0,00 520,11 7.751,96 44.571,38 4.389,66 7.519,18 837,09 0,00 12.745,93 31.825,45 31/03/2023
312 688800 ANNA LUIZA MATTOS DUARTE ASSESSOR PROCURADOR JUSTICA BELO HORIZONTE - COMARCA; GABINETE DE PROCURADOR DE JUSTICA - SALA 311 0,00 0,00 7.857,77 0,00 0,00 0,00 0,00 2.078,00 9.935,77 877,22 1.462,79 0,00 0,00 2.340,01 7.595,76 31/03/2023
313 447600 ANNGELUCE ALCANTARA DE CAMPOS OFICIAL DO MP DIVINÓPOLIS - COMARCA; DIVINOPOLIS-PJ-07PJ 9.223,00 2.766,90 0,00 0,00 0,00 0,00 43,96 2.557,60 14.591,46 1.699,33 1.960,55 0,00 0,00 3.659,88 10.931,58 31/03/2023
314 119600 ANSELMO BORGES PARREIRAS OFICIAL DO MP BONFIM - COMARCA; BONFIM-PJ-UNPJ 9.684,23 8.715,81 0,00 0,00 0,00 2.724,95 0,00 2.078,00 23.202,99 2.724,95 4.138,51 0,00 0,00 6.863,46 16.339,53 31/03/2023
315 630300 ANTONIA GOMES RAMALHO OFICIAL DO MP NOVO CRUZEIRO - COMARCA; NOVO CRUZEIRO-PJ-UNPJ 6.694,66 669,47 0,00 0,00 0,00 0,00 0,00 3.978,00 11.342,13 959,93 891,80 0,00 0,00 1.851,73 9.490,40 31/03/2023
316 401600 ANTONIO CARLOS GUEDES AROUCA ANALISTA DO MP BELO HORIZONTE - COMARCA; ASSESSORIA JURIDICO-ADMINISTRATIVA 14.687,60 2.937,52 0,00 0,00 0,00 0,00 0,00 2.078,00 19.703,12 2.600,97 3.262,28 0,00 0,00 5.863,25 13.839,87 31/03/2023
317 333900 ANTONIO GONCALVES DE SOUZA FILHO OFICIAL DO MP BELO HORIZONTE - COMARCA; DIRETORIA DE CONTABILIDADE 11.008,33 3.302,50 0,00 0,00 0,00 0,00 0,00 2.078,00 16.388,83 2.070,68 2.496,68 0,00 0,00 4.567,36 11.821,47 31/03/2023
318 176100 ANTONIO MARCELO CAMPOS CAMPANELLA OFICIAL DO MP BELO HORIZONTE - COMARCA; COORD DE GABINETE DO PGJ 19.037,29 9.518,65 0,00 0,00 0,00 0,00 523,53 7.789,19 36.868,66 4.349,90 5.787,30 0,00 0,00 10.137,20 26.731,46 31/03/2023
319 321001 ANTONIO OLINTO VIEIRA MACHADO ANALISTA DO MP BELO HORIZONTE - COMARCA; CENTRAL DE APOIO TECN-SETOR DE MEIO AMBIENTE 16.695,70 3.339,14 0,00 0,00 0,00 2.986,52 506,47 7.603,13 31.130,96 2.986,52 4.535,95 0,00 0,00 7.522,47 23.608,49 31/03/2023
320 356200 ANTONIO PAULA DA SILVA OFICIAL DO MP JUIZ DE FORA - COMARCA; JUIZ DE FORA-PJ-20PJ 10.661,25 4.264,50 0,00 0,00 0,00 0,00 273,64 5.063,15 20.262,54 2.169,07 2.638,73 0,00 0,00 4.807,80 15.454,74 31/03/2023
321 119900 ANTONIO RODRIGUES DE PINHO OFICIAL DO MP GUANHÃES - COMARCA; GUANHAES-PJ-01PJ 18.312,36 14.649,89 0,00 0,00 0,00 0,00 483,45 7.351,96 40.797,66 5.054,91 6.700,88 0,00 0,00 11.755,79 29.041,87 31/03/2023
322 373300 ANTONIO SERGIO ANANIAS OFICIAL DO MP SÃO JOÃO NEPOMUCENO - COMARCA; SAO JOAO NEPOMUCENO-PJ-01PJ 9.999,62 2.999,89 0,00 0,00 0,00 0,00 999,96 2.078,00 16.077,47 982,16 2.658,26 0,00 0,00 3.640,42 12.437,05 31/03/2023
323 608100 ANTONIO SIDINEY VIEIRA LEMOS ANALISTA DO MP PIRAPORA - COMARCA; PIRAPORA-PJ-01PJ 10.325,15 5.162,58 0,00 0,00 0,00 0,00 340,73 6.745,06 22.573,52 2.258,99 2.716,41 0,00 0,00 4.975,40 17.598,12 31/03/2023
324 374700 ANTONIO SILVA NETO OFICIAL DO MP BELO HORIZONTE - COMARCA; BH-12PJ JUIZO CRIMINAL-SECRETARIA 11.008,33 3.302,50 0,00 0,00 0,00 0,00 1.100,83 3.028,00 18.439,66 2.246,81 2.750,97 0,00 0,00 4.997,78 13.441,88 31/03/2023
325 636700 ANTONIUS VITORIANO FERNANDES OFICIAL DO MP BELO HORIZONTE - COMARCA; ASSESSORIA JURIDICA DO PROCON-MG 5.889,39 588,94 0,00 0,00 0,00 0,00 0,00 2.078,00 8.556,33 822,63 685,96 0,00 0,00 1.508,59 7.047,74 31/03/2023
326 413200 ANY PEREIRA SILVA ANALISTA DO MP TRÊS PONTAS - COMARCA; TRES PONTAS-PJ-01PJ 15.659,55 3.131,91 0,00 0,00 0,00 0,00 482,31 7.339,61 26.613,38 2.787,58 3.531,71 0,00 0,00 6.319,29 20.294,09 31/03/2023
327 151401 APARECIDA DE FATIMA MENDES DE ALMEIDA ASSESSOR ADMINISTRATIVO II JUIZ DE FORA - COMARCA; JUIZ DE FORA-PJ-SECRETARIA 0,00 0,00 6.694,66 0,00 0,00 0,00 0,00 2.078,00 8.772,66 877,22 1.142,94 0,00 0,00 2.020,16 6.752,50 31/03/2023
328 329300 APARECIDA MARIA MELO DE ASSIS OFICIAL DO MP BELO HORIZONTE - COMARCA; BH-18PJ DIREITOS HUMANOS-SECRETARIA 11.008,33 3.302,50 0,00 0,00 0,00 0,00 0,00 2.078,00 16.388,83 2.070,68 2.496,68 0,00 0,00 4.567,36 11.821,47 31/03/2023
329 653000 APARECIDA ROSA DE LIMA ASSESSOR ADMINISTRATIVO III BELO HORIZONTE - COMARCA; SECRETARIA PROCESSOS DISCIPES ADMINISTRATIVOS 0,00 0,00 9.684,23 0,00 0,00 0,00 0,00 2.078,00 11.762,23 877,22 1.965,07 0,00 0,00 2.842,29 8.919,94 31/03/2023
330 354500 APARECIDA VIEIRA DE CARVALHO OFICIAL DO MP BELO HORIZONTE - COMARCA; DIVISÃO DE EDUCAÇÃO PARA O CONSUMO 9.378,86 2.813,66 0,00 0,00 0,00 0,00 44,71 2.565,70 14.802,93 1.731,75 2.007,35 0,00 0,00 3.739,10 11.063,83 31/03/2023
331 551000 ARACELES BICALHO FELIX ANALISTA DO MP MANHUAÇU - COMARCA; MANHUACU-PJ-SECRETARIA 11.008,33 1.100,83 0,00 0,00 0,00 0,00 0,00 3.978,00 16.087,16 1.718,41 1.988,10 0,00 0,00 3.706,51 12.380,65 31/03/2023
332 286200 ARACELI MEDRADO DOS SANTOS LIMA OFICIAL DO MP PARACATU - COMARCA; PARACATU-PJ-03PJ 6.694,66 2.008,40 0,00 0,00 0,00 0,00 159,56 5.683,42 14.546,04 1.173,44 1.201,29 0,00 0,00 2.374,73 12.171,31 31/03/2023
333 112200 ARAQUEM AUGUSTO DE MATOS AGENTE DO MP BELO HORIZONTE - COMARCA; BH-23PJ CIVEL-SEC EXP CIVEIS 11.736,91 10.563,22 0,00 0,00 0,00 3.348,97 0,00 2.078,00 27.727,10 3.348,97 5.158,90 0,00 0,00 8.507,87 19.219,23 31/03/2023
334 280600 ARDUINO FRATTEZI ANALISTA DO MP BELO HORIZONTE - COMARCA; CENTRAL DE APOIO TECNICO-SETOR CONTABIL 20.574,59 6.172,38 0,00 0,00 0,00 0,00 490,36 7.427,39 34.664,72 4.060,46 5.369,43 0,00 0,00 9.429,89 25.234,83 31/03/2023
335 520201 ARIANE DE FATIMA CARVALHO ALMEIDA RODRIGUES ANALISTA DO MP VESPASIANO - COMARCA; VESPASIANO-PJ-SECRETARIA 10.325,15 1.032,52 0,00 0,00 0,00 0,00 0,00 3.503,00 14.860,67 1.598,18 1.658,09 0,00 0,00 3.256,27 11.604,40 31/03/2023
336 537600 ARIELA FREIRE MONTIJO ANALISTA DO MP ARCOS - COMARCA; ARCOS-PJ-01PJ 11.008,33 2.201,67 0,00 0,00 0,00 0,00 1.100,83 2.078,00 16.388,83 2.070,68 2.392,41 0,00 0,00 4.463,09 11.925,74 31/03/2023
337 182000 ARILSON ALEXANDRE MARTINS MAGALHAES OFICIAL DO MP JOÃO MONLEVADE - COMARCA; JOAO MONLEVADE-PJ-01PJ 18.312,36 9.156,18 0,00 0,00 0,00 0,00 503,59 12.419,32 40.391,45 4.175,91 5.275,43 0,00 0,00 9.451,34 30.940,11 31/03/2023
338 511000 ARISLANE CAROLINA DA SILVA ANALISTA DO MP MONTE CARMELO - COMARCA; MONTE CARMELO-PJ-02PJ 11.008,33 2.201,67 0,00 0,00 0,00 0,00 0,00 3.978,00 17.188,00 1.894,55 2.242,39 0,00 0,00 4.136,94 13.051,06 31/03/2023
339 170000 ARLEY BRITES DA SILVA ASSESSOR ADMINISTRATIVO II BELO HORIZONTE - COMARCA; BH-14PJ DEFESA CONSUMIDOR-SECRETARIA 0,00 2.677,86 6.694,66 0,00 0,00 0,00 0,00 2.078,00 11.450,52 877,22 1.243,06 0,00 0,00 2.120,28 9.330,24 31/03/2023
340 120400 ARLINDO CASSIO DA CRUZ OFICIAL DO MP SÃO GONÇALO DO SAPUCAÍ - COMARCA; SAO GONCALO DO SAPUCAI-PJ-01PJ 20.574,59 18.517,14 0,00 0,00 0,00 5.454,90 450,09 7.303,30 52.300,02 5.454,90 8.778,48 3.629,51 0,00 17.862,89 34.437,13 31/03/2023
341 243700 ARLINDO MARCIO LACERDA OFICIAL DO MP CONTAGEM - COMARCA; CONTAGEM-PJ-SECRETARIA 15.659,55 7.829,78 0,00 0,00 0,00 0,00 1.580,00 2.078,00 27.147,33 3.539,24 5.051,41 0,00 0,00 8.590,65 18.556,68 31/03/2023
342 392100 ARNALDO DE ANDRADE OFICIAL DO MP DIVINÓPOLIS - COMARCA; DIVINOPOLIS-PJ-02PJ 11.008,33 3.302,50 0,00 0,00 0,00 0,00 3.052,89 6.136,83 23.500,55 2.246,81 3.133,34 0,00 0,00 5.380,15 18.120,40 31/03/2023
343 642400 ARTANE INARDE DE SIQUEIRA DAMASCENO ANALISTA DO MP BELO HORIZONTE - COMARCA; SECRETARIA DE ASSUNTOS INTERNACIONAIS 8.932,15 893,22 0,00 0,00 0,00 0,00 0,00 2.078,00 11.903,37 982,16 1.514,72 0,00 0,00 2.496,88 9.406,49 31/03/2023
344 733000 ARTHUR BRANDAO ALBUQUERQUE ASSESSOR ADMINISTRATIVO I BELO HORIZONTE - COMARCA; DIRETORIA DE PAGAMENTO DE PESSOAL-DPAG 0,00 0,00 4.345,58 0,00 0,00 0,00 434,56 2.837,77 7.617,91 730,84 706,68 0,00 0,00 1.437,52 6.180,39 31/03/2023
345 712100 ARTUR FONTE BOA TEOFILO ASSESSOR ADMINISTRATIVO I BELO HORIZONTE - COMARCA; DIRET DE ESTAGIOS E CONVENIOS ACADEMICOS 0,00 0,00 4.345,58 0,00 0,00 0,00 0,00 2.078,00 6.423,58 644,55 560,92 0,00 0,00 1.205,47 5.218,11 31/03/2023
346 302100 AUGUSTO ROUSSEAU DE CASTRO ANALISTA DO MP CATAGUASES - COMARCA; CATAGUASES-PJ-02PJ 20.574,59 6.172,38 0,00 0,00 0,00 0,00 490,36 7.427,39 34.664,72 4.060,46 5.369,43 0,00 0,00 9.429,89 25.234,83 31/03/2023
347 540200 AUREA AVELAR BITTENCOURT OFICIAL DO MP BELO HORIZONTE - COMARCA; GRUPO ESP PROM JUST DEF PROB ADM PAT PUB 6.694,66 669,47 0,00 0,00 0,00 0,00 0,00 2.078,00 9.442,13 959,93 839,66 0,00 0,00 1.799,59 7.642,54 31/03/2023
348 633501 AUREA GONTIJO BIRCHAL ASSESSOR DE GABINETE I BELO HORIZONTE - COMARCA; PROCURADOR-GERAL DE JUSTIÇA 0,00 0,00 16.169,47 0,00 0,00 0,00 0,00 2.078,00 18.247,47 877,22 3.748,51 0,00 0,00 4.625,73 13.621,74 31/03/2023
349 183200 AURELIANO MAGELA DE REZENDE OFICIAL DO MP BELO HORIZONTE - COMARCA; COORD DE GABINETE DO PGJ 18.312,36 7.324,94 5.493,71 0,00 0,00 0,00 456,59 7.058,96 38.646,56 3.882,92 6.623,86 0,00 0,00 10.506,78 28.139,78 31/03/2023
350 629400 AYESKA DA COSTA VAL MOURA DABIEN OFICIAL DO MP BELO HORIZONTE - COMARCA; BH-09PJ AUDITORIA MILITAR-SECRETARIA 6.081,20 608,12 0,00 0,00 0,00 0,00 0,00 2.078,00 8.767,32 855,73 734,88 0,00 0,00 1.590,61 7.176,71 31/03/2023
351 707400 AYMEE JOHANSSENN TYNEE CORREIA ALVES ASSESSOR PROMOTOR JUSTICA NOVA LIMA - COMARCA; NOVA LIMA-PJ-01PJ 0,00 0,00 7.857,77 0,00 0,00 0,00 0,00 2.078,00 9.935,77 877,22 1.462,79 0,00 0,00 2.340,01 7.595,76 31/03/2023
352 701600 BARBARA CHAVES OLIVEIRA ASSESSOR PROCURADOR JUSTICA BELO HORIZONTE - COMARCA; PROC. JUSTICA DIR. DIFUSOS E COLETIVOS-SEC 0,00 0,00 7.857,77 0,00 0,00 0,00 0,00 2.078,00 9.935,77 877,22 1.462,79 0,00 0,00 2.340,01 7.595,76 31/03/2023
353 691900 BARBARA COUTINHO REIS ASSESSOR PROCURADOR JUSTICA BELO HORIZONTE - COMARCA; GABINETE DE PROCURADOR DE JUSTIÇA - SALA 910 0,00 0,00 7.857,77 0,00 0,00 0,00 0,00 2.078,00 9.935,77 877,22 1.462,79 0,00 0,00 2.340,01 7.595,76 31/03/2023
354 692200 BARBARA CRISTINA MENDES BANDEIRA DE MELO DUTRA ASSESSOR PROCURADOR JUSTICA BELO HORIZONTE - COMARCA; GABINETE DE PROCURADOR DE JUSTIÇA - SALA 1009 0,00 0,00 7.857,77 0,00 0,00 0,00 0,00 2.078,00 9.935,77 877,22 1.462,79 0,00 0,00 2.340,01 7.595,76 31/03/2023
355 723400 BARBARA CRISTINA TAVARES CARNEIRO ASSESSOR PROCURADOR JUSTICA BELO HORIZONTE - COMARCA; GABINETE DE PROCURADOR DE JUSTIÇA - SALA 502 0,00 0,00 7.857,77 0,00 0,00 0,00 0,00 2.078,00 9.935,77 877,22 1.462,79 0,00 0,00 2.340,01 7.595,76 31/03/2023
356 652800 BARBARA JULIANNE MOREIRA CASTRO ASSESSOR PROCURADOR JUSTICA BELO HORIZONTE - COMARCA; ASSESS TECNICO-JUR JUNTO AS PROC. DE JUST 0,00 0,00 7.857,77 0,00 0,00 0,00 0,00 2.078,00 9.935,77 877,22 1.462,79 0,00 0,00 2.340,01 7.595,76 31/03/2023
357 707700 BARBARA LOUISE PUFF DE OLIVEIRA ASSESSOR PROMOTOR JUSTICA RIBEIRÃO DAS NEVES - COMARCA; RIBEIRAO DAS NEVES-PJ-02PJ 0,00 0,00 7.857,77 0,00 0,00 0,00 0,00 2.078,00 9.935,77 877,22 1.462,79 0,00 0,00 2.340,01 7.595,76 31/03/2023
358 663600 BARBARA REGINA PEREIRA DE PINHO MAGALHAES ASSESSOR PROMOTOR JUSTICA BELO HORIZONTE - COMARCA; CAO-DH CONT EXT ATIV POLIC E AP COMUNIT 0,00 0,00 7.857,77 0,00 0,00 0,00 0,00 2.078,00 9.935,77 877,22 1.462,79 0,00 0,00 2.340,01 7.595,76 31/03/2023
359 692400 BARBARA SOUZA OLIVEIRA ASSESSOR PROMOTOR JUSTICA DIVINO - COMARCA; DIVINO-PJ-UNPJ 0,00 0,00 7.857,77 0,00 0,00 0,00 0,00 2.078,00 9.935,77 877,22 1.462,79 0,00 0,00 2.340,01 7.595,76 31/03/2023
360 546500 BARBARA ZACARONI GOULART OFICIAL DO MP BETIM - COMARCA; BETIM-PJ-08PJ 6.694,66 669,47 0,00 0,00 0,00 0,00 0,00 2.078,00 9.442,13 959,93 891,80 0,00 0,00 1.851,73 7.590,40 31/03/2023
361 316500 BEATRIZ ABILVIA DA SILVA ANALISTA DO MP GOVERNADOR VALADARES - COMARCA; GOVERNADOR VALADARES-PJ-07PJ 19.791,01 5.937,30 0,00 0,00 0,00 3.897,48 543,14 8.003,16 38.172,09 3.897,48 6.205,93 0,00 0,00 10.103,41 28.068,68 31/03/2023
362 311800 BEATRIZ APARECIDA SOARES GANEM OFICIAL DO MP ITAMBACURI - COMARCA; ITAMBACURI-PJ-02PJ 12.118,97 4.847,59 0,00 0,00 0,00 0,00 497,69 7.507,30 24.971,55 2.495,60 2.953,74 0,00 0,00 5.449,34 19.522,21 31/03/2023
363 266800 BEATRIZ AUGUSTA VILACA GOMES DE HUBER OFICIAL DO MP BELO HORIZONTE - COMARCA; BH-05PJ-JUÍZO SUCESSÕES-SEC 11.008,33 3.302,50 0,00 0,00 0,00 0,00 0,00 2.078,00 16.388,83 2.070,68 2.496,68 0,00 0,00 4.567,36 11.821,47 31/03/2023
364 235200 BEATRIZ BOTELHO BATISTA OFICIAL DO MP MATEUS LEME - COMARCA; MATEUS LEME-PJ-02PJ 11.008,33 4.403,33 0,00 0,00 0,00 0,00 0,00 2.078,00 17.489,66 2.246,81 2.750,97 0,00 0,00 4.997,78 12.491,88 31/03/2023
365 182300 BEATRIZ PAULA SOUSA RAMOS OFICIAL DO MP MARIANA - COMARCA; MARIANA-PJ-01PJ 18.312,36 9.156,18 0,00 0,00 0,00 0,00 0,00 2.078,00 29.546,54 4.175,91 5.536,11 0,00 0,00 9.712,02 19.834,52 31/03/2023
366 507000 BELCHIOR FRANKLIN AMARAL LEITE ANALISTA DO MP BELO HORIZONTE - COMARCA; CAO ORGAOS MPMG DESIG FUNC ELEITORAIS-SEC 12.118,97 2.423,79 0,00 0,00 0,00 0,00 266,62 4.986,55 19.795,93 2.107,79 2.393,85 0,00 0,00 4.501,64 15.294,29 31/03/2023
367 345100 BENITO ELIAS RODRIGUES ANALISTA DO MP BARBACENA - COMARCA; BARBACENA - SECRETARIA DAS PJS CRIMINAIS 19.037,29 5.711,19 0,00 0,00 0,00 0,00 544,47 8.017,64 33.310,59 3.740,71 4.855,64 0,00 0,00 8.596,35 24.714,24 31/03/2023
368 207300 BENITO VIEIRA DOS SANTOS ANALISTA DO MP BELO HORIZONTE - COMARCA; PROC JUST ESP ACOES COMP ORIG CRIMINAL-ASSESS 20.574,59 10.287,30 0,00 0,00 0,00 4.718,85 521,85 7.770,92 43.873,51 4.718,85 6.229,22 0,00 0,00 10.948,07 32.925,44 31/03/2023
369 480200 BERNADETE NUNES DOS SANTOS ANALISTA DO MP GUANHÃES - COMARCA; GUANHAES-PJ-02PJ 11.008,33 4.403,33 0,00 0,00 0,00 0,00 339,06 5.776,80 21.527,52 2.246,81 2.750,97 0,00 0,00 4.997,78 16.529,74 31/03/2023
370 378400 BETANIA FARNESI DE SOUZA E SILVA OFICIAL DO MP CURVELO - COMARCA; CURVELO-PJ-01PJ 11.008,33 4.403,33 0,00 0,00 0,00 0,00 0,00 2.078,00 17.489,66 2.246,81 2.698,84 0,00 0,00 4.945,65 12.544,01 31/03/2023
371 387400 BETANIA MENDONCA DE ASSIS CARVALHO ANALISTA DO MP JUIZ DE FORA - COMARCA; JUIZ DE FORA-PJ-03PJ 16.695,70 5.008,71 0,00 0,00 0,00 0,00 1.669,57 3.028,00 26.401,98 3.520,79 4.538,13 0,00 0,00 8.058,92 18.343,06 31/03/2023
372 714400 BIANCA DE CASTRO RAMOS ASSESSOR PROMOTOR JUSTICA BETIM - COMARCA; BETIM-PJ-13PJ 0,00 0,00 7.857,77 0,00 0,00 0,00 0,00 2.078,00 9.935,77 877,22 1.462,79 0,00 0,00 2.340,01 7.595,76 31/03/2023
373 712700 BIANCA DE JESUS SOUZA ASSESSOR ADMINISTRATIVO I GOVERNADOR VALADARES - COMARCA; COOR REG APOIO COM INC MOB VALE DO RIO DOCE 0,00 0,00 4.345,58 0,00 0,00 0,00 0,00 2.078,00 6.423,58 644,55 560,92 0,00 0,00 1.205,47 5.218,11 31/03/2023
374 450300 BIANCA OLIVEIRA DE ALBUQUERQUE ANALISTA DO MP BELO HORIZONTE - COMARCA; BH-10PJ EXECUÇÃO PENAL-SECRETARIA 11.008,33 2.201,67 0,00 0,00 0,00 0,00 0,00 3.028,00 16.238,00 1.894,55 2.242,39 0,00 0,00 4.136,94 12.101,06 31/03/2023
375 535400 BIANCA SALOTO ROSSI ANALISTA DO MP SANTOS DUMONT - COMARCA; SANTOS DUMONT-PJ-01PJ 11.008,33 2.201,67 0,00 0,00 4.403,33 0,00 1.633,63 8.840,40 28.087,36 2.070,68 3.707,60 0,00 0,00 5.778,28 22.309,08 31/03/2023
376 120800 BRAS MARQUES DE SOUZA ANALISTA DO MP BELO HORIZONTE - COMARCA; SUPERINTENDENCIA DE GESTAO ADMINISTRATIVA 25.971,96 23.374,77 0,00 0,00 0,00 5.454,90 450,08 6.988,06 62.239,77 5.454,90 8.778,48 13.884,51 0,00 28.117,89 34.121,88 31/03/2023
377 724400 BRENDA PIMENTEL DE SOUZA VIANA ASSESSOR PROMOTOR JUSTICA MANHUMIRIM - COMARCA; MANHUMIRIM-PJ-01PJ 0,00 0,00 7.857,77 0,00 2.619,26 0,00 0,00 2.078,00 12.555,03 877,22 2.183,09 0,00 0,00 3.060,31 9.494,72 31/03/2023
378 710500 BRENNO VINICIUS MAGESTE ROSA ASSESSOR PROMOTOR JUSTICA MANHUAÇU - COMARCA; MANHUACU-PJ-02PJ 0,00 0,00 7.857,77 0,00 0,00 0,00 0,00 2.078,00 9.935,77 877,22 1.462,79 0,00 0,00 2.340,01 7.595,76 31/03/2023
379 460900 BRENO CRISTIANO DE SOUZA REZENDE ANALISTA DO MP ITAÚNA - COMARCA; ITAUNA-PJ-02PJ 11.008,33 2.201,67 0,00 0,00 0,00 0,00 48,44 2.606,40 15.864,84 1.894,55 2.242,39 0,00 0,00 4.136,94 11.727,90 31/03/2023
380 239000 BRENO VENANCIO ROMANINI OFICIAL DO MP BELO HORIZONTE - COMARCA; BH-20PJ ORD ECON TRIBUTARIA-SECRETARIA 11.008,33 4.403,33 0,00 0,00 0,00 0,00 0,00 2.078,00 17.489,66 2.246,81 2.750,97 0,00 0,00 4.997,78 12.491,88 31/03/2023
381 722700 BRUNA DE SA FERREIRA LIMA ASSESSOR PROMOTOR JUSTICA MANGA - COMARCA; MANGA-PJ-01PJ 0,00 0,00 7.857,77 0,00 0,00 0,00 0,00 2.078,00 9.935,77 877,22 1.462,79 0,00 0,00 2.340,01 7.595,76 31/03/2023
382 722100 BRUNA HENRIQUE DE SOUZA ASSESSOR PROMOTOR JUSTICA PIRAPETINGA - COMARCA; PIRAPETINGA-PJ-UNPJ 0,00 0,00 7.857,77 0,00 0,00 0,00 0,00 2.078,00 9.935,77 877,22 1.462,79 0,00 0,00 2.340,01 7.595,76 31/03/2023
383 642300 BRUNA IZABELITA DE FATIMA OLIVEIRA COSTA OFICIAL DO MP BELO HORIZONTE - COMARCA; BH-02PJ FAMILIA-SECRETARIA 6.483,63 648,36 0,00 0,00 0,00 0,00 0,00 2.078,00 9.209,99 923,95 837,85 0,00 0,00 1.761,80 7.448,19 31/03/2023
384 513600 BRUNA KARLA MARTINS CARVALHO ANALISTA DO MP GOVERNADOR VALADARES - COMARCA; GOVERNADOR VALADARES-PJ-14PJ 11.008,33 2.201,67 0,00 0,00 0,00 0,00 145,31 3.663,20 17.018,51 982,16 2.375,68 0,00 0,00 3.357,84 13.660,67 31/03/2023
385 415100 BRUNA MARIA SOARES OLIVEIRA COSTA RAMOS ANALISTA DO MP UBÁ - COMARCA; COORD REG BACIA DO RIO PARAIBA DO SUL 16.169,47 3.233,89 0,00 0,00 0,00 0,00 0,00 2.078,00 21.481,36 982,16 3.951,12 0,00 0,00 4.933,28 16.548,08 31/03/2023
386 692900 BRUNA MENDES COELHO ASSESSOR PROCURADOR JUSTICA BELO HORIZONTE - COMARCA; GABINETE DE PROCURADOR DE JUSTIÇA - SALA 801 0,00 0,00 7.857,77 0,00 0,00 0,00 0,00 2.078,00 9.935,77 877,22 1.462,79 0,00 0,00 2.340,01 7.595,76 31/03/2023
387 470000 BRUNA MORAES ANALISTA DO MP TOMBOS - COMARCA; TOMBOS-PJ-UNPJ 14.224,47 2.844,89 0,00 0,00 0,00 0,00 0,00 2.078,00 19.147,36 2.512,05 2.977,49 0,00 0,00 5.489,54 13.657,82 31/03/2023
388 614700 BRUNA NATTANY DE LIMA OFICIAL DO MP MANTENA - COMARCA; MANTENA-PJ-01PJ 6.694,66 669,47 0,00 0,00 0,00 0,00 0,00 3.028,00 10.392,13 959,93 891,80 0,00 0,00 1.851,73 8.540,40 31/03/2023
389 729800 BRUNA PAULA AMARAL CEOLIN ASSESSOR PROMOTOR JUSTICA COMARCA - JUATUBA; JUATUBA-PJ-UNPJ 0,00 0,00 7.857,77 0,00 0,00 0,00 0,00 2.078,00 9.935,77 877,22 1.462,79 0,00 0,00 2.340,01 7.595,76 31/03/2023
390 631800 BRUNA RAPOSO JORGE OFICIAL DO MP JUIZ DE FORA - COMARCA; JUIZ DE FORA-PJ-06PJ 6.694,66 669,47 0,00 0,00 0,00 0,00 0,00 2.078,00 9.442,13 959,93 891,80 0,00 0,00 1.851,73 7.590,40 31/03/2023
391 707800 BRUNA ROMIE WERDINE ASSESSOR PROMOTOR JUSTICA IBIRITÉ - COMARCA; IBIRITE-PJ-06PJ 0,00 0,00 7.857,77 0,00 0,00 0,00 0,00 2.078,00 9.935,77 877,22 1.462,79 0,00 0,00 2.340,01 7.595,76 31/03/2023
392 697400 BRUNA SILVA SANTOS ASSESSOR PROMOTOR JUSTICA TIMÓTEO - COMARCA; TIMOTEO-PJ-04PJ 0,00 0,00 7.857,77 0,00 0,00 0,00 0,00 2.078,00 9.935,77 877,22 1.462,79 0,00 0,00 2.340,01 7.595,76 31/03/2023
393 699300 BRUNA URSINE TIMO ASSESSOR PROCURADOR JUSTICA BELO HORIZONTE - COMARCA; PROC JUST ESP ACOES COMP ORIG CRIMINAL-ASSESS 0,00 0,00 7.857,77 0,00 0,00 0,00 0,00 2.078,00 9.935,77 877,22 1.462,79 0,00 0,00 2.340,01 7.595,76 31/03/2023
394 463800 BRUNO ALVES TEIXEIRA ANALISTA DO MP UBERLÂNDIA - COMARCA; UBERLANDIA-PJ-04PJ 11.008,33 2.201,67 0,00 0,00 0,00 0,00 145,31 3.663,20 17.018,51 1.894,55 2.242,39 0,00 0,00 4.136,94 12.881,57 31/03/2023
395 538500 BRUNO AUGUSTO DA SILVA OFICIAL DO MP SANTA LUZIA - COMARCA; SANTA LUZIA-PJ-03PJ 6.694,66 1.338,93 0,00 0,00 0,00 0,00 669,47 2.078,00 10.781,06 1.173,44 1.201,29 0,00 0,00 2.374,73 8.406,33 31/03/2023
396 318200 BRUNO BARROS DE SOUZA OFICIAL DO MP BELO HORIZONTE - COMARCA; DIRETORIA GESTAO CONTRATOS CONVENIOS 11.008,33 3.302,50 0,00 0,00 0,00 0,00 262,37 4.940,17 19.513,37 982,16 2.249,42 0,00 0,00 3.231,58 16.281,79 31/03/2023
397 427400 BRUNO CESAR RIBEIRO DE PAIVA ANALISTA DO MP BELO HORIZONTE - COMARCA; DIRETORIA DO COLEGIO E DA CAMARA DE PJ 16.169,47 3.233,89 0,00 0,00 0,00 0,00 213,44 4.406,40 24.023,20 2.885,49 3.673,05 0,00 0,00 6.558,54 17.464,66 31/03/2023
398 380900 BRUNO CIRILO ANTUNES OFICIAL DO MP VARGINHA - COMARCA; VARGINHA-PJ-05PJ 10.661,25 3.198,38 0,00 0,00 0,00 0,00 1.304,59 4.679,36 19.843,58 2.169,07 2.638,73 0,00 0,00 4.807,80 15.035,78 31/03/2023
399 329000 BRUNO DE MELO REIS ANALISTA DO MP PATROCÍNIO - COMARCA; PATROCINIO-PJ-02PJ 19.791,01 7.916,40 0,00 0,00 0,00 0,00 507,97 9.519,48 37.734,86 4.214,13 5.487,02 0,00 0,00 9.701,15 28.033,71 31/03/2023
400 697800 BRUNO GAZZOLA BEZERRA FALCAO ASSESSOR PROCURADOR JUSTICA BELO HORIZONTE - COMARCA; PROCURADOR-GERAL ADJUNTO JURIDICO- GABINETE 0,00 0,00 7.857,77 0,00 0,00 0,00 0,00 2.078,00 9.935,77 877,22 1.462,79 0,00 0,00 2.340,01 7.595,76 31/03/2023
401 378300 BRUNO HERDY LOPES DE OLIVEIRA ANALISTA DO MP GOVERNADOR VALADARES - COMARCA; GOVERNADOR VALADARES-PJ-03PJ 16.695,70 5.008,71 0,00 0,00 0,00 0,00 2.232,77 8.222,02 32.159,20 3.520,79 4.590,27 0,00 0,00 8.111,06 24.048,14 31/03/2023
402 529700 BRUNO JOSE BUENO DIAS OFICIAL DO MP SÃO SEBASTIÃO DO PARAÍSO - COMARCA; SAO SEBASTIAO DO PARAISO-PJ-02PJ 6.694,66 1.338,93 0,00 0,00 0,00 0,00 730,84 2.747,47 11.511,90 1.173,44 1.149,15 0,00 0,00 2.322,59 9.189,31 31/03/2023
403 691600 BRUNO JOSE RIBEIRO ASSESSOR PROMOTOR JUSTICA CLÁUDIO - COMARCA; CLAUDIO-PJ-UNPJ 0,00 0,00 7.857,77 0,00 0,00 0,00 0,00 2.078,00 9.935,77 877,22 1.462,79 0,00 0,00 2.340,01 7.595,76 31/03/2023
404 350100 BRUNO LAUD SERRANO DOS REIS OFICIAL DO MP UBÁ - COMARCA; UBA-PJ-02PJ 11.008,33 4.403,33 0,00 0,00 0,00 0,00 339,06 5.776,80 21.527,52 2.246,81 2.698,84 0,00 0,00 4.945,65 16.581,87 31/03/2023
405 728900 BRUNO LIMA PITANGA ASSESSOR PROMOTOR JUSTICA BELO HORIZONTE - COMARCA; NUCLEO DA EXECUCAO PENAL 0,00 0,00 7.857,77 0,00 0,00 0,00 0,00 2.078,00 9.935,77 877,22 1.462,79 0,00 0,00 2.340,01 7.595,76 31/03/2023
406 373800 BRUNO MARTINO DE ALBUQUERQUE ANALISTA DO MP PONTE NOVA - COMARCA; PONTE NOVA-PJ-03PJ 16.695,70 5.008,71 0,00 0,00 0,00 0,00 159,17 3.814,35 25.677,93 3.253,65 4.100,32 0,00 0,00 7.353,97 18.323,96 31/03/2023
407 732900 BRUNO NOGUEIRA GUIMARAES ASSESSOR ADMINISTRATIVO I BELO HORIZONTE - COMARCA; COORD DE INCLUSAO E MOBILIZACAO SOCIAIS 0,00 0,00 4.345,58 0,00 0,00 0,00 579,41 2.898,36 7.823,35 759,60 755,27 0,00 0,00 1.514,87 6.308,48 31/03/2023
408 470400 BRUNO NOVAIS CABRAL ANALISTA DO MP MUTUM - COMARCA; MUTUM-PJ-UNPJ 11.008,33 2.201,67 0,00 0,00 0,00 0,00 145,31 3.663,20 17.018,51 1.894,55 1.884,34 0,00 0,00 3.778,89 13.239,62 31/03/2023
409 648600 BRUNO RIBEIRO E MELO ASSESSOR ADMINISTRATIVO IV BELO HORIZONTE - COMARCA; DIR RELACOES INSTITUCIONAIS 0,00 0,00 12.920,95 0,00 0,00 0,00 142,13 3.628,51 16.691,59 877,22 2.855,17 0,00 0,00 3.732,39 12.959,20 31/03/2023
410 369200 BRUNO ROBERTO DIAS DE OLIVEIRA OFICIAL DO MP BELO HORIZONTE - COMARCA; BH-22PJ PES COM DEF E IDOSOS-SECRETARIA 11.008,33 3.302,50 0,00 0,00 0,00 0,00 262,37 4.940,17 19.513,37 982,16 2.655,71 0,00 0,00 3.637,87 15.875,50 31/03/2023
411 547700 BRUNO ROBERTO SOUZA GONCALVES ANALISTA DO MP PARACATU - COMARCA; PARACATU-PJ-03PJ 11.008,33 1.100,83 0,00 0,00 0,00 0,00 0,00 3.028,00 15.137,16 1.718,41 1.988,10 0,00 0,00 3.706,51 11.430,65 31/03/2023
412 546100 BRUNO SA VIEIRA ANALISTA DO MP BARBACENA - COMARCA; BARBACENA-PJ-SECRETARIA 11.008,33 1.100,83 0,00 0,00 0,00 0,00 0,00 3.028,00 15.137,16 1.718,41 1.883,82 0,00 0,00 3.602,23 11.534,93 31/03/2023
413 438200 BRUNO SALES PEREIRA ANALISTA DO MP BELO HORIZONTE - COMARCA; CENTRAL DE APOIO TECNICO-SETOR CONTABIL 14.224,47 2.844,89 0,00 0,00 0,00 0,00 500,70 7.540,20 25.110,26 2.512,05 3.081,76 0,00 0,00 5.593,81 19.516,45 31/03/2023
414 537400 BRUNO SANT'ANA CESAR ANALISTA DO MP BELO HORIZONTE - COMARCA; BH-12PJ JUIZO CRIMINAL-GAB 105PJ 11.008,33 2.201,67 0,00 0,00 0,00 0,00 1.246,14 3.663,20 18.119,34 2.070,68 2.496,68 0,00 0,00 4.567,36 13.551,98 31/03/2023
415 727700 BYANKA DA SILVA MORAIS ASSESSOR PROCURADOR JUSTICA BELO HORIZONTE - COMARCA; GABINETE DE PROCURADOR DE JUSTIÇA - SALA 805 0,00 0,00 7.857,77 0,00 0,00 0,00 0,00 2.078,00 9.935,77 877,22 1.462,79 0,00 0,00 2.340,01 7.595,76 31/03/2023
416 405800 CAIO FERNANDO RODRIGUES DE OLIVEIRA ANALISTA DO MP BELO HORIZONTE - COMARCA; ASSESSORIA JURIDICO-ADMINISTRATIVA 16.169,47 3.233,89 0,00 0,00 0,00 0,00 71,15 2.854,13 22.328,64 982,16 4.081,97 0,00 0,00 5.064,13 17.264,51 31/03/2023
417 530000 CAIO GUEDES DE OLIVEIRA ANALISTA DO MP DIAMANTINA - COMARCA; DIAMANTINA-PJ-02PJ 11.008,33 2.201,67 0,00 0,00 0,00 0,00 1.189,63 3.046,73 17.446,36 2.070,68 2.444,54 0,00 0,00 4.515,22 12.931,14 31/03/2023
418 491400 CAIO MIRANDA JUNQUEIRA ANALISTA DO MP BUENO BRANDAO - COMARCA; BUENO BRANDAO-PJ-UNPJ 11.008,33 2.201,67 0,00 0,00 0,00 0,00 0,00 2.078,00 15.288,00 1.894,55 2.138,11 0,00 0,00 4.032,66 11.255,34 31/03/2023
419 415800 CAMILA ALVES DA SILVA ANALISTA DO MP CAETÉ - COMARCA; CAETE-PJ-01PJ 16.169,47 3.233,89 0,00 0,00 0,00 0,00 498,02 7.510,94 27.412,32 2.885,49 3.673,05 0,00 0,00 6.558,54 20.853,78 31/03/2023
420 555800 CAMILA CAROLINE ROCHA CHAVES OFICIAL DO MP SALINAS - COMARCA; SALINAS-PJ-01PJ 6.694,66 669,47 0,00 0,00 0,00 0,00 0,00 2.078,00 9.442,13 959,93 891,80 0,00 0,00 1.851,73 7.590,40 31/03/2023
421 445200 CAMILA CONDE ROCHA ANALISTA DO MP CONTAGEM - COMARCA; CONTAGEM-PJ-21PJ 12.118,97 2.423,79 0,00 0,00 0,00 0,00 266,62 4.986,55 19.795,93 2.107,79 2.550,26 0,00 0,00 4.658,05 15.137,88 31/03/2023
422 419900 CAMILA CUNNINGHAM PIMENTA DE PADUA ANALISTA DO MP BELO HORIZONTE - COMARCA; ASSESSORIA PSICOSSOCIAL 16.169,47 3.233,89 0,00 0,00 0,00 0,00 0,00 2.078,00 21.481,36 2.885,49 3.673,05 0,00 0,00 6.558,54 14.922,82 31/03/2023
423 714200 CAMILA DE SOUSA CUNHA ASSESSOR PROMOTOR JUSTICA PRADOS - COMARCA; PRADOS-PJ-UNPJ 0,00 0,00 7.857,77 0,00 0,00 0,00 0,00 2.078,00 9.935,77 877,22 1.462,79 0,00 0,00 2.340,01 7.595,76 31/03/2023
424 507700 CAMILA ELIZABETH RODRIGUES ANALISTA DO MP BELO HORIZONTE - COMARCA; BH-02PJ FAMILIA-SECRETARIA 13.341,69 2.668,34 0,00 0,00 0,00 0,00 0,00 2.078,00 18.088,03 2.342,55 2.889,20 0,00 0,00 5.231,75 12.856,28 31/03/2023
425 372700 CAMILA FONSECA LIMONGE ANALISTA DO MP BETIM - COMARCA; BETIM-PJ-01PJ 16.695,70 5.008,71 0,00 0,00 0,00 0,00 2.232,77 8.222,02 32.159,20 3.520,79 4.590,27 0,00 0,00 8.111,06 24.048,14 31/03/2023
426 621300 CAMILA GOLFETO DE SOUSA VALENTE OFICIAL DO MP CARANGOLA - COMARCA; CARANGOLA-PJ-SECRETARIA 6.694,66 669,47 0,00 0,00 0,00 0,00 0,00 3.652,46 11.016,59 959,93 787,52 0,00 0,00 1.747,45 9.269,14 31/03/2023
427 409800 CAMILA GONCALVES COSTA RIBEIRO ANALISTA DO MP INHAPIM - COMARCA; INHAPIM-PJ-02PJ 11.008,33 2.201,67 0,00 0,00 0,00 0,00 145,31 4.613,20 17.968,51 1.894,55 2.138,11 0,00 0,00 4.032,66 13.935,85 31/03/2023
428 335000 CAMILA GONTIJO DE PAIVA ANALISTA DO MP BELO HORIZONTE - COMARCA; COORD DE CONTROLE CONSTITUCIONALIDADE 20.574,59 6.172,38 0,00 0,00 0,00 0,00 490,36 7.427,39 34.664,72 4.060,46 5.317,29 0,00 0,00 9.377,75 25.286,97 31/03/2023
429 693400 CAMILA HECKSHER MONTEIRO ASSESSOR PROCURADOR JUSTICA BELO HORIZONTE - COMARCA; GABINETE DE PROCURADOR DE JUSTIÇA - SALA 613 0,00 0,00 7.857,77 0,00 0,00 0,00 0,00 2.078,00 9.935,77 877,22 1.462,79 0,00 0,00 2.340,01 7.595,76 31/03/2023
430 696000 CAMILA IMACULADA OLIVEIRA ASSESSOR PROCURADOR JUSTICA BELO HORIZONTE - COMARCA; GABINETE DE PROCURADOR DE JUSTIÇA - SALA 816 0,00 0,00 7.857,77 0,00 0,00 0,00 0,00 2.078,00 9.935,77 877,22 1.462,79 0,00 0,00 2.340,01 7.595,76 31/03/2023
431 547800 CAMILA MATTARELLI DE ABREU E SILVA ANALISTA DO MP BELO HORIZONTE - COMARCA; CAO-VIOLENCIA DOMESTICA E FAMILIAR 11.008,33 1.100,83 0,00 0,00 0,00 0,00 0,00 2.078,00 14.187,16 1.718,41 1.988,10 0,00 0,00 3.706,51 10.480,65 31/03/2023
432 430000 CANDIDA MARINA COSTA ANALISTA DO MP BELO HORIZONTE - COMARCA; DIRET DE INFORMACAO E CONHECIMENTO-DINC/CEAF 16.169,47 3.233,89 0,00 0,00 0,00 0,00 0,00 2.078,00 21.481,36 2.885,49 3.673,05 0,00 0,00 6.558,54 14.922,82 31/03/2023
433 614300 CARINA CORTIELHA OFICIAL DO MP BELO HORIZONTE - COMARCA; BH-23PJ CIVEL-FISC AC POL PUB I 6.081,20 608,12 0,00 0,00 0,00 0,00 539,61 7.964,60 15.193,53 855,73 734,88 0,00 0,00 1.590,61 13.602,92 31/03/2023
434 380400 CARINA DIAS FACANHA DE SOUZA ANALISTA DO MP SANTA RITA DO SAPUCAÍ - COMARCA; SANTA RITA DO SAPUCAI-PJ-01PJ 16.695,70 5.008,71 0,00 0,00 0,00 0,00 2.232,77 9.172,02 33.109,20 3.520,79 4.590,27 0,00 0,00 8.111,06 24.998,14 31/03/2023
435 255000 CARLA ADRIANA DE MENEZES OFICIAL DO MP BELO HORIZONTE - COMARCA; CENT DE APOIO TEC-SETOR DEF,IDOSO E INFANC 11.008,33 4.403,33 0,00 0,00 0,00 0,00 339,06 5.776,80 21.527,52 2.246,81 2.750,97 0,00 0,00 4.997,78 16.529,74 31/03/2023
436 425100 CARLA ADRIANA DINIZ AMARAL OFICIAL DO MP CONTAGEM - COMARCA; CONTAGEM-PJ-SECRETARIA 9.999,62 1.999,92 2.602,68 0,00 0,00 0,00 0,00 2.078,00 16.680,22 1.700,87 2.678,51 0,00 0,00 4.379,38 12.300,84 31/03/2023
437 508100 CARLA ALESSANDRA FONSECA ANALISTA DO MP BELO HORIZONTE - COMARCA; CAO-ORDEM ECONOMICA E TRIBUTARIA-SECRETARIA 11.008,33 2.201,67 0,00 0,00 0,00 0,00 145,31 3.663,20 17.018,51 1.894,55 2.242,39 0,00 0,00 4.136,94 12.881,57 31/03/2023
438 607100 CARLA ANGELICA DIAS MIRANDA OFICIAL DO MP SANTA LUZIA - COMARCA; SANTA LUZIA-PJ-SECRETARIA 6.694,66 669,47 0,00 0,00 0,00 0,00 0,00 2.078,00 9.442,13 959,93 735,38 0,00 0,00 1.695,31 7.746,82 31/03/2023
439 351500 CARLA APARECIDA MENDES RAMIRIO OFICIAL DO MP PASSOS - COMARCA; PASSOS-PJ-01PJ 11.008,33 3.302,50 0,00 0,00 0,00 0,00 524,73 7.802,33 22.637,89 2.070,68 2.444,54 0,00 0,00 4.515,22 18.122,67 31/03/2023
440 713100 CARLA DOS SANTOS SOUZA ASSESSOR PROMOTOR JUSTICA ESPERA FELIZ - COMARCA; ESPERA FELIZ-PJ-UNPJ 0,00 0,00 7.857,77 0,00 0,00 0,00 0,00 2.078,00 9.935,77 877,22 1.462,79 0,00 0,00 2.340,01 7.595,76 31/03/2023
441 442800 CARLA GONCALVES COSTA SOALHEIRO ANALISTA DO MP GOVERNADOR VALADARES - COMARCA; GOVERNADOR VALADARES-PJ-11PJ 11.373,62 2.347,38 0,00 0,00 0,00 0,00 258,21 5.844,86 19.824,07 2.034,43 2.292,31 0,00 0,00 4.326,74 15.497,33 31/03/2023
442 321500 CARLA GONCALVES MASSOTE OFICIAL DO MP CAMPO BELO - COMARCA; CAMPO BELO-PJ-02PJ 11.008,33 3.302,50 0,00 0,00 0,00 0,00 262,37 4.940,17 19.513,37 2.070,68 2.496,68 0,00 0,00 4.567,36 14.946,01 31/03/2023
443 429200 CARLA HAUTEQUESTT BECHARA ANALISTA DO MP BELO HORIZONTE - COMARCA; DIRET DE INFORMACAO E CONHECIMENTO-DINC/CEAF 16.169,47 3.233,89 0,00 0,00 0,00 0,00 0,00 2.078,00 21.481,36 2.885,49 3.673,05 0,00 0,00 6.558,54 14.922,82 31/03/2023
444 247500 CARLA MATILDE GUIMARAES DE OLIVEIRA OFICIAL DO MP ITAJUBA - COMARCA; ITAJUBA-PJ-SECRETARIA 11.008,33 4.403,33 0,00 0,00 0,00 0,00 0,00 2.078,00 17.489,66 2.246,81 2.698,84 0,00 0,00 4.945,65 12.544,01 31/03/2023
445 226100 CARLA MERLI DA CONCEICAO ANALISTA DO MP BELO HORIZONTE - COMARCA; CENTRAL DE APOIO TECNICO-SETOR CONTABIL 20.574,59 8.229,84 0,00 0,00 0,00 0,00 528,08 7.838,89 37.171,40 4.389,66 5.792,56 0,00 0,00 10.182,22 26.989,18 31/03/2023
446 181401 CARLO MICHEL GAUDENSI COELHO ANALISTA DO MP BELO HORIZONTE - COMARCA; BH-08PJ JUIZADO ESPECIAL-SECRETARIA 15.659,55 6.263,82 0,00 0,00 0,00 0,00 482,31 7.339,61 29.745,29 3.288,69 4.255,18 0,00 0,00 7.543,87 22.201,42 31/03/2023
447 634000 CARLOS ALBERTO AMORMINO TRIGUEIRO ANALISTA DO MP BELO HORIZONTE - COMARCA; DIRET DE APOIO AS PROCURADORIAS DE JUSTICA 9.999,62 999,96 0,00 0,00 0,00 0,00 0,00 3.028,00 14.027,58 982,16 1.761,27 0,00 0,00 2.743,43 11.284,15 31/03/2023
448 637900 CARLOS ALBERTO DE MOURA OFICIAL DO MP SETE LAGOAS - COMARCA; SETE LAGOAS-PJ-07PJ 6.483,63 648,36 0,00 0,00 0,00 0,00 0,00 2.078,00 9.209,99 923,95 785,71 0,00 0,00 1.709,66 7.500,33 31/03/2023
449 638700 CARLOS ALBERTO FERREIRA BRAGA ANALISTA DO MP VESPASIANO - COMARCA; VESPASIANO-PJ-06PJ 9.999,62 999,96 0,00 0,00 0,00 0,00 40,33 2.517,98 13.557,89 982,16 1.781,16 0,00 0,00 2.763,32 10.794,57 31/03/2023
450 375801 CARLOS ALBERTO ROCHA ANALISTA DO MP VARGINHA - COMARCA; GAECO REGIONAL DE VARGINHA 11.008,33 2.201,67 0,00 0,00 0,00 0,00 1.100,83 3.028,00 17.338,83 2.070,68 2.444,54 0,00 0,00 4.515,22 12.823,61 31/03/2023
451 462800 CARLOS ANDREI SOARES FAGUNDES ANALISTA DO MP MONTES CLAROS - COMARCA; MONTES CLAROS-PJ-09PJ 11.008,33 2.201,67 0,00 0,00 0,00 0,00 145,31 3.663,20 17.018,51 1.894,55 2.190,25 0,00 0,00 4.084,80 12.933,71 31/03/2023
452 370300 CARLOS AUGUSTO BUENO DIAS ASSESSOR ADMINISTRATIVO IV BELO HORIZONTE - COMARCA; SUPERINTENDÊNCIA DE ENGENHARIA E ARQUITETURA 0,00 0,00 12.920,95 0,00 0,00 0,00 0,00 2.078,00 14.998,95 877,22 2.063,08 0,00 0,00 2.940,30 12.058,65 31/03/2023
453 505100 CARLOS CEZAR CARVALHO ANALISTA DO MP CONTAGEM - COMARCA; CONTAGEM-PJ-02PJ 11.008,33 5.504,17 0,00 0,00 0,00 0,00 423,82 6.701,50 23.637,82 2.422,95 2.900,99 0,00 0,00 5.323,94 18.313,88 31/03/2023
454 196800 CARLOS EDUARDO DE OLIVEIRA MARINHO OFICIAL DO MP ALPINÓPOLIS - COMARCA; ALPINOPOLIS-PJ-UNPJ 19.037,29 13.326,11 0,00 0,00 0,00 0,00 474,66 7.256,14 40.094,20 4.959,09 6.614,69 0,00 0,00 11.573,78 28.520,42 31/03/2023
455 650800 CARLOS EDUARDO NIZA DA SILVA OFICIAL DO MP IGARAPÉ - COMARCA; IGARAPE-PJ-01PJ 5.889,39 588,94 0,00 0,00 0,00 0,00 47,51 3.546,27 10.072,11 822,63 581,68 0,00 0,00 1.404,31 8.667,80 31/03/2023
456 491800 CARLOS EDUARDO ROMAN OFICIAL DO MP BARBACENA - COMARCA; BARBACENA-PJ-09PJ 9.378,86 2.813,66 0,00 0,00 0,00 0,00 0,00 2.078,00 14.270,52 1.731,75 2.007,35 0,00 0,00 3.739,10 10.531,42 31/03/2023
457 299300 CARLOS HENRIQUE BICALHO ANALISTA DO MP BELO HORIZONTE - COMARCA; BH-17PJ PATRIMONIO PUBLICO-SECRETARIA 20.574,59 10.287,30 0,00 0,00 0,00 0,00 452,64 7.965,90 39.280,43 4.718,85 6.319,98 0,00 0,00 11.038,83 28.241,60 31/03/2023
458 205100 CARLOS HENRIQUE ESTEVES OFICIAL DO MP ITAMBACURI - COMARCA; ITAMBACURI-PJ-01PJ 19.037,29 7.614,92 0,00 0,00 0,00 0,00 0,00 2.346,38 28.998,59 4.045,30 5.295,40 0,00 0,00 9.340,70 19.657,89 31/03/2023
459 351600 CARLOS HENRIQUE FELICIO DA FONSECA OFICIAL DO MP JUIZ DE FORA - COMARCA; JUIZ DE FORA-PJ-21PJ 11.008,33 4.403,33 0,00 0,00 0,00 0,00 339,06 5.776,80 21.527,52 2.246,81 2.698,84 0,00 0,00 4.945,65 16.581,87 31/03/2023
460 729100 CARLOS HENRIQUE TEIXEIRA BRAGA ASSESSOR ADMINISTRATIVO II BELO HORIZONTE - COMARCA; DIRETORIA DE SUPORTE E MANUTENCAO 0,00 0,00 6.694,66 0,00 0,00 0,00 0,00 2.078,00 8.772,66 877,22 1.142,94 0,00 0,00 2.020,16 6.752,50 31/03/2023
461 85400 CARLOS JOSE VIEIRA OFICIAL DO MP BELO HORIZONTE - COMARCA; DIRETORIA DO COLEGIO E DA CAMARA DE PJ 25.971,96 20.777,57 0,00 0,00 0,00 5.454,90 450,08 6.988,05 59.642,56 5.454,90 8.882,75 11.287,31 0,00 25.624,96 34.017,60 31/03/2023
462 229100 CARLOS MERCES DE OLIVEIRA ANALISTA DO MP BELO HORIZONTE - COMARCA; CENTRAL DE APOIO TECN-SETOR DE MEIO AMBIENTE 20.574,59 8.229,84 0,00 0,00 0,00 0,00 0,00 2.078,00 30.882,43 4.389,66 4.598,65 0,00 0,00 8.988,31 21.894,12 31/03/2023
463 538300 CARLOS RANGEL SILVA DE MELO ANALISTA DO MP BELO HORIZONTE - COMARCA; DIVISAO DE CONTROLE IMOBILIARIO 11.008,33 4.403,33 0,00 0,00 0,00 0,00 0,00 3.978,00 19.389,66 2.246,81 2.750,97 0,00 0,00 4.997,78 14.391,88 31/03/2023
464 265100 CARLOS REIFF MIRANDA ANALISTA DO MP BELO HORIZONTE - COMARCA; BH-19PJ SAUDE-SECRETARIA 150PJ 20.574,59 6.172,38 0,00 0,00 0,00 0,00 0,00 2.078,00 28.824,97 4.060,46 5.369,43 0,00 0,00 9.429,89 19.395,08 31/03/2023
465 305400 CARLOS ROCHA DE SOUZA OFICIAL DO MP MONTALVÂNIA - COMARCA; MONTALVANIA-PJ-SECRETARIA 6.694,66 2.008,40 0,00 0,00 0,00 0,00 0,00 2.282,05 10.985,11 1.173,44 992,74 0,00 0,00 2.166,18 8.818,93 31/03/2023
466 399900 CARMELITA EVANGELISTA DE SOUZA OFICIAL DO MP JOÃO PINHEIRO - COMARCA; JOAO PINHEIRO-PJ-01PJ 9.684,23 1.936,85 0,00 0,00 0,00 0,00 511,33 7.656,12 19.788,53 1.640,32 1.875,35 0,00 0,00 3.515,67 16.272,86 31/03/2023
467 202000 CARMEN LUCIA MARIZ DE MACEDO OFICIAL DO MP BELO HORIZONTE - COMARCA; DIRETORIA GESTAO COMPRAS LICITACOES 18.312,36 12.818,66 4.846,91 0,00 0,00 0,00 520,12 7.751,96 44.250,01 4.761,91 7.468,95 515,71 0,00 12.746,57 31.503,44 31/03/2023
468 701900 CAROLINA CARVALHO COSTA ASSESSOR PROCURADOR JUSTICA BELO HORIZONTE - COMARCA; GABINETE DE PROCURADOR DE JUSTIÇA - SALA 811 0,00 0,00 7.857,77 0,00 0,00 0,00 0,00 2.078,00 9.935,77 877,22 1.462,79 0,00 0,00 2.340,01 7.595,76 31/03/2023
469 228500 CAROLINA CHIARELLA DOS SANTOS RIBEIRO COORDENADOR I BELO HORIZONTE - COMARCA; DIVISAO TRANSPORTES 14.687,60 5.875,04 0,00 0,00 0,00 0,00 0,00 2.078,00 22.640,64 2.246,81 4.063,22 0,00 0,00 6.310,03 16.330,61 31/03/2023
470 446500 CAROLINA COSTA VAL RODRIGUES ANALISTA DO MP BELO HORIZONTE - COMARCA; DIVISAO DE MATERIAIS 15.659,55 4.697,87 4.406,28 0,00 0,00 0,00 544,80 8.021,29 33.329,79 3.038,14 5.105,17 0,00 0,00 8.143,31 25.186,48 31/03/2023
471 603501 CAROLINA DOMINGOS BRANDAO RABELLO ANALISTA DO MP BARROSO - COMARCA; BARROSO-PJ-01PJ 11.008,33 1.100,83 0,00 0,00 0,00 0,00 0,00 3.978,00 16.087,16 1.718,41 1.988,10 0,00 0,00 3.706,51 12.380,65 31/03/2023
472 404300 CAROLINA DOS SANTOS VIEIRA ANALISTA DO MP BELO HORIZONTE - COMARCA; BH-08PJ JUIZADO ESPECIAL-SECRETARIA 16.695,70 3.339,14 0,00 0,00 0,00 0,00 73,46 2.879,39 22.987,69 2.986,52 3.714,65 0,00 0,00 6.701,17 16.286,52 31/03/2023
473 551200 CAROLINA LOPES ARANTES MASCARENHAS ANALISTA DO MP BELO HORIZONTE - COMARCA; CAO-VIOLENCIA DOMESTICA E FAMILIAR 11.008,33 1.100,83 0,00 0,00 4.036,39 0,00 532,80 7.890,40 24.568,75 1.718,41 2.993,83 0,00 0,00 4.712,24 19.856,51 31/03/2023
474 622600 CAROLINA LOREDO LOPES CATIZANI OFICIAL DO MP RIBEIRÃO DAS NEVES - COMARCA; RIBEIRAO DAS NEVES-PJ-12PJ 6.081,20 608,12 0,00 0,00 0,00 0,00 0,00 2.078,00 8.767,32 855,73 734,88 0,00 0,00 1.590,61 7.176,71 31/03/2023
475 382200 CAROLINA MENDES CHAVES LIN ANALISTA DO MP BELO HORIZONTE - COMARCA; BH-12PJ JUIZO CRIMINAL-GAB 088PJ 11.008,33 3.302,50 0,00 0,00 0,00 0,00 1.100,83 3.028,00 18.439,66 2.246,81 2.698,84 0,00 0,00 4.945,65 13.494,01 31/03/2023
476 461900 CAROLINA MURTA TEIXEIRA DIAS ANALISTA DO MP BELO HORIZONTE - COMARCA; CENTRO AUTOCOMPOSICAO DE CONFLITOS 11.008,33 2.201,67 0,00 0,00 0,00 0,00 0,00 2.078,00 15.288,00 1.894,55 2.242,39 0,00 0,00 4.136,94 11.151,06 31/03/2023
477 509600 CAROLINA PINTO DE OLIVEIRA SOUZA ANALISTA DO MP MURIAÉ - COMARCA; MURIAE-PJ-01PJ 11.008,33 2.201,67 0,00 0,00 0,00 0,00 145,31 4.613,20 17.968,51 1.894,55 2.138,11 0,00 0,00 4.032,66 13.935,85 31/03/2023
478 629100 CAROLINA RODRIGUES AMARAL ANALISTA DO MP BELO HORIZONTE - COMARCA; PROC. JUSTICA DIR. DIFUSOS E COLETIVOS-SEC 10.325,15 1.032,52 0,00 0,00 0,00 0,00 0,00 2.078,00 13.435,67 1.598,18 1.814,50 0,00 0,00 3.412,68 10.022,99 31/03/2023
479 502600 CAROLINA RODRIGUES RUBEN ANALISTA DO MP BELO HORIZONTE - COMARCA; BH-18PJ VIOLENCIA DOMESTICA-GAB 007PJ 11.008,33 2.201,67 0,00 0,00 0,00 0,00 145,31 5.563,20 18.918,51 1.894,55 2.138,11 0,00 0,00 4.032,66 14.885,85 31/03/2023
480 529600 CAROLINA VAZ DE MELO MAMBRINI ANALISTA DO MP BELO HORIZONTE - COMARCA; BH-14PJ DEFESA CONSUMIDOR-GAB 005PJ 11.008,33 2.201,67 0,00 0,00 0,00 0,00 1.100,83 2.078,00 16.388,83 2.070,68 2.496,68 0,00 0,00 4.567,36 11.821,47 31/03/2023
481 619100 CAROLINA ZAKHIA NARDELLI RODRIGUES ANALISTA DO MP NEPOMUCENO - COMARCA; NEPOMUCENO-PJ-UNPJ 10.325,15 1.032,52 0,00 0,00 0,00 0,00 0,00 3.028,00 14.385,67 1.598,18 1.762,36 0,00 0,00 3.360,54 11.025,13 31/03/2023
482 517600 CAROLINE ALVES DE OLIVEIRA MULLER ANALISTA DO MP VISCONDE DO RIO BRANCO - COMARCA; VISCONDE DO RIO BRANCO-PJ-01PJ 11.008,33 2.201,67 0,00 0,00 0,00 0,00 0,00 2.078,00 15.288,00 1.894,55 2.190,25 0,00 0,00 4.084,80 11.203,20 31/03/2023
483 373200 CAROLINE ANTUNES RIBEIRO OFICIAL DO MP JACUI - COMARCA; JACUI-PJ-UNPJ 11.008,33 3.302,50 0,00 0,00 0,00 0,00 1.347,05 4.764,04 20.421,92 2.246,81 2.698,84 0,00 0,00 4.945,65 15.476,27 31/03/2023
484 723500 CAROLINE CORDEIRO FERNANDES MACHADO ASSESSOR PROMOTOR JUSTICA BELO HORIZONTE - COMARCA; COORD DE INCLUSAO E MOBILIZACAO SOCIAIS 0,00 0,00 7.857,77 0,00 0,00 0,00 0,00 2.078,00 9.935,77 877,22 1.462,79 0,00 0,00 2.340,01 7.595,76 31/03/2023
485 556800 CAROLINE DE SOUZA CARDOSO DOMINGUES OFICIAL DO MP BRASÍLIA DE MINAS - COMARCA; BRASILIA DE MINAS-PJ-02PJ 6.694,66 669,47 0,00 0,00 0,00 0,00 0,00 2.078,00 9.442,13 959,93 891,80 0,00 0,00 1.851,73 7.590,40 31/03/2023
486 499400 CAROLINE MARQUES DE LOURDES MARZULLO OFICIAL DO MP JUIZ DE FORA - COMARCA; JUIZ DE FORA-PJ-08PJ 9.378,86 1.875,77 0,00 0,00 0,00 0,00 0,00 3.503,00 14.757,63 982,16 1.878,28 0,00 0,00 2.860,44 11.897,19 31/03/2023
487 616800 CAROLINE MONTEIRO DE BARROS ANALISTA DO MP CONTAGEM - COMARCA; CONTAGEM-PJ-11PJ 10.325,15 1.032,52 0,00 0,00 0,00 0,00 0,00 3.028,00 14.385,67 982,16 1.904,50 0,00 0,00 2.886,66 11.499,01 31/03/2023
488 618100 CAROLINE VASCONCELOS COSTA LANZA ANALISTA DO MP PARAOPEBA - COMARCA; PARAOPEBA-PJ-UNPJ 10.325,15 1.032,52 0,00 0,00 0,00 0,00 0,00 3.978,00 15.335,67 1.598,18 1.814,50 0,00 0,00 3.412,68 11.922,99 31/03/2023
489 699000 CAROLLINA RODRIGUES SOUTO AMARAL ASSESSOR PROCURADOR JUSTICA BELO HORIZONTE - COMARCA; GABINETE DE PROCURADOR DE JUSTIÇA - SALA 405 0,00 0,00 7.857,77 0,00 0,00 0,00 0,00 2.078,00 9.935,77 877,22 1.462,79 0,00 0,00 2.340,01 7.595,76 31/03/2023
490 604000 CASSIA APARECIDA DA SILVA OFICIAL DO MP PARACATU - COMARCA; PARACATU-PJ-01PJ 6.694,66 669,47 0,00 0,00 0,00 0,00 0,00 2.078,00 9.442,13 959,93 891,80 0,00 0,00 1.851,73 7.590,40 31/03/2023
491 268800 CASSIA BEATRIZ TEIXEIRA OFICIAL DO MP BELO HORIZONTE - COMARCA; PROC. JUSTICA DE HABEAS CORPUS 15.659,55 4.697,87 3.876,29 0,00 0,00 0,00 533,14 7.894,09 32.660,94 3.038,14 4.959,42 0,00 0,00 7.997,56 24.663,38 31/03/2023
492 500000 CASSIA DE OLIVEIRA COSTA VIANA ANALISTA DO MP SETE LAGOAS - COMARCA; SETE LAGOAS-PJ-09PJ 11.008,33 7.705,83 0,00 0,00 0,00 0,00 0,00 2.078,00 20.792,16 2.775,21 3.513,85 0,00 0,00 6.289,06 14.503,10 31/03/2023
493 368800 CASSIA LUISA BATISTA MENDONCA WEBER COORDENADOR II BELO HORIZONTE - COMARCA; DIVISÃO DE EDUCAÇÃO PARA O CONSUMO 18.312,36 5.493,71 0,00 0,00 0,00 0,00 523,73 7.791,46 32.121,26 1.699,33 5.209,99 0,00 0,00 6.909,32 25.211,94 31/03/2023
494 622200 CASSIA VAZ DE AZEVEDO LISBOA MARZANO ASSESSOR ADMINISTRATIVO III BELO HORIZONTE - COMARCA; CGMP-SECRETARIA DA CORREGEDORIA-GERAL DO MP 0,00 0,00 9.684,23 0,00 0,00 0,00 0,00 2.078,00 11.762,23 877,22 1.808,66 0,00 0,00 2.685,88 9.076,35 31/03/2023
495 121000 CASSIO HENRIQUE AFONSO DA SILVA OFICIAL DO MP BELO HORIZONTE - COMARCA; CGMP-ASSESSORIA JURIDICA 20.574,59 16.459,68 0,00 0,00 0,00 0,00 520,11 7.751,95 45.306,33 5.454,90 7.278,38 1.572,05 0,00 14.305,33 31.001,00 31/03/2023
496 512001 CATARINA NATALINO CALIXTO COORDENADOR II BELO HORIZONTE - COMARCA; DIRETORIA GESTAO TRANSPORTES 18.312,36 1.831,24 0,00 0,00 0,00 0,00 0,00 3.028,00 23.171,60 1.598,18 4.230,63 0,00 0,00 5.828,81 17.342,79 31/03/2023
497 606200 CATARINE DE SIQUEIRA DE QUADROS ANALISTA DO MP CONTAGEM - COMARCA; CONTAGEM-PJ-08PJ 11.008,33 1.100,83 0,00 0,00 0,00 0,00 44,40 3.512,37 15.665,93 1.718,41 1.883,82 0,00 0,00 3.602,23 12.063,70 31/03/2023
498 622300 CECILIA APARECIDA PEREIRA ASSUNCAO OFICIAL DO MP TRÊS PONTAS - COMARCA; TRES PONTAS-PJ-SECRETARIA 7.137,75 713,78 0,00 0,00 0,00 0,00 0,00 3.028,00 10.879,53 1.037,19 952,45 0,00 0,00 1.989,64 8.889,89 31/03/2023
499 538000 CECILIA FONTES DE MATOS PIMENTEL ANALISTA DO MP PALMA - COMARCA; PALMA-PJ-UNPJ 11.008,33 2.201,67 0,00 0,00 0,00 0,00 1.100,83 3.028,00 17.338,83 2.070,68 2.496,68 0,00 0,00 4.567,36 12.771,47 31/03/2023
500 261300 CECILIO ANTONIO CAMPOS DOS REIS ANALISTA DO MP BELO HORIZONTE - COMARCA; AUDITORIA INTERNA 20.574,59 8.229,84 0,00 0,00 0,00 0,00 0,00 2.078,00 30.882,43 4.389,66 5.844,70 0,00 0,00 10.234,36 20.648,07 31/03/2023
501 386400 CEFAS AMORELI DE FIGUEIREDO OFICIAL DO MP CABO VERDE - COMARCA; CABO VERDE-PJ-SECRETARIA 6.694,66 2.008,40 0,00 0,00 0,00 0,00 706,29 2.479,68 11.889,03 1.280,55 1.355,93 0,00 0,00 2.636,48 9.252,55 31/03/2023
502 421000 CELINA BENEDITA DE SOUZA ALMEIDA OFICIAL DO MP CAMBUÍ - COMARCA; CAMBUI-PJ-01PJ 9.999,62 6.999,73 0,00 0,00 0,00 0,00 498,65 7.517,79 25.015,79 2.500,84 3.065,59 0,00 0,00 5.566,43 19.449,36 31/03/2023
503 252900 CELIO DE MELO CASTOR ANALISTA DO MP BELO HORIZONTE - COMARCA; DIVISAO FROTA 20.574,59 8.229,84 0,00 0,00 0,00 0,00 0,00 2.078,00 30.882,43 4.389,66 5.844,70 0,00 0,00 10.234,36 20.648,07 31/03/2023
504 395700 CELIO FERREIRA LIMA OFICIAL DO MP CONTAGEM - COMARCA; CONTAGEM-PJ-SECRETARIA 10.661,25 2.132,25 0,00 0,00 0,00 0,00 0,00 2.078,00 14.871,50 1.827,91 2.094,04 0,00 0,00 3.921,95 10.949,55 31/03/2023
505 281300 CELMA REGINA PEREIRA SANTOS ANALISTA DO MP BELO HORIZONTE - COMARCA; PROMOT ESTADUAL DE DEF PATRI CULT E TUR DE MG 20.574,59 6.172,38 0,00 0,00 0,00 0,00 490,36 7.427,39 34.664,72 4.060,46 5.369,43 0,00 0,00 9.429,89 25.234,83 31/03/2023
506 535600 CELSO MEDEIROS DE PAIVA OFICIAL DO MP RIO PRETO - COMARCA; RIO PRETO-PJ-SECRETARIA 6.694,66 1.338,93 0,00 0,00 0,00 0,00 730,84 2.747,47 11.511,90 1.173,44 1.149,15 0,00 0,00 2.322,59 9.189,31 31/03/2023
507 367000 CESAR NARVAES DE AVELAR OFICIAL DO MP BELO HORIZONTE - COMARCA; DIRET DE INFORMACAO E CONHECIMENTO-DINC/CEAF 11.008,33 3.302,50 0,00 0,00 0,00 0,00 0,00 2.078,00 16.388,83 2.070,68 2.496,68 0,00 0,00 4.567,36 11.821,47 31/03/2023
508 226500 CESAR SILVEIRA BARROUIN OFICIAL DO MP BELO HORIZONTE - COMARCA; DIRETORIA DE ADMINISTRACAO FINANCEIRA 15.659,55 7.829,78 0,00 0,00 0,00 0,00 516,77 7.715,44 31.721,54 3.539,24 4.616,91 0,00 0,00 8.156,15 23.565,39 31/03/2023
509 121400 CEZAR MORENO CONCEICAO TAVARES OFICIAL DO MP BELO HORIZONTE - COMARCA; COORD DE INCLUSAO E MOBILIZACAO SOCIAIS 19.791,01 15.832,81 0,00 0,00 0,00 5.454,90 450,08 7.938,06 49.466,86 5.454,90 8.778,48 161,60 0,00 14.394,98 35.071,88 31/03/2023
510 243800 CHARLES MARTINS MUNIZ OFICIAL DO MP BELO HORIZONTE - COMARCA; LAB TECNOLOGIA CONTRA LAVAGEM DINHEIRO 15.659,55 6.263,82 0,00 0,00 0,00 0,00 482,31 6.761,61 29.167,29 3.288,69 4.255,18 0,00 0,00 7.543,87 21.623,42 31/03/2023
511 193500 CHARLIN CESAR KOURLY OFICIAL DO MP ARAGUARI - COMARCA; ARAGUARI-PJ-07PJ 19.037,29 7.614,92 0,00 0,00 0,00 0,00 488,62 7.408,44 34.549,27 4.045,30 5.347,54 0,00 0,00 9.392,84 25.156,43 31/03/2023
512 385500 CHILLEN PEIXOTO DE MOURA OFICIAL DO MP BELO HORIZONTE - COMARCA; DIVISAO DE MATERIAIS 10.661,25 3.198,38 0,00 0,00 0,00 0,00 1.066,13 3.028,00 17.953,76 2.169,07 2.638,73 0,00 0,00 4.807,80 13.145,96 31/03/2023
513 534500 CHRISTIAN DOUGLAS BRITO RUAS OFICIAL DO MP SÃO JOÃO DA PONTE - COMARCA; SAO JOAO DA PONTE-PJ-SECRETARIA 6.694,66 1.338,93 0,00 0,00 223,16 0,00 730,84 3.003,07 11.990,66 1.173,44 1.262,65 0,00 0,00 2.436,09 9.554,57 31/03/2023
514 370600 CHRISTIAN KARINE FELIX PRATES ASSESSOR ADMINISTRATIVO IV BELO HORIZONTE - COMARCA; SUPRIN DE PLANEJAMENTO E COORDENACAO 0,00 0,00 12.920,95 0,00 0,00 0,00 0,00 2.078,00 14.998,95 877,22 2.855,17 0,00 0,00 3.732,39 11.266,56 31/03/2023
515 435800 CHRISTIANA BAHIA ANDRADE PINA ANALISTA DO MP BELO HORIZONTE - COMARCA; LABORATORIO TECNOLOGIA INTELIGENCIA 16.169,47 3.233,89 0,00 0,00 6.467,79 0,00 498,02 7.510,94 33.880,11 2.885,49 5.451,70 0,00 0,00 8.337,19 25.542,92 31/03/2023
516 516800 CHRISTIANE FERREIRA DO NASCIMENTO ANALISTA DO MP POUSO ALEGRE - COMARCA; POUSO ALEGRE-PJ-08PJ 11.008,33 2.201,67 0,00 0,00 0,00 0,00 0,00 2.078,00 15.288,00 1.894,55 2.242,39 0,00 0,00 4.136,94 11.151,06 31/03/2023
517 176000 CHRISTIANE JUNQUEIRA PULITI ANDRADE DE BARROS ASSESSOR ADM. ESPECIAL BELO HORIZONTE - COMARCA; PROCURADORIA-GERAL ADJUNTA INSTITUCIONAL 0,00 19.986,35 24.982,93 0,00 0,00 5.454,90 450,08 6.988,05 57.862,31 5.454,90 8.882,75 9.507,06 0,00 23.844,71 34.017,60 31/03/2023
518 319200 CHRISTIANE MARIA DE ASSIS RUSSO OFICIAL DO MP BELO HORIZONTE - COMARCA; CAO-ORDEM ECONOMICA E TRIBUTARIA-SECRETARIA 13.776,02 4.132,81 0,00 0,00 0,00 0,00 0,00 3.028,00 20.936,83 2.646,36 3.275,68 0,00 0,00 5.922,04 15.014,79 31/03/2023
519 510300 CHRISTIANE MARY DE CARVALHO FERREIRA ANALISTA DO MP BELO HORIZONTE - COMARCA; DIRETORIA DE SISTEMAS DE INFORMACAO 11.008,33 2.201,67 0,00 0,00 0,00 0,00 0,00 2.078,00 15.288,00 1.894,55 2.190,25 0,00 0,00 4.084,80 11.203,20 31/03/2023
520 424900 CHRISTIANE PEREIRA TURNER DE ARAUJO OFICIAL DO MP BELO HORIZONTE - COMARCA; CAO-PATRIMONIO PUBLICO 9.999,62 1.999,92 0,00 0,00 0,00 0,00 44,00 3.507,98 15.551,52 1.700,87 1.858,50 0,00 0,00 3.559,37 11.992,15 31/03/2023
521 731000 CHRISTIANE TEIXEIRA ANTUNA ASSESSOR ADMINISTRATIVO II BELO HORIZONTE - COMARCA; DIR CONTEUDO JORNALISTICO 0,00 0,00 6.694,66 0,00 0,00 0,00 0,00 2.078,00 8.772,66 877,22 1.142,94 0,00 0,00 2.020,16 6.752,50 31/03/2023
522 513700 CHRISTIANE VIEIRA SOARES PEDERSOLI COORDENADOR II BELO HORIZONTE - COMARCA; ASSESSORIA JURIDICA DO PROCON-MG 18.312,36 3.662,47 0,00 0,00 0,00 0,00 483,45 8.301,96 30.760,24 1.894,55 4.652,72 0,00 0,00 6.547,27 24.212,97 31/03/2023
523 412300 CHRYSTIAN MACHADO RIBEIRO ANALISTA DO MP VARGINHA - COMARCA; VARGINHA-PJ-04PJ 16.169,47 3.233,89 0,00 0,00 0,00 0,00 498,02 7.510,94 27.412,32 2.885,49 3.673,05 0,00 0,00 6.558,54 20.853,78 31/03/2023
524 513800 CHRYSTIANE DO NASCIMENTO DE MAGALHAES OFICIAL DO MP UBERLÂNDIA - COMARCA; UBERLANDIA-PJ-10PJ 8.650,50 1.730,10 0,00 0,00 0,00 0,00 0,00 2.078,00 12.458,60 1.441,84 1.484,52 0,00 0,00 2.926,36 9.532,24 31/03/2023
525 497900 CIBELE DE FREITAS SANCHES DIAS ANALISTA DO MP SABARÁ - COMARCA; SABARA-PJ-03PJ 11.008,33 2.201,67 0,00 0,00 0,00 0,00 532,80 7.890,40 21.633,20 982,16 2.323,54 0,00 0,00 3.305,70 18.327,50 31/03/2023
526 500900 CIBELLE SILVA PRADO ALVARENGA ANALISTA DO MP ITANHANDU - COMARCA; ITANHANDU-PJ-UNPJ 11.008,33 2.201,67 0,00 0,00 0,00 0,00 145,31 4.613,20 17.968,51 1.894,55 2.242,39 0,00 0,00 4.136,94 13.831,57 31/03/2023
527 296400 CINTIA APARECIDA MOREIRA NAVES E RODRIGUES ANALISTA DO MP CAMPO BELO - COMARCA; CAMPO BELO-PJ-01PJ 20.574,59 6.172,38 0,00 0,00 0,00 0,00 490,36 7.427,39 34.664,72 4.060,46 5.369,43 0,00 0,00 9.429,89 25.234,83 31/03/2023
528 407900 CINTIA NETO COMELLI ANALISTA DO MP BELO HORIZONTE - COMARCA; CENTRAL DE APOIO TECNICO-SETOR CONTABIL 16.169,47 3.233,89 0,00 0,00 0,00 0,00 0,00 2.078,00 21.481,36 2.885,49 3.620,92 0,00 0,00 6.506,41 14.974,95 31/03/2023
529 304700 CINTIA QUEIROZ OFICIAL DO MP BELO HORIZONTE - COMARCA; OUVIDORIA DO MPMG 11.008,33 3.302,50 0,00 0,00 0,00 0,00 262,37 4.940,17 19.513,37 2.070,68 2.496,68 0,00 0,00 4.567,36 14.946,01 31/03/2023
530 286100 CIRO CANGUSSU CORDEIRO OFICIAL DO MP IPATINGA - COMARCA; IPATINGA-PJ-09PJ 9.378,86 2.813,66 0,00 0,00 0,00 0,00 44,71 3.515,70 15.752,93 1.731,75 1.903,08 0,00 0,00 3.634,83 12.118,10 31/03/2023
531 689900 CISSA NOGUEIRA COLEN ASSESSOR PROCURADOR JUSTICA BELO HORIZONTE - COMARCA; GABINETE DE PROCURADOR DE JUSTIÇA - SALA 608 0,00 0,00 7.857,77 0,00 0,00 0,00 0,00 2.078,00 9.935,77 877,22 1.462,79 0,00 0,00 2.340,01 7.595,76 31/03/2023
532 681700 CLARA FERREIRA ALKIMIM ASSESSOR PROMOTOR JUSTICA PEDRA AZUL - COMARCA; PEDRA AZUL-PJ-02PJ 0,00 0,00 7.857,77 0,00 0,00 0,00 0,00 2.078,00 9.935,77 877,22 1.462,79 0,00 0,00 2.340,01 7.595,76 31/03/2023
533 715500 CLARA ISABELLE SOUSA FARIA ASSESSOR PROCURADOR JUSTICA BELO HORIZONTE - COMARCA; GABINETE DE PROCURADOR DE JUSTIÇA - SALA 712 0,00 0,00 7.857,77 0,00 0,00 0,00 0,00 2.078,00 9.935,77 877,22 1.462,79 0,00 0,00 2.340,01 7.595,76 31/03/2023
534 723100 CLARA PRADO CAMPOS ASSESSOR PROCURADOR JUSTICA BELO HORIZONTE - COMARCA; GABINETE DE PROCURADOR DE JUSTIÇA - SALA 1006 0,00 0,00 7.857,77 0,00 0,00 0,00 0,00 2.078,00 9.935,77 877,22 1.462,79 0,00 0,00 2.340,01 7.595,76 31/03/2023
535 695500 CLARA RODRIGUES BLACH ASSESSOR PROCURADOR JUSTICA BELO HORIZONTE - COMARCA; GABINETE DE PROCURADOR DE JUSTIÇA - SALA 1003 0,00 0,00 7.857,77 0,00 0,00 0,00 0,00 2.078,00 9.935,77 877,22 1.462,79 0,00 0,00 2.340,01 7.595,76 31/03/2023
536 412500 CLARICE GOMES MAROTTA ANALISTA DO MP BELO HORIZONTE - COMARCA; COORD ESTADUAL DE DEFESA DOS ANIMAIS 16.169,47 6.467,79 0,00 0,00 0,00 0,00 498,02 7.510,94 30.646,22 3.402,91 4.420,09 0,00 0,00 7.823,00 22.823,22 31/03/2023
537 605300 CLARISSA AZEVEDO ROCHA OFICIAL DO MP BELO HORIZONTE - COMARCA; BH-17PJ PATRIMONIO PUBLICO-SECRETARIA 6.694,66 669,47 0,00 0,00 0,00 0,00 0,00 2.078,00 9.442,13 959,93 891,80 0,00 0,00 1.851,73 7.590,40 31/03/2023
538 308100 CLARISSA DUARTE BELLONI DIRETOR-GERAL BELO HORIZONTE - COMARCA; DIRETORIA-GERAL 30.917,06 9.275,12 0,00 0,00 0,00 0,00 520,12 10.601,96 51.314,26 4.060,46 7.661,85 4.729,96 0,00 16.452,27 34.861,99 31/03/2023
539 730500 CLARISSA FERNANDES ABREU ASSESSOR PROMOTOR JUSTICA SANTOS DUMONT - COMARCA; SANTOS DUMONT-PJ-02PJ 0,00 0,00 7.857,77 0,00 0,00 0,00 0,00 2.078,00 9.935,77 877,22 1.462,79 0,00 0,00 2.340,01 7.595,76 31/03/2023
540 497100 CLARISSA ROCHA GUIDI ANALISTA DO MP BELO HORIZONTE - COMARCA; BH-02PJ FAMILIA-SECRETARIA 13.341,69 2.668,34 0,00 0,00 0,00 0,00 0,00 3.978,00 19.988,03 2.342,55 2.837,06 0,00 0,00 5.179,61 14.808,42 31/03/2023
541 641800 CLARISSE TAVARES GONCALVES OFICIAL DO MP BELO HORIZONTE - COMARCA; BH-07PJ 01 TRIBUNAL JURI-SECRETARIA 6.483,63 648,36 0,00 0,00 0,00 0,00 0,00 2.078,00 9.209,99 923,95 837,85 0,00 0,00 1.761,80 7.448,19 31/03/2023
542 463700 CLAUDIA ADRIANA FERRAO DIAS ANALISTA DO MP SETE LAGOAS - COMARCA; SETE LAGOAS-PJ-06PJ 11.008,33 2.201,67 0,00 0,00 0,00 0,00 0,00 2.078,00 15.288,00 1.894,55 2.242,39 0,00 0,00 4.136,94 11.151,06 31/03/2023
543 415400 CLAUDIA ALMEIDA DE VASCONCELLOS BARROS OFICIAL DO MP BELO HORIZONTE - COMARCA; DIVISAO DE SERVICOS 9.684,23 1.936,85 3.585,64 0,00 0,00 0,00 501,82 7.552,42 23.260,96 1.640,32 2.861,40 0,00 0,00 4.501,72 18.759,24 31/03/2023
544 207000 CLAUDIA APARECIDA VILELA MACHADO ANALISTA DO MP BELO HORIZONTE - COMARCA; CENTRAL DE APOIO TECNICO-SETOR CONTABIL 20.574,59 10.287,30 0,00 0,00 0,00 0,00 452,64 7.015,90 38.330,43 4.718,85 6.163,56 0,00 0,00 10.882,41 27.448,02 31/03/2023
545 365700 CLAUDIA BREGUEZ CUNHA ANALISTA DO MP VARGINHA - COMARCA; VARGINHA-PJ-07PJ 18.312,36 5.493,71 0,00 0,00 0,00 0,00 0,00 3.028,00 26.834,07 3.589,92 4.690,08 0,00 0,00 8.280,00 18.554,07 31/03/2023
546 430500 CLAUDIA CECILIA SANTANA VENCESLAU OFICIAL DO MP BELO HORIZONTE - COMARCA; LAB TECNOLOGIA CONTRA LAVAGEM DINHEIRO 9.999,62 1.999,92 0,00 0,00 0,00 0,00 44,00 2.557,98 14.601,52 1.700,87 1.910,64 0,00 0,00 3.611,51 10.990,01 31/03/2023
547 213601 CLAUDIA GONCALVES CALIXTO ASSESSOR PROCURADOR JUSTICA BELO HORIZONTE - COMARCA; PROC. JUSTICA DIR. DIFUSOS E COLETIVOS-SEC 0,00 0,00 7.857,77 0,00 0,00 0,00 0,00 2.078,00 9.935,77 877,22 1.462,79 0,00 0,00 2.340,01 7.595,76 31/03/2023
548 480400 CLAUDIA GOULART DE SOUZA OFICIAL DO MP PASSOS - COMARCA; PASSOS-PJ-06PJ 9.378,86 2.813,66 0,00 0,00 0,00 0,00 44,71 2.565,70 14.802,93 1.731,75 2.007,35 0,00 0,00 3.739,10 11.063,83 31/03/2023
549 519800 CLAUDIA HELENA CORREA DE ALMEIDA ANALISTA DO MP BELO HORIZONTE - COMARCA; BH-12PJ JUIZO CRIMINAL-GAB 096PJ 11.008,33 2.201,67 0,00 0,00 0,00 0,00 145,31 3.663,20 17.018,51 1.894,55 2.242,39 0,00 0,00 4.136,94 12.881,57 31/03/2023
550 422100 CLAUDIA IACOMINI CABRAL ANALISTA DO MP BELO HORIZONTE - COMARCA; CENT DE APOIO TEC-SETOR DEF,IDOSO E INFANC 16.169,47 11.318,64 0,00 0,00 0,00 0,00 503,95 7.575,62 35.567,68 4.179,05 5.540,63 0,00 0,00 9.719,68 25.848,00 31/03/2023
551 258200 CLAUDIA LAGE MICHALAROS ANALISTA DO MP BELO HORIZONTE - COMARCA; CENTRAL DE APOIO TECN-SETOR DE MEIO AMBIENTE 20.574,59 16.459,68 0,00 0,00 0,00 5.454,90 0,00 2.078,00 44.567,17 5.454,90 8.882,75 1.572,05 0,00 15.909,70 28.657,47 31/03/2023
552 284600 CLAUDIA LENI DE FREITAS OFICIAL DO MP CONTAGEM - COMARCA; CONTAGEM-PJ-SECRETARIA 6.694,66 3.347,33 0,00 0,00 0,00 1.387,67 0,00 2.078,00 13.507,66 1.387,67 1.892,19 0,00 0,00 3.279,86 10.227,80 31/03/2023
553 433600 CLAUDIA LUIZA SANTIAGO FELICIO ANALISTA DO MP BELO HORIZONTE - COMARCA; CENT DE APOIO TEC-SETOR DEF,IDOSO E INFANC 16.169,47 3.233,89 0,00 0,00 0,00 0,00 0,00 2.078,00 21.481,36 2.885,49 3.568,78 0,00 0,00 6.454,27 15.027,09 31/03/2023
554 317000 CLAUDIA MACHADO ALVES OFICIAL DO MP BELO HORIZONTE - COMARCA; DIR GOVERNANCA TECNOLOGIA INFORMACAO 11.008,33 3.302,50 3.585,64 0,00 0,00 0,00 524,96 7.804,87 26.226,30 2.070,68 3.482,73 0,00 0,00 5.553,41 20.672,89 31/03/2023
555 155300 CLAUDIA MACIEL MIRANDA OFICIAL DO MP CONGONHAS - COMARCA; CONGONHAS-PJ-02PJ 19.791,01 13.853,71 0,00 0,00 0,00 0,00 0,00 2.078,00 35.722,72 5.164,10 6.858,54 0,00 0,00 12.022,64 23.700,08 31/03/2023
556 242200 CLAUDIA MICHELLE DIAS MUNIZ BALEEIRO OFICIAL DO MP MONTE AZUL - COMARCA; MONTE AZUL-PJ-SECRETARIA 15.659,55 7.829,78 0,00 0,00 0,00 0,00 516,77 7.715,44 31.721,54 3.539,24 4.564,78 0,00 0,00 8.104,02 23.617,52 31/03/2023
557 623000 CLAUDIA PATRICIA SILVA RODRIGUES RAPOSEIRAS OFICIAL DO MP BELO HORIZONTE - COMARCA; DIVISÃO DE EDUCAÇÃO PARA O CONSUMO 6.694,66 669,47 0,00 0,00 0,00 0,00 0,00 2.616,33 9.980,46 959,93 839,66 0,00 0,00 1.799,59 8.180,87 31/03/2023
558 418400 CLAUDIA REGINA MARTINS BONIFACIO OFICIAL DO MP ITUIUTABA - COMARCA; ITUIUTABA-PJ-06PJ 9.999,62 1.999,92 0,00 0,00 0,00 0,00 44,00 2.557,98 14.601,52 1.700,87 1.858,50 0,00 0,00 3.559,37 11.042,15 31/03/2023
559 498300 CLAUDIA SOUTO FARIAS BRAUN OFICIAL DO MP TEÓFILO OTONI - COMARCA; TEOFILO OTONI-PJ-SECRETARIA 6.694,66 1.338,93 0,00 0,00 0,00 0,00 29,46 2.399,34 10.462,39 1.066,32 942,36 0,00 0,00 2.008,68 8.453,71 31/03/2023
560 206500 CLAUDIA VALERIA FONSECA ANDRADE ANALISTA DO MP BELO HORIZONTE - COMARCA; BH-23PJ INF-FISC MED SOC FEC 20.574,59 14.402,22 0,00 0,00 0,00 5.377,24 443,90 6.920,49 47.718,44 5.377,24 8.749,26 0,00 0,00 14.126,50 33.591,94 31/03/2023
561 277500 CLAUDIO ANTONIO BORGES BRUNSWICK ALVARES OFICIAL DO MP BELO HORIZONTE - COMARCA; BH-15PJ M AMB PAT HIST CULT-GAB 116PJ 11.008,33 3.302,50 0,00 0,00 0,00 0,00 0,00 2.078,00 16.388,83 2.070,68 2.496,68 0,00 0,00 4.567,36 11.821,47 31/03/2023
562 444800 CLAUDIO ARESIO DO CARMO ANALISTA DO MP SETE LAGOAS - COMARCA; SETE LAGOAS-PJ-01PJ 13.341,69 5.336,68 0,00 0,00 0,00 0,00 547,90 8.055,08 27.281,35 2.769,49 3.453,44 0,00 0,00 6.222,93 21.058,42 31/03/2023
563 545100 CLAUDIO HENRIQUE MACEDO DE SOUZA FRANSOZO ANALISTA DO MP OURO PRETO - COMARCA; OURO PRETO-PJ-03PJ 11.008,33 1.100,83 0,00 0,00 0,00 0,00 0,00 3.028,00 15.137,16 982,16 2.095,65 0,00 0,00 3.077,81 12.059,35 31/03/2023
564 353500 CLAUDIO HENRIQUE PEDRO DA ROCHA OFICIAL DO MP BELO HORIZONTE - COMARCA; DIVISAO TRANSPORTES 11.008,33 3.302,50 0,00 0,00 0,00 0,00 524,73 7.802,33 22.637,89 2.070,68 2.392,41 0,00 0,00 4.463,09 18.174,80 31/03/2023
565 265800 CLAUDIO KUPIDLOWSKY FERNANDES OFICIAL DO MP BELO HORIZONTE - COMARCA; SECRETARIA DO PROCON-MG 11.008,33 4.403,33 0,00 0,00 5.137,22 0,00 508,59 7.626,20 28.683,67 2.246,81 2.483,13 0,00 0,00 4.729,94 23.953,73 31/03/2023
566 193600 CLAUDIO LEITE FONTES OFICIAL DO MP ITUIUTABA - COMARCA; ITUIUTABA-PJ-02PJ 11.008,33 5.504,17 0,00 0,00 0,00 0,00 423,82 6.701,50 23.637,82 2.422,95 2.647,22 0,00 0,00 5.070,17 18.567,65 31/03/2023
567 329400 CLAUDIO MARCIO BERNARDES OFICIAL DO MP ITAÚNA - COMARCA; ITAUNA-PJ-03PJ 11.008,33 8.806,66 0,00 0,00 0,00 0,00 0,00 3.028,00 22.842,99 2.951,35 3.716,00 0,00 0,00 6.667,35 16.175,64 31/03/2023
568 270200 CLAUDIO RABELO ALVES OFICIAL DO MP FORMIGA - COMARCA; FORMIGA-PJ-03PJ 13.341,69 5.336,68 0,00 0,00 0,00 0,00 547,90 8.055,08 27.281,35 2.769,49 3.349,17 0,00 0,00 6.118,66 21.162,69 31/03/2023
569 264700 CLAUDIO ROBERTO KFURI DE ARAUJO ANALISTA DO MP BELO HORIZONTE - COMARCA; CENTRAL DE APOIO TECNICO-SETOR DE INFORMATICA 20.574,59 6.172,38 0,00 0,00 0,00 0,00 0,00 2.078,00 28.824,97 4.060,46 5.265,16 0,00 0,00 9.325,62 19.499,35 31/03/2023
570 543300 CLAUDIO SILVA DE CARVALHO ANALISTA DO MP CAMPO BELO - COMARCA; CAMPO BELO-PJ-03PJ 10.325,15 1.032,52 0,00 0,00 0,00 0,00 0,00 2.078,00 13.435,67 1.598,18 1.762,36 0,00 0,00 3.360,54 10.075,13 31/03/2023
571 160700 CLAUDIO VICENTE HESS ASSESSOR DE GABINETE I BELO HORIZONTE - COMARCA; CENTRAL DE APOIO TECNICO-SETOR DE INFORMATICA 0,00 8.084,74 16.169,47 0,00 0,00 0,00 533,59 7.899,01 32.686,81 877,22 5.867,54 0,00 0,00 6.744,76 25.942,05 31/03/2023
572 312900 CLAUDIO VIEIRA FIRPE OFICIAL DO MP BELO HORIZONTE - COMARCA; DIR RELACOES INSTITUCIONAIS 11.008,33 3.302,50 0,00 0,00 0,00 0,00 262,37 4.940,17 19.513,37 2.070,68 2.496,68 0,00 0,00 4.567,36 14.946,01 31/03/2023
573 634100 CLEA CRISTINA GUERRA DE FREITAS COSTA OFICIAL DO MP BELO HORIZONTE - COMARCA; BH-18PJ VIOLENCIA DOMESTICA-SECRETARIA 6.483,63 648,36 0,00 0,00 0,00 0,00 0,00 2.078,00 9.209,99 923,95 785,71 0,00 0,00 1.709,66 7.500,33 31/03/2023
574 459200 CLEIA ZILLE PEREIRA ANALISTA DO MP BELO HORIZONTE - COMARCA; BH-07PJ 01 TRIBUNAL DO JURI-GAB 059PJ 11.008,33 2.201,67 0,00 0,00 0,00 0,00 0,00 3.503,00 16.713,00 1.894,55 2.242,39 0,00 0,00 4.136,94 12.576,06 31/03/2023
575 481800 CLEIDE CARDOSO DA SILVA ANALISTA DO MP MANHUAÇU - COMARCA; MANHUACU-PJ-04PJ 11.008,33 2.201,67 0,00 0,00 0,00 0,00 0,00 2.078,00 15.288,00 1.894,55 2.138,11 0,00 0,00 4.032,66 11.255,34 31/03/2023
576 347600 CLEIDIMAR DE OLIVEIRA SILVA OFICIAL DO MP PATOS DE MINAS - COMARCA; PATOS DE MINAS-PJ-03PJ 11.008,33 4.403,33 0,00 0,00 0,00 0,00 339,06 5.776,80 21.527,52 2.246,81 2.542,42 0,00 0,00 4.789,23 16.738,29 31/03/2023
577 396500 CLEIDISON BATISTA DE ANDRADE OFICIAL DO MP RESPLENDOR - COMARCA; RESPLENDOR-PJ-UNPJ 9.999,62 1.999,92 0,00 0,00 0,00 0,00 44,00 2.557,98 14.601,52 1.700,87 1.858,50 0,00 0,00 3.559,37 11.042,15 31/03/2023
578 535100 CLEISON ALVES DA SILVA ANALISTA DO MP BOA ESPERANÇA - COMARCA; BOA ESPERANCA-PJ-01PJ 11.008,33 2.201,67 0,00 0,00 0,00 0,00 1.633,63 7.890,40 22.734,03 2.070,68 2.392,41 0,00 0,00 4.463,09 18.270,94 31/03/2023
579 298100 CLEONICE AUGUSTA BARROS DE OLIVEIRA ANALISTA DO MP JUIZ DE FORA - COMARCA; JUIZ DE FORA-PJ-08PJ 20.574,59 6.172,38 0,00 0,00 0,00 0,00 0,00 2.078,00 28.824,97 4.060,46 5.369,43 0,00 0,00 9.429,89 19.395,08 31/03/2023
580 114301 CLERES PEREIRA DA SILVA JUNIOR ASSESSOR ADMINISTRATIVO I BELO HORIZONTE - COMARCA; GAECO - SECRETARIA 0,00 0,00 3.331,61 0,00 0,00 0,00 0,00 1.737,09 5.068,70 454,87 271,93 0,00 0,00 726,80 4.341,90 31/03/2023
581 264100 CLETO HENRIQUE ANDRADE SILVA ANALISTA DO MP BELO HORIZONTE - COMARCA; DIRETORIA DE SISTEMAS DE INFORMACAO 20.574,59 6.172,38 0,00 0,00 0,00 0,00 0,00 2.078,00 28.824,97 4.060,46 5.265,16 0,00 0,00 9.325,62 19.499,35 31/03/2023
582 334400 CLEUBA DE OLIVEIRA BARCELOS GONCALVES OFICIAL DO MP DIVINÓPOLIS - COMARCA; COORD REG SAUDE MACRORREGIAO SANITARIA OESTE 11.008,33 3.302,50 0,00 0,00 0,00 0,00 262,37 4.940,17 19.513,37 2.070,68 2.444,54 0,00 0,00 4.515,22 14.998,15 31/03/2023
583 347500 CLEUSA CORDEIRO DA MATA PIMENTA OFICIAL DO MP CAMPO BELO - COMARCA; CAMPO BELO-PJ-01PJ 11.008,33 9.907,50 0,00 0,00 0,00 3.303,61 1.686,30 8.464,86 34.370,60 3.303,61 5.133,08 0,00 0,00 8.436,69 25.933,91 31/03/2023
584 510200 CLEZIO SALES SILVA OFICIAL DO MP BRASÓPOLIS - COMARCA; BRASOPOLIS-PJ-UNPJ 6.694,66 1.338,93 0,00 0,00 0,00 0,00 29,46 3.349,34 11.412,39 1.066,32 1.046,64 0,00 0,00 2.112,96 9.299,43 31/03/2023
585 323000 CLOTILDE DE PADUA VIEIRA OFICIAL DO MP BELO HORIZONTE - COMARCA; BH-19PJ SAUDE-SECRETARIA 129PJ 11.008,33 3.302,50 0,00 0,00 0,00 0,00 0,00 2.078,00 16.388,83 2.070,68 2.496,68 0,00 0,00 4.567,36 11.821,47 31/03/2023
586 285200 CLOVIS ANDRE LUDTKE OFICIAL DO MP BELO HORIZONTE - COMARCA; DIVISAO DE MANUTENCAO PREDIAL 11.736,91 3.521,07 0,00 0,00 0,00 0,00 391,62 6.350,23 21.999,83 2.222,23 2.715,47 0,00 0,00 4.937,70 17.062,13 31/03/2023
587 381100 CONCEICAO APARECIDA TEIXEIRA ARANTES ANALISTA DO MP BELO HORIZONTE - COMARCA; BH-23PJ INFRACIONAL-ASS JURIDICA 16.944,07 5.083,22 0,00 0,00 0,00 0,00 5.895,81 3.231,33 31.154,43 4.245,66 5.584,67 0,00 0,00 9.830,33 21.324,10 31/03/2023
588 249900 CONSTANTINO CEZAR GOMES MOTA OFICIAL DO MP MONTES CLAROS - COMARCA; COORD REG BACIA RIOS VERDE GRANDE E PARDO 11.008,33 4.403,33 0,00 0,00 0,00 0,00 0,00 3.978,00 19.389,66 2.246,81 2.646,70 0,00 0,00 4.893,51 14.496,15 31/03/2023
589 481000 CRISHMA ANALIA LOMBELLO ANALISTA DO MP JUIZ DE FORA - COMARCA; JUIZ DE FORA-PJ-13PJ 11.008,33 2.201,67 0,00 0,00 0,00 0,00 0,00 2.078,00 15.288,00 1.894,55 2.190,25 0,00 0,00 4.084,80 11.203,20 31/03/2023
590 523900 CRISTHYANE BAZOLI COSTA GUEDES COUTO OFICIAL DO MP BELO HORIZONTE - COMARCA; BH-04PJ JUIZO REG PÚBLICOS-SECRETARIA 8.650,50 1.730,10 0,00 0,00 0,00 0,00 0,00 2.078,00 12.458,60 1.441,84 1.588,80 0,00 0,00 3.030,64 9.427,96 31/03/2023
591 187000 CRISTIAN DAYVSON EVANGELISTA OFICIAL DO MP JUIZ DE FORA - COMARCA; JUIZ DE FORA-PJ-13PJ 18.312,36 7.324,94 0,00 0,00 0,00 0,00 470,02 7.205,46 33.312,78 3.882,92 5.060,96 0,00 0,00 8.943,88 24.368,90 31/03/2023
592 682100 CRISTIAN TRISTAO DE ANDRADE ASSESSOR PROMOTOR JUSTICA TRÊS CORACOES - COMARCA; TRES CORACOES-PJ-04PJ 0,00 0,00 7.857,77 0,00 2.619,26 0,00 547,43 8.049,91 19.074,37 857,57 2.188,49 0,00 0,00 3.046,06 16.028,31 31/03/2023
593 319800 CRISTIANA GONCALVES DOS SANTOS GUSMAO OFICIAL DO MP PARAOPEBA - COMARCA; PARAOPEBA-PJ-UNPJ 11.008,33 3.302,50 0,00 0,00 0,00 0,00 0,00 2.078,00 16.388,83 2.070,68 2.496,68 0,00 0,00 4.567,36 11.821,47 31/03/2023
594 520600 CRISTIANA JANAINA BARBOZA JUVENCIO DOS SANTOS ANALISTA DO MP BELO HORIZONTE - COMARCA; BH-02PJ FAMILIA-SECRETARIA 11.008,33 2.201,67 0,00 0,00 0,00 0,00 145,31 3.663,20 17.018,51 1.894,55 2.242,39 0,00 0,00 4.136,94 12.881,57 31/03/2023
595 195600 CRISTIANA SOARES HALABI OFICIAL DO MP UBERABA - COMARCA; UBERABA-PJ-01PJ 18.312,36 7.324,94 0,00 0,00 0,00 0,00 470,02 7.205,46 33.312,78 3.882,92 5.113,09 0,00 0,00 8.996,01 24.316,77 31/03/2023
596 218900 CRISTIANE ALVES BELLES OFICIAL DO MP JUIZ DE FORA - COMARCA; JUIZ DE FORA-PJ-10PJ 6.694,66 2.677,86 0,00 0,00 0,00 0,00 0,00 3.503,00 12.875,52 1.280,55 1.251,66 0,00 0,00 2.532,21 10.343,31 31/03/2023
597 263600 CRISTIANE CARVALHO COUTINHO OFICIAL DO MP BELO HORIZONTE - COMARCA; BH-23PJ INFRACIONAL-SEC EXP 12.118,97 4.847,59 0,00 0,00 0,00 0,00 0,00 2.078,00 19.044,56 2.495,60 3.058,02 0,00 0,00 5.553,62 13.490,94 31/03/2023
598 541000 CRISTIANE COELHO ALVES OFICIAL DO MP ITABIRA - COMARCA; ITABIRA-PJ-03PJ 6.694,66 669,47 0,00 0,00 0,00 0,00 0,00 2.078,00 9.442,13 959,93 839,66 0,00 0,00 1.799,59 7.642,54 31/03/2023
599 441700 CRISTIANE CORRADO DE ANDRADE ANALISTA DO MP BELO HORIZONTE - COMARCA; DIRETORIA DE SISTEMAS DE INFORMACAO 16.169,47 3.233,89 3.585,64 0,00 0,00 0,00 505,76 7.595,36 31.090,12 2.885,49 4.659,11 0,00 0,00 7.544,60 23.545,52 31/03/2023
600 375100 CRISTIANE DAS DORES ERCIO DE LIMA OFICIAL DO MP GOVERNADOR VALADARES - COMARCA; GOVERNADOR VALADARES-PJ-12PJ 10.325,15 3.097,55 0,00 0,00 344,17 0,00 1.172,60 3.606,13 18.545,60 2.093,78 2.624,68 0,00 0,00 4.718,46 13.827,14 31/03/2023
601 178800 CRISTIANE DE LIMA HOSKEN OFICIAL DO MP BELO HORIZONTE - COMARCA; BH-14PJ DEFESA CONSUMIDOR-GAB 110PJ 19.037,29 7.614,92 0,00 0,00 0,00 0,00 488,62 7.408,44 34.549,27 4.045,30 5.295,40 0,00 0,00 9.340,70 25.208,57 31/03/2023
602 494000 CRISTIANE DE MELO MARQUEZ OLIVEIRA ANALISTA DO MP UBERLÂNDIA - COMARCA; UBERLANDIA-PJ-06PJ 13.776,02 2.755,20 0,00 0,00 0,00 0,00 0,00 3.028,00 19.559,22 2.425,94 3.009,59 0,00 0,00 5.435,53 14.123,69 31/03/2023
603 266100 CRISTIANE DE OLIVEIRA CASTRO OFICIAL DO MP BELO HORIZONTE - COMARCA; BH-14PJ DEFESA CONSUMIDOR-SECRETARIA 15.659,55 6.263,82 0,00 0,00 0,00 0,00 1.580,00 2.078,00 25.581,37 3.288,69 4.585,40 0,00 0,00 7.874,09 17.707,28 31/03/2023
604 329500 CRISTIANE DOS REIS SILVA OFICIAL DO MP ARAXÁ - COMARCA; ARAXA-PJ-04PJ 11.008,33 3.302,50 0,00 0,00 0,00 0,00 0,00 2.078,00 16.388,83 2.070,68 2.392,41 0,00 0,00 4.463,09 11.925,74 31/03/2023
605 301600 CRISTIANE GODINHO PIRES ANALISTA DO MP BETIM - COMARCA; BETIM-PJ-06PJ 20.574,59 6.172,38 0,00 0,00 0,00 0,00 490,36 7.427,39 34.664,72 4.060,46 5.369,43 0,00 0,00 9.429,89 25.234,83 31/03/2023
606 406100 CRISTIANE GONCALVES CHAVES ANALISTA DO MP BELO HORIZONTE - COMARCA; BH-14PJ DEFESA CONSUMIDOR-GAB 112PJ 16.695,70 6.678,28 0,00 0,00 0,00 0,00 0,00 2.078,00 25.451,98 3.520,79 4.590,27 0,00 0,00 8.111,06 17.340,92 31/03/2023
607 487600 CRISTIANE LOPES DE OLIVEIRA OFICIAL DO MP DIVINÓPOLIS - COMARCA; DIVINOPOLIS-PJ-03PJ 7.857,77 1.571,55 0,00 0,00 0,00 0,00 345,74 5.849,73 15.624,79 1.289,64 1.369,05 0,00 0,00 2.658,69 12.966,10 31/03/2023
608 502500 CRISTIANE MACIEL DE OLIVEIRA GOMES ANALISTA DO MP JUIZ DE FORA - COMARCA; JUIZ DE FORA-PJ-02PJ 11.008,33 2.201,67 0,00 0,00 0,00 0,00 145,31 4.613,20 17.968,51 1.894,55 2.242,39 0,00 0,00 4.136,94 13.831,57 31/03/2023
609 285500 CRISTIANE MAGALHAES LOURENCO ANALISTA DO MP BELO HORIZONTE - COMARCA; CENTRAL DE APOIO TECNICO-SETOR CONTABIL 20.574,59 6.172,38 0,00 0,00 0,00 0,00 490,36 7.427,39 34.664,72 4.060,46 5.317,29 0,00 0,00 9.377,75 25.286,97 31/03/2023
610 536500 CRISTIANE MICHELE DE SOUZA ANALISTA DO MP BARÃO DE COCAIS - COMARCA; BARAO DE COCAIS-PJ-UNPJ 11.008,33 2.201,67 0,00 0,00 0,00 0,00 1.100,83 2.078,00 16.388,83 2.070,68 2.392,41 0,00 0,00 4.463,09 11.925,74 31/03/2023
611 346600 CRISTIANE NOGUEIRA ANDRADE ANALISTA DO MP BELO HORIZONTE - COMARCA; CENTRAL DE APOIO TECNICO-SETOR CONTABIL 19.037,29 5.711,19 0,00 0,00 0,00 0,00 0,00 2.078,00 26.826,48 3.740,71 4.907,78 0,00 0,00 8.648,49 18.177,99 31/03/2023
612 234000 CRISTIANE OLIVEIRA TOSTES OFICIAL DO MP JUIZ DE FORA - COMARCA; JUIZ DE FORA-PJ-08PJ 16.695,70 6.678,28 0,00 0,00 0,00 0,00 0,00 3.028,00 26.401,98 3.520,79 4.590,27 0,00 0,00 8.111,06 18.290,92 31/03/2023
613 445800 CRISTIANE ORZIL COSTA OFICIAL DO MP SANTA LUZIA - COMARCA; SANTA LUZIA-PJ-05PJ 8.113,66 1.622,73 0,00 0,00 0,00 0,00 0,00 3.028,00 12.764,39 1.338,77 1.439,99 0,00 0,00 2.778,76 9.985,63 31/03/2023
614 616100 CRISTIANE PAES RODRIGUES MARCICANO ANALISTA DO MP CATAGUASES - COMARCA; CATAGUASES-PJ-05PJ 9.378,86 937,89 0,00 0,00 0,00 0,00 0,00 3.028,00 13.344,75 1.431,63 1.574,05 0,00 0,00 3.005,68 10.339,07 31/03/2023
615 612300 CRISTIANE RIBEIRO DOS REIS ARCANJO OFICIAL DO MP BELO HORIZONTE - COMARCA; DIRETORIA DE PAGAMENTO DE PESSOAL-DPAG 6.694,66 669,47 0,00 0,00 0,00 0,00 0,00 0,00 7.364,13 1.544,86 626,66 0,00 0,00 2.171,52 5.192,61 31/03/2023
616 257700 CRISTIANE RODRIGUES PAES NUNES ANALISTA DO MP BELO HORIZONTE - COMARCA; BH-22PJ PES COM DEF E IDOSOS-ORIENTACAO PSIC 20.574,59 8.229,84 0,00 0,00 0,00 0,00 528,08 8.788,89 38.121,40 4.389,66 5.792,56 0,00 0,00 10.182,22 27.939,18 31/03/2023
617 510800 CRISTIANE SANTOS FERNANDES ORNELES ANALISTA DO MP BELO HORIZONTE - COMARCA; BH-03PJ EMPRESARIAL-SECRETARIA 11.008,33 2.201,67 0,00 0,00 0,00 0,00 145,31 3.663,20 17.018,51 1.894,55 2.242,39 0,00 0,00 4.136,94 12.881,57 31/03/2023
618 535701 CRISTIANE SANTOS MIRANDA ANALISTA DO MP CONTAGEM - COMARCA; CONTAGEM-PJ-03PJ 9.223,00 922,30 0,00 0,00 0,00 0,00 0,00 2.078,00 12.223,30 1.404,20 1.534,44 0,00 0,00 2.938,64 9.284,66 31/03/2023
619 536200 CRISTIANO DE OLIVEIRA ANALISTA DO MP CONCEIÇÃO DO MATO DENTRO - COMARCA; CONCEICAO DO MATO DENTRO-PJ-UNPJ 11.008,33 2.201,67 0,00 0,00 0,00 0,00 1.161,38 4.638,50 19.009,88 2.070,68 2.444,54 0,00 0,00 4.515,22 14.494,66 31/03/2023
620 477400 CRISTIANO SOARES ELEUTERIO ANALISTA DO MP BELO HORIZONTE - COMARCA; GABINETE DE PROCURADOR DE JUSTIÇA - SALA 812 13.776,02 2.755,20 0,00 0,00 0,00 0,00 424,30 6.706,74 23.662,26 2.425,94 3.009,59 0,00 0,00 5.435,53 18.226,73 31/03/2023
621 449400 CRISTIANO TEIXEIRA RODRIGUES LANA ANALISTA DO MP BELO HORIZONTE - COMARCA; BH-18PJ VIOLENCIA DOMESTICA-SECRETARIA 12.118,97 2.423,79 0,00 0,00 0,00 0,00 266,62 4.986,55 19.795,93 2.107,79 2.550,26 0,00 0,00 4.658,05 15.137,88 31/03/2023
622 239400 CRISTINA DE FATIMA CRUZ E SILVA OFICIAL DO MP MONTE SANTO DE MINAS - COMARCA; MONTE SANTO DE MINAS-PJ-SECRETARIA 15.659,55 6.263,82 0,00 0,00 0,00 0,00 0,00 2.078,00 24.001,37 3.288,69 4.255,18 0,00 0,00 7.543,87 16.457,50 31/03/2023
623 544000 CRISTINA DE OLIVEIRA TERRA ANALISTA DO MP BELO HORIZONTE - COMARCA; BH-18PJ VIOLENCIA DOMESTICA-SECRETARIA 11.008,33 1.100,83 0,00 0,00 0,00 0,00 0,00 2.078,00 14.187,16 1.718,41 1.988,10 0,00 0,00 3.706,51 10.480,65 31/03/2023
624 356800 CRISTINA DE PINHO BARROSO OFICIAL DO MP SABINÓPOLIS - COMARCA; SABINOPOLIS-PJ-UNPJ 9.312,17 3.751,54 0,00 0,00 0,00 0,00 0,00 3.028,00 16.091,71 1.881,81 2.101,39 0,00 0,00 3.983,20 12.108,51 31/03/2023
625 649500 CRISTINA DO DIVINO ESPIRITO SANTOS OFICIAL DO MP DIVINÓPOLIS - COMARCA; DIVINOPOLIS-PJ-12PJ 5.889,39 588,94 0,00 0,00 0,00 0,00 0,00 2.078,00 8.556,33 824,08 685,56 0,00 0,00 1.509,64 7.046,69 31/03/2023
626 727100 CRISTINA DORNELLES CLARET ASSESSOR ADMINISTRATIVO III BELO HORIZONTE - COMARCA; CAO-MEIO AMBIENTE 0,00 0,00 9.684,23 0,00 0,00 0,00 0,00 2.078,00 11.762,23 877,22 1.965,07 0,00 0,00 2.842,29 8.919,94 31/03/2023
627 348201 CRISTINA MARIA DA SILVA ANALISTA DO MP ARAXÁ - COMARCA; ARAXA-PJ-06PJ 11.008,33 2.201,67 0,00 0,00 0,00 0,00 0,00 3.028,00 16.238,00 1.894,55 2.242,39 0,00 0,00 4.136,94 12.101,06 31/03/2023
628 434900 CRISTINA MELO DE MADUREIRA ANALISTA DO MP BELO HORIZONTE - COMARCA; BH-07PJ 01 TRIBUNAL JURI-SECRETARIA 16.169,47 3.233,89 0,00 0,00 0,00 0,00 0,00 2.078,00 21.481,36 2.885,49 3.673,05 0,00 0,00 6.558,54 14.922,82 31/03/2023
629 307700 CRISTINA TEIXEIRA MARQUES OFICIAL DO MP BELO HORIZONTE - COMARCA; CENTRAL DE APOIO TECNICO-SETOR CONTABIL 11.008,33 3.302,50 0,00 0,00 0,00 0,00 0,00 2.078,00 16.388,83 2.070,68 2.496,68 0,00 0,00 4.567,36 11.821,47 31/03/2023
630 265300 CRISTOVAO SANCHES DE MEDEIROS ANALISTA DO MP BELO HORIZONTE - COMARCA; DIRETORIA DE CONTABILIDADE 19.791,01 5.937,30 0,00 0,00 0,00 0,00 0,00 2.078,00 27.806,31 3.897,48 5.134,12 0,00 0,00 9.031,60 18.774,71 31/03/2023
631 349800 CROZEIR LUIZ DA SILVA OFICIAL DO MP UNAÍ - COMARCA; UNAI-PJ-SECRETARIA 11.008,33 3.302,50 0,00 0,00 0,00 0,00 262,37 4.940,17 19.513,37 2.070,68 2.444,54 0,00 0,00 4.515,22 14.998,15 31/03/2023
632 490500 CYNTHIA CRISTINA DE SOUZA OLIVEIRA VALENTE ANALISTA DO MP BELO HORIZONTE - COMARCA; BH-09PJ AUDITORIA MILITAR-SECRETARIA 11.008,33 2.201,67 0,00 0,00 0,00 0,00 193,75 4.191,60 17.595,35 1.894,55 2.242,39 0,00 0,00 4.136,94 13.458,41 31/03/2023
633 389800 CYNTHIA GARIGLIO DOS SANTOS OFICIAL DO MP PERDIZES - COMARCA; PERDIZES-PJ-SECRETARIA 9.684,23 2.905,27 0,00 0,00 0,00 0,00 968,42 2.078,00 15.635,92 1.950,22 2.166,35 0,00 0,00 4.116,57 11.519,35 31/03/2023
634 335101 CYNTHIA GONTIJO D ASSUNCAO ANALISTA DO MP BELO HORIZONTE - COMARCA; FEPDC-SECRETARIA EXECUTIVA 11.008,33 2.201,67 3.585,64 0,00 0,00 0,00 0,00 3.028,00 19.823,64 1.894,55 3.228,44 0,00 0,00 5.122,99 14.700,65 31/03/2023
635 269700 CYNTIA ROCHA CAVALCANTI OFICIAL DO MP UBERLÂNDIA - COMARCA; UBERLANDIA-PJ-06PJ 15.659,55 4.697,87 0,00 0,00 0,00 0,00 522,51 8.728,08 29.608,01 3.038,14 3.893,44 0,00 0,00 6.931,58 22.676,43 31/03/2023
636 278000 DAIRTON LOPES MARTINS FILHO COORDENADOR II BELO HORIZONTE - COMARCA; DIRETORIA DE SISTEMAS DE INFORMACAO 18.312,36 5.493,71 0,00 0,00 0,00 0,00 523,73 7.791,46 32.121,26 2.070,68 5.107,87 0,00 0,00 7.178,55 24.942,71 31/03/2023
637 392700 DALIANA CHAVES IBRAIM MARINHO OFICIAL DO MP ITAÚNA - COMARCA; ITAUNA-PJ-04PJ 8.377,76 1.675,55 0,00 0,00 0,00 0,00 368,62 6.099,32 16.521,25 1.389,48 1.513,19 0,00 0,00 2.902,67 13.618,58 31/03/2023
638 558101 DALLEY TASSIA SILVA ANALISTA DO MP MORADA NOVA DE MINAS - COMARCA; MORADA NOVA DE MINAS-PJ-UNPJ 10.325,15 1.032,52 0,00 0,00 0,00 0,00 0,00 3.028,00 14.385,67 1.598,18 1.710,23 0,00 0,00 3.308,41 11.077,26 31/03/2023
639 476700 DALTON DAUD ANALISTA DO MP ARAGUARI - COMARCA; ARAGUARI-PJ-05PJ 11.008,33 2.201,67 0,00 0,00 0,00 0,00 145,31 3.663,20 17.018,51 1.894,55 2.138,11 0,00 0,00 4.032,66 12.985,85 31/03/2023
640 426900 DANIEL ALVES DA SILVA OFICIAL DO MP BELO HORIZONTE - COMARCA; DIVISAO TRANSPORTES 6.694,66 1.338,93 0,00 0,00 0,00 0,00 176,74 4.006,06 12.216,39 1.066,32 942,36 0,00 0,00 2.008,68 10.207,71 31/03/2023
641 714000 DANIEL FERREIRA CAMARA ASSESSOR PROMOTOR JUSTICA RIBEIRÃO DAS NEVES - COMARCA; RIBEIRAO DAS NEVES-PJ-12PJ 0,00 0,00 7.857,77 0,00 0,00 0,00 0,00 2.078,00 9.935,77 877,22 1.462,79 0,00 0,00 2.340,01 7.595,76 31/03/2023
642 411000 DANIEL FERREIRA DA SILVA ANALISTA DO MP GOVERNADOR VALADARES - COMARCA; GOVERNADOR VALADARES-PJ-15PJ 15.659,55 6.263,82 0,00 0,00 0,00 0,00 0,00 4.453,00 26.376,37 3.288,69 4.046,63 0,00 0,00 7.335,32 19.041,05 31/03/2023
643 703500 DANIEL FILIPE DE DEUS SOARES ASSESSOR PROMOTOR JUSTICA ITABIRITO - COMARCA; ITABIRITO-PJ-02PJ 0,00 0,00 7.857,77 0,00 0,00 0,00 172,87 3.963,86 11.994,50 877,22 1.462,79 0,00 0,00 2.340,01 9.654,49 31/03/2023
644 309000 DANIEL GOMES DOS SANTOS ANALISTA DO MP POÇOS DE CALDAS - COMARCA; POCOS DE CALDAS-PJ-05PJ 20.574,59 6.172,38 0,00 0,00 0,00 0,00 490,36 7.427,39 34.664,72 4.060,46 5.369,43 0,00 0,00 9.429,89 25.234,83 31/03/2023
645 554500 DANIEL GOMES PEREIRA OFICIAL DO MP NANUQUE - COMARCA; NANUQUE-PJ-02PJ 6.694,66 669,47 0,00 0,00 0,00 0,00 135,01 3.550,83 11.049,97 959,93 891,80 0,00 0,00 1.851,73 9.198,24 31/03/2023
646 453000 DANIEL GONCALVES PEREIRA ANALISTA DO MP UNAÍ - COMARCA; UNAI-PJ-02PJ 11.008,33 2.201,67 0,00 0,00 0,00 0,00 145,31 6.038,20 19.393,51 1.894,55 2.242,39 0,00 0,00 4.136,94 15.256,57 31/03/2023
647 495500 DANIEL GUIMARAES CABRAL OFICIAL DO MP BELO HORIZONTE - COMARCA; BH-17PJ PATRIMONIO PUBLICO-SECRETARIA 8.932,15 1.786,43 0,00 0,00 0,00 0,00 0,00 3.028,00 13.746,58 1.495,92 1.666,87 0,00 0,00 3.162,79 10.583,79 31/03/2023
648 442900 DANIEL GUIMARAES GONCALVES ANALISTA DO MP UBERLÂNDIA - COMARCA; UBERLANDIA-PJ-03PJ 15.659,55 3.131,91 0,00 0,00 0,00 0,00 482,31 7.339,61 26.613,38 982,16 3.795,47 0,00 0,00 4.777,63 21.835,75 31/03/2023
649 655900 DANIEL LUIZ DA SILVA ASSESSOR ADMINISTRATIVO II BELO HORIZONTE - COMARCA; DIV FISCAL ADM CONT TERCEIRIZACAO 0,00 0,00 6.694,66 0,00 0,00 0,00 0,00 2.078,00 8.772,66 877,22 1.142,94 0,00 0,00 2.020,16 6.752,50 31/03/2023
650 464600 DANIEL PIACENTINI STIVANIN ANALISTA DO MP ANDRADAS - COMARCA; ANDRADAS-PJ-02PJ 11.008,33 2.201,67 0,00 0,00 0,00 0,00 0,00 2.078,00 15.288,00 1.894,55 2.242,39 0,00 0,00 4.136,94 11.151,06 31/03/2023
651 417000 DANIEL QUEIROZ FERREIRA ANALISTA DO MP PASSOS - COMARCA; PASSOS-PJ-06PJ 15.659,55 3.131,91 0,00 0,00 0,00 0,00 482,31 8.289,61 27.563,38 982,16 3.795,47 0,00 0,00 4.777,63 22.785,75 31/03/2023
652 396700 DANIEL SILVA CARNEVALLI SUPERINTENDENTE BELO HORIZONTE - COMARCA; SUPERINTENDENCIA DE TECNOLOGIA DA INFORMACAO 24.982,93 4.996,59 0,00 0,00 0,00 0,00 549,62 9.023,90 39.553,04 2.986,52 6.553,72 0,00 0,00 9.540,24 30.012,80 31/03/2023
653 489300 DANIEL TABOZA ROCHA ANALISTA DO MP IPATINGA - COMARCA; IPATINGA-PJ-08PJ 11.008,33 2.201,67 0,00 0,00 0,00 0,00 0,00 3.028,00 16.238,00 982,16 2.375,68 0,00 0,00 3.357,84 12.880,16 31/03/2023
654 414100 DANIEL TARDELI VALADAO ANALISTA DO MP TRÊS CORACOES - COMARCA; TRES CORACOES-PJ-02PJ 15.659,55 3.131,91 0,00 0,00 0,00 0,00 0,00 3.154,66 21.946,12 982,16 3.586,92 0,00 0,00 4.569,08 17.377,04 31/03/2023
655 731800 DANIEL VASCONCELOS ARAUJO SILVA ASSESSOR ADMINISTRATIVO IV BELO HORIZONTE - COMARCA; DIRETORIA DE REDES E BANCOS DE DADOS 0,00 0,00 12.920,95 0,00 0,00 0,00 0,00 2.078,00 14.998,95 877,22 2.855,17 0,00 0,00 3.732,39 11.266,56 31/03/2023
656 446601 DANIEL VIEIRA BUENO ANALISTA DO MP SÃO DOMINGOS DO PRATA - COMARCA; SAO DOMINGOS DO PRATA-PJ-UNPJ 11.008,33 1.100,83 0,00 0,00 0,00 0,00 0,00 3.028,00 15.137,16 1.718,41 1.935,96 0,00 0,00 3.654,37 11.482,79 31/03/2023
657 253200 DANIELA BATISTA LIMA BARBOSA ASSESSOR ADMINISTRATIVO II BELO HORIZONTE - COMARCA; CENTRAL DE APOIO TECN-SETOR DE MEIO AMBIENTE 0,00 2.677,86 6.694,66 0,00 0,00 0,00 0,00 2.078,00 11.450,52 877,22 1.879,35 0,00 0,00 2.756,57 8.693,95 31/03/2023
658 505800 DANIELA BORGES DE MATTOS RESENDE ANALISTA DO MP JUIZ DE FORA - COMARCA; JUIZ DE FORA-PJ-20PJ 11.008,33 2.201,67 0,00 0,00 0,00 0,00 145,31 3.663,20 17.018,51 1.894,55 2.242,39 0,00 0,00 4.136,94 12.881,57 31/03/2023
659 478000 DANIELA CARVALHO SOARES ANALISTA DO MP SÃO JOÃO DEL REI - COMARCA; SAO JOAO DEL REI-PJ-01PJ 11.008,33 2.201,67 0,00 0,00 0,00 0,00 0,00 2.078,00 15.288,00 1.894,55 2.242,39 0,00 0,00 4.136,94 11.151,06 31/03/2023
660 275900 DANIELA CHAGAS SODRE ANALISTA DO MP BELO HORIZONTE - COMARCA; CENTRAL DE APOIO TECNICO-SETOR CONTABIL 20.574,59 6.172,38 0,00 0,00 0,00 0,00 1.762,51 2.078,00 30.587,48 4.060,46 5.801,98 0,00 0,00 9.862,44 20.725,04 31/03/2023
661 234301 DANIELA CRUZ SOARES ANALISTA DO MP BELO HORIZONTE - COMARCA; LABORATORIO TECNOLOGIA INTELIGENCIA 20.574,59 8.229,84 0,00 0,00 0,00 0,00 0,00 2.078,00 30.882,43 4.389,66 5.844,70 0,00 0,00 10.234,36 20.648,07 31/03/2023
662 638000 DANIELA DE ALMEIDA BATISTA ANALISTA DO MP ANDRELÂNDIA - COMARCA; ANDRELANDIA-PJ-UNPJ 9.999,62 999,96 0,00 0,00 0,00 0,00 0,00 3.028,00 14.027,58 982,16 1.885,43 0,00 0,00 2.867,59 11.159,99 31/03/2023
663 301000 DANIELA DE ALMEIDA E OLIVEIRA ANALISTA DO MP BELO HORIZONTE - COMARCA; DIRETORIA DE SISTEMAS DE INFORMACAO 20.574,59 6.172,38 0,00 0,00 0,00 0,00 0,00 2.078,00 28.824,97 4.060,46 5.369,43 0,00 0,00 9.429,89 19.395,08 31/03/2023
664 296000 DANIELA DE AZEVEDO SILVA ANALISTA DO MP BRASÓPOLIS - COMARCA; BRASOPOLIS-PJ-UNPJ 20.574,59 8.229,84 0,00 0,00 0,00 0,00 0,00 2.078,00 30.882,43 4.389,66 5.844,70 0,00 0,00 10.234,36 20.648,07 31/03/2023
665 453500 DANIELA DE CASTRO SOUSA BARBOSA ANALISTA DO MP BELO HORIZONTE - COMARCA; BH-08PJ JUIZADO ESPECIAL-SECRETARIA 12.118,97 2.423,79 0,00 0,00 0,00 0,00 266,62 4.986,55 19.795,93 2.107,79 2.550,26 0,00 0,00 4.658,05 15.137,88 31/03/2023
666 506000 DANIELA DE OLIVEIRA CAVALIERI ANALISTA DO MP BELO HORIZONTE - COMARCA; BH-14PJ DEFESA CONSUMIDOR-GAB 005PJ 11.008,33 2.201,67 0,00 0,00 0,00 0,00 0,00 2.078,00 15.288,00 1.894,55 2.242,39 0,00 0,00 4.136,94 11.151,06 31/03/2023
667 546200 DANIELA DE VILHENA LEMES GONCALVES OFICIAL DO MP TRÊS CORACOES - COMARCA; TRES CORACOES-PJ-05PJ 6.694,66 669,47 0,00 0,00 0,00 0,00 135,01 3.550,83 11.049,97 959,93 787,52 0,00 0,00 1.747,45 9.302,52 31/03/2023
668 356400 DANIELA LEAL FERRAZ ANALISTA DO MP MONTES CLAROS - COMARCA; COORD REG PJ DEF EDUC DIR CRIANCA ADOL NORTE 18.312,36 5.493,71 0,00 0,00 0,00 0,00 523,73 7.791,46 32.121,26 3.589,92 4.690,08 0,00 0,00 8.280,00 23.841,26 31/03/2023
669 501000 DANIELA LOURENCO SANTOS DA SILVA GUIMARAES ANALISTA DO MP BELO HORIZONTE - COMARCA; BH-12PJ JUIZO CRIMINAL-GAB 095PJ 11.008,33 2.201,67 0,00 0,00 0,00 0,00 145,31 3.663,20 17.018,51 1.894,55 2.190,25 0,00 0,00 4.084,80 12.933,71 31/03/2023
670 195801 DANIELA MARIA DE OLIVEIRA QUEIROZ ANALISTA DO MP ARAGUARI - COMARCA; ARAGUARI-PJ-06PJ 16.169,47 6.467,79 0,00 0,00 0,00 0,00 498,02 7.510,94 30.646,22 3.402,91 4.420,09 0,00 0,00 7.823,00 22.823,22 31/03/2023
671 511400 DANIELA MARIA LARA DE OLIVEIRA ANALISTA DO MP BOA ESPERANÇA - COMARCA; BOA ESPERANCA-PJ-02PJ 11.008,33 2.201,67 0,00 0,00 0,00 0,00 145,31 4.613,20 17.968,51 1.894,55 2.190,25 0,00 0,00 4.084,80 13.883,71 31/03/2023
672 252101 DANIELA PAULA ALVES PENA ANALISTA DO MP CONTAGEM - COMARCA; CONTAGEM-PJ-APO TECNICO 16.695,70 6.678,28 0,00 0,00 0,00 0,00 171,41 3.947,92 27.493,31 3.520,79 4.590,27 0,00 0,00 8.111,06 19.382,25 31/03/2023
673 604700 DANIELA PEIXOTO NOGUEIRA COORDENADOR II BELO HORIZONTE - COMARCA; DIRET DE FORMACAO, APERFEIC. E POS-GRADUACAO 18.312,36 1.831,24 0,00 0,00 0,00 0,00 0,00 3.028,00 23.171,60 959,93 4.406,15 0,00 0,00 5.366,08 17.805,52 31/03/2023
674 662000 DANIELA RIBAS DE AVILA ASSESSOR ADMINISTRATIVO III BELO HORIZONTE - COMARCA; CENTRO AUTOCOMPOSICAO DE CONFLITOS 0,00 0,00 9.684,23 0,00 0,00 0,00 0,00 2.078,00 11.762,23 877,22 1.965,07 0,00 0,00 2.842,29 8.919,94 31/03/2023
675 462000 DANIELA SOUSA GOMES DO AMARAL ANALISTA DO MP BETIM - COMARCA; BETIM-PJ-04PJ 13.341,69 2.668,34 0,00 0,00 0,00 0,00 410,92 6.560,81 22.981,76 2.342,55 2.889,20 0,00 0,00 5.231,75 17.750,01 31/03/2023
676 427000 DANIELA TEIXEIRA DINIZ ANDRADE ANALISTA DO MP BELO HORIZONTE - COMARCA; DIRETORIA DE PROJETOS DE EDIFICACOES 11.736,91 2.347,38 3.585,64 0,00 0,00 0,00 0,00 2.078,00 19.747,93 2.034,43 3.378,27 0,00 0,00 5.412,70 14.335,23 31/03/2023
677 337200 DANIELA TOLEDO SENIUK ANALISTA DO MP BELO HORIZONTE - COMARCA; GABINETE DE PROCURADOR DE JUSTIÇA - SALA 412 20.574,59 6.172,38 0,00 0,00 0,00 0,00 490,36 7.427,39 34.664,72 4.060,46 5.369,43 0,00 0,00 9.429,89 25.234,83 31/03/2023
678 605600 DANIELE ALZIRA SILVA CABRAL MOREIRA OFICIAL DO MP BELO HORIZONTE - COMARCA; BH-10PJ EXECUÇÃO PENAL-SECRETARIA 6.694,66 669,47 0,00 0,00 0,00 0,00 0,00 2.078,00 9.442,13 959,93 891,80 0,00 0,00 1.851,73 7.590,40 31/03/2023
679 195500 DANIELE CHAVES FONSECA OFICIAL DO MP BELO HORIZONTE - COMARCA; EXTINTA-CGMP-DIV APOIO FISC ORIENT FUNCIONAL 18.312,36 7.324,94 0,00 0,00 0,00 0,00 470,02 7.205,46 33.312,78 3.882,92 5.113,09 0,00 0,00 8.996,01 24.316,77 31/03/2023
680 323400 DANIELE MEGALE SANTINI OFICIAL DO MP BELO HORIZONTE - COMARCA; EXTINTA-CGMP-DIV APOIO FISC ORIENT FUNCIONAL 12.118,97 3.635,69 0,00 0,00 0,00 0,00 346,60 5.859,12 21.960,38 2.301,69 2.778,07 0,00 0,00 5.079,76 16.880,62 31/03/2023
681 357900 DANIELE REJANE PINTO VERSIEUX OFICIAL DO MP PEDRO LEOPOLDO - COMARCA; PEDRO LEOPOLDO-PJ-03PJ 11.008,33 3.302,50 0,00 0,00 0,00 0,00 262,37 4.940,17 19.513,37 2.070,68 2.496,68 0,00 0,00 4.567,36 14.946,01 31/03/2023
682 389500 DANIELE VASCONCELOS AMORIM OFICIAL DO MP SÃO SEBASTIÃO DO PARAÍSO - COMARCA; SAO SEBASTIAO DO PARAISO-PJ-04PJ 11.008,33 3.302,50 0,00 0,00 0,00 0,00 1.100,83 2.078,00 17.489,66 2.246,81 2.750,97 0,00 0,00 4.997,78 12.491,88 31/03/2023
683 629700 DANIELLA BASTOS MARTINS BICALHO OFICIAL DO MP GOVERNADOR VALADARES - COMARCA; GOVERNADOR VALADARES-PJ-16PJ 6.694,66 669,47 0,00 0,00 0,00 0,00 0,00 2.078,00 9.442,13 959,93 891,80 0,00 0,00 1.851,73 7.590,40 31/03/2023
684 725500 DANIELLE CAMILE OLIVEIRA FONSECA ASSESSOR PROCURADOR JUSTICA BELO HORIZONTE - COMARCA; GABINETE DE PROCURADOR DE JUSTIÇA - SALA 501 0,00 0,00 7.857,77 0,00 0,00 0,00 0,00 2.078,00 9.935,77 877,22 1.462,79 0,00 0,00 2.340,01 7.595,76 31/03/2023
685 265000 DANIELLE CASTANHEIRA SCALABRINI OFICIAL DO MP BELO HORIZONTE - COMARCA; JUNTA RECURSAL DO PROCON ESTADUAL 11.008,33 3.302,50 0,00 0,00 0,00 0,00 0,00 2.078,00 16.388,83 2.070,68 2.444,54 0,00 0,00 4.515,22 11.873,61 31/03/2023
686 490100 DANIELLE DE AVILA SILVA LOPES ANALISTA DO MP BELO HORIZONTE - COMARCA; PROC. JUSTICA DIR. DIFUSOS E COLETIVOS-SEC 11.008,33 3.302,50 0,00 0,00 0,00 0,00 0,00 3.028,00 17.338,83 2.070,68 2.496,68 0,00 0,00 4.567,36 12.771,47 31/03/2023
687 711100 DANIELLE DOMINGOS LOPES DE MELO ASSESSOR PROCURADOR JUSTICA BELO HORIZONTE - COMARCA; GABINETE DE PROCURADOR DE JUSTIÇA - SALA 703 0,00 0,00 7.857,77 0,00 0,00 0,00 172,87 3.963,86 11.994,50 877,22 1.462,79 0,00 0,00 2.340,01 9.654,49 31/03/2023
688 549600 DANIELLE GOMES LOPES RODRIGUES OFICIAL DO MP VESPASIANO - COMARCA; VESPASIANO-PJ-02PJ 6.694,66 669,47 0,00 0,00 0,00 0,00 0,00 2.078,00 9.442,13 959,93 891,80 0,00 0,00 1.851,73 7.590,40 31/03/2023
689 613000 DANIELLE SILVA OLIVEIRA FRANKLIN ASSESSOR ADMINISTRATIVO IV BELO HORIZONTE - COMARCA; DIRETORIA DE ORCAMENTO-DIOR/SPC 12.920,95 1.292,10 0,00 0,00 0,00 0,00 0,00 3.028,00 17.241,05 1.037,19 2.754,00 0,00 0,00 3.791,19 13.449,86 31/03/2023
690 722800 DANIELLE VALENTIM SOUZA ASSESSOR PROCURADOR JUSTICA BELO HORIZONTE - COMARCA; GABINETE DE PROCURADOR DE JUSTIÇA - SALA 606 0,00 0,00 7.857,77 0,00 0,00 0,00 0,00 2.078,00 9.935,77 877,22 1.462,79 0,00 0,00 2.340,01 7.595,76 31/03/2023
691 380800 DANILLO RIBEIRO ANTUNES ANALISTA DO MP MONTES CLAROS - COMARCA; MONTES CLAROS-PJ-SECRETARIA 16.695,70 5.008,71 0,00 0,00 0,00 0,00 3.249,57 2.078,00 27.031,98 3.520,79 4.972,63 0,00 0,00 8.493,42 18.538,56 31/03/2023
692 453700 DANILO BOTELHO DE CARVALHO SUPERINTENDENTE BELO HORIZONTE - COMARCA; SUPERINTENDENCIA DE FINANCAS 24.982,93 4.996,59 0,00 0,00 0,00 0,00 549,62 8.073,90 38.603,04 2.787,58 6.608,42 0,00 0,00 9.396,00 29.207,04 31/03/2023
693 391200 DANILO D'AVILA MENDES ANALISTA DO MP MONTES CLAROS - COMARCA; GAECO REGIONAL DE MONTES CLAROS 16.695,70 5.008,71 0,00 0,00 0,00 0,00 2.232,77 9.172,02 33.109,20 3.520,79 4.590,27 0,00 0,00 8.111,06 24.998,14 31/03/2023
694 710900 DANILO DE SOUZA RODRIGUES ASSESSOR PROMOTOR JUSTICA IPANEMA - COMARCA; IPANEMA-PJ-01PJ 0,00 0,00 7.857,77 0,00 0,00 0,00 0,00 2.078,00 9.935,77 877,22 1.462,79 0,00 0,00 2.340,01 7.595,76 31/03/2023
695 494900 DANILO GAVIAO AVELINO DE MELLO ANALISTA DO MP POUSO ALEGRE - COMARCA; GAECO REGIONAL DE POUSO ALEGRE 11.008,33 2.201,67 0,00 0,00 0,00 0,00 193,75 4.191,60 17.595,35 1.894,55 2.242,39 0,00 0,00 4.136,94 13.458,41 31/03/2023
696 604300 DANILO NASCIMENTO SALGADO ANALISTA DO MP JANAÚBA - COMARCA; JANAUBA-PJ-01PJ 11.008,33 1.100,83 0,00 0,00 0,00 0,00 0,00 2.078,00 14.187,16 1.718,41 1.988,10 0,00 0,00 3.706,51 10.480,65 31/03/2023
697 298300 DANUZA MONICA DE SOUZA DINIZ ANALISTA DO MP BELO HORIZONTE - COMARCA; CAO-FUNDACOES-ASSESSORIA JURIDICA 19.791,01 5.937,30 0,00 0,00 0,00 0,00 471,69 7.223,66 33.423,66 3.897,48 5.081,98 0,00 0,00 8.979,46 24.444,20 31/03/2023
698 398700 DARCY LUIZ MILEO GREGATTI OFICIAL DO MP LAMBARI - COMARCA; LAMBARI-PJ-SECRETARIA 10.661,25 2.132,25 0,00 0,00 0,00 0,00 516,00 7.707,14 21.016,64 1.827,91 2.146,18 0,00 0,00 3.974,09 17.042,55 31/03/2023
699 406200 DARIANA AUGUSTA DE TOLEDO PATROCINIO RUIZ COORDENADOR II BELO HORIZONTE - COMARCA; DIRETORIA GESTAO COMPRAS LICITACOES 18.312,36 3.662,47 0,00 0,00 0,00 0,00 483,45 8.301,96 30.760,24 1.894,55 4.652,72 0,00 0,00 6.547,27 24.212,97 31/03/2023
700 586901 DARIO VITORINO DE CARVALHO SILVA ASSESSOR ADM. ESPECIAL BELO HORIZONTE - COMARCA; DIRETORIA DE SEGURANCA 0,00 0,00 24.982,93 0,00 0,00 0,00 549,62 8.073,90 33.606,45 877,22 6.120,07 0,00 0,00 6.997,29 26.609,16 31/03/2023
701 305000 DARLI LEITE DE OLIVEIRA OFICIAL DO MP ARAÇUAÍ - COMARCA; ARACUAI-PJ-01PJ 6.694,66 2.008,40 0,00 0,00 0,00 0,00 255,29 4.862,98 13.821,33 1.173,44 1.044,87 0,00 0,00 2.218,31 11.603,02 31/03/2023
702 729400 DAVI PIMENTA ASSESSOR PROMOTOR JUSTICA CANDEIAS - COMARCA; CANDEIAS-PJ-UNPJ 0,00 0,00 7.857,77 0,00 0,00 0,00 0,00 2.078,00 9.935,77 877,22 1.462,79 0,00 0,00 2.340,01 7.595,76 31/03/2023
703 122200 DAVID RIBEIRO DOS SANTOS ANALISTA DO MP BORDA DA MATA - COMARCA; BORDA DA MATA-PJ-UNPJ 20.574,59 20.574,59 0,00 0,00 0,00 5.454,90 450,08 6.988,05 54.042,21 5.454,90 8.882,75 5.686,96 0,00 20.024,61 34.017,60 31/03/2023
704 389400 DAWSON CANEDO MARQUES OFICIAL DO MP POUSO ALEGRE - COMARCA; POUSO ALEGRE-PJ-SECRETARIA 11.008,33 3.302,50 0,00 0,00 0,00 0,00 1.714,36 9.721,07 25.746,26 2.246,81 1.891,65 0,00 0,00 4.138,46 21.607,80 31/03/2023
705 537200 DAYANE TEIXEIRA DE OLIVEIRA CASELLI ANALISTA DO MP BELO HORIZONTE - COMARCA; ASSESS TECNICO-JUR JUNTO AS PROC. DE JUST 9.223,00 922,30 0,00 0,00 0,00 0,00 0,00 2.078,00 12.223,30 1.404,20 1.534,44 0,00 0,00 2.938,64 9.284,66 31/03/2023
706 256100 DAYSE ROSALY PEREIRA BATISTA OFICIAL DO MP BELO HORIZONTE - COMARCA; BH-08PJ JUIZADO ESPECIAL-SECRETARIA 11.008,33 4.403,33 0,00 0,00 0,00 0,00 0,00 2.078,00 17.489,66 2.246,81 2.750,97 0,00 0,00 4.997,78 12.491,88 31/03/2023
707 311901 DEBORA APARECIDA DA SILVA ASSESSOR ADMINISTRATIVO I BELO HORIZONTE - COMARCA; BH-23PJ CIVEL-SETOR ATEND PUB 0,00 0,00 4.345,58 0,00 0,00 0,00 0,00 2.078,00 6.423,58 644,55 560,92 0,00 0,00 1.205,47 5.218,11 31/03/2023
708 194301 DEBORA APARECIDA DOS SANTOS ANALISTA DO MP UBERLÂNDIA - COMARCA; UBERLANDIA-PJ-SEC FAMILIA 20.574,59 8.229,84 0,00 0,00 0,00 0,00 528,08 7.838,89 37.171,40 4.389,66 5.844,70 0,00 0,00 10.234,36 26.937,04 31/03/2023
709 518800 DEBORA CARVALHO FIORATTO COORDENADOR II BELO HORIZONTE - COMARCA; DIRETORIA MATERIAIS E SERVICOS 18.312,36 3.662,47 0,00 0,00 0,00 0,00 483,45 7.351,96 29.810,24 1.441,84 4.777,21 0,00 0,00 6.219,05 23.591,19 31/03/2023
710 444900 DEBORA CLAUDIA PEREIRA ALVES ANALISTA DO MP BELO HORIZONTE - COMARCA; BH-08PJ JUIZADO ESPECIAL-SECRETARIA 12.118,97 2.423,79 0,00 0,00 0,00 0,00 266,62 4.986,55 19.795,93 2.107,79 2.550,26 0,00 0,00 4.658,05 15.137,88 31/03/2023
711 617700 DEBORA COMANDUCI SCHREIDER ANALISTA DO MP BICAS - COMARCA; BICAS-PJ-UNPJ 10.325,15 1.032,52 0,00 0,00 0,00 0,00 0,00 2.078,00 13.435,67 1.598,18 1.762,36 0,00 0,00 3.360,54 10.075,13 31/03/2023
712 555700 DEBORA CRISTINA BUITRAGO PEREIRA ANALISTA DO MP BELO HORIZONTE - COMARCA; DIRETORIA GESTAO CONTRATOS CONVENIOS 11.008,33 1.100,83 3.585,64 0,00 0,00 0,00 0,00 3.028,00 18.722,80 1.718,41 2.974,15 0,00 0,00 4.692,56 14.030,24 31/03/2023
713 513100 DEBORA CRISTINA PEREIRA DE OLIVEIRA ANALISTA DO MP BELO HORIZONTE - COMARCA; BH-23PJ CIVEL-SETOR JURIDICO 12.118,97 2.423,79 0,00 0,00 0,00 0,00 0,00 3.503,00 18.045,76 2.107,79 2.550,26 0,00 0,00 4.658,05 13.387,71 31/03/2023
714 612100 DEBORA DUARTE SILVA DE SOUZA OFICIAL DO MP RIBEIRÃO DAS NEVES - COMARCA; RIBEIRAO DAS NEVES-PJ-06PJ 6.694,66 2.677,86 0,00 0,00 0,00 0,00 0,00 2.078,00 11.450,52 1.280,55 1.251,66 0,00 0,00 2.532,21 8.918,31 31/03/2023
715 717500 DEBORA ENDREFFY ORSI PARENZI ASSESSOR PROMOTOR JUSTICA MATEUS LEME - COMARCA; MATEUS LEME-PJ-01PJ 0,00 0,00 7.857,77 0,00 0,00 0,00 0,00 2.078,00 9.935,77 877,22 1.462,79 0,00 0,00 2.340,01 7.595,76 31/03/2023
716 539700 DEBORA SALES CARVALHO ANALISTA DO MP PATOS DE MINAS - COMARCA; COORD REG PJ DEF EDU DIR CRI ADO AL PAR NOROE 11.008,33 1.100,83 0,00 0,00 0,00 0,00 0,00 2.078,00 14.187,16 982,16 2.095,65 0,00 0,00 3.077,81 11.109,35 31/03/2023
717 424100 DEBORA SANTOS E ALVES ANALISTA DO MP JANUÁRIA - COMARCA; JANUARIA-PJ-01PJ 16.169,47 3.233,89 0,00 0,00 0,00 0,00 498,02 8.460,94 28.362,32 2.885,49 3.673,05 0,00 0,00 6.558,54 21.803,78 31/03/2023
718 426301 DEBORA SCUCATO MACHADO SOARES OFICIAL DO MP ITABIRA - COMARCA; ITABIRA-PJ-SECRETARIA 6.694,66 1.338,93 0,00 0,00 0,00 0,00 29,46 3.349,34 11.412,39 1.066,32 1.046,64 0,00 0,00 2.112,96 9.299,43 31/03/2023
719 678100 DEBORA SOUZA COSTA ASSESSOR PROMOTOR JUSTICA BOTELHOS - COMARCA; BOTELHOS-PJ-UNPJ 0,00 0,00 7.857,77 0,00 0,00 0,00 0,00 2.078,00 9.935,77 877,22 1.410,65 0,00 0,00 2.287,87 7.647,90 31/03/2023
720 550200 DEBORA TRINDADE LEITE ANALISTA DO MP MANHUAÇU - COMARCA; MANHUACU-PJ-05PJ 11.008,33 1.100,83 0,00 0,00 0,00 0,00 0,00 2.078,00 14.187,16 1.718,41 1.883,82 0,00 0,00 3.602,23 10.584,93 31/03/2023
721 438000 DEBORAH COSTA LAGE ANALISTA DO MP BELO HORIZONTE - COMARCA; PROC JUST ATUACAO TRIBUNAIS SUPERIORES-GAB006 16.169,47 3.233,89 0,00 0,00 0,00 0,00 0,00 2.078,00 21.481,36 2.885,49 3.673,05 0,00 0,00 6.558,54 14.922,82 31/03/2023
722 613700 DEISER MARIA FERREIRA ROSCOE OFICIAL DO MP BELO HORIZONTE - COMARCA; DIVISÃO DE EDUCAÇÃO PARA O CONSUMO 6.694,66 669,47 0,00 0,00 0,00 0,00 0,00 2.078,00 9.442,13 959,93 891,80 0,00 0,00 1.851,73 7.590,40 31/03/2023
723 551900 DEISY ROCHA DA SILVA ANALISTA DO MP CARMO DO PARANAÍBA - COMARCA; CARMO DO PARANAIBA-PJ-01PJ 11.008,33 1.100,83 0,00 0,00 0,00 0,00 0,00 2.078,00 14.187,16 1.718,41 1.935,96 0,00 0,00 3.654,37 10.532,79 31/03/2023
724 501900 DELI RAQUEL RODRIGUES ANALISTA DO MP ITUIUTABA - COMARCA; ITUIUTABA-PJ-04PJ 11.008,33 2.201,67 0,00 0,00 0,00 0,00 0,00 2.078,00 15.288,00 1.894,55 2.242,39 0,00 0,00 4.136,94 11.151,06 31/03/2023
725 378600 DELIANE LOPES VIEIRA BREIJAO ANALISTA DO MP JUIZ DE FORA - COMARCA; JUIZ DE FORA-PJ-14PJ 16.695,70 5.008,71 0,00 0,00 0,00 0,00 2.232,77 8.222,02 32.159,20 3.520,79 4.538,13 0,00 0,00 8.058,92 24.100,28 31/03/2023
726 730100 DELIENE FRACETE GUTIERREZ ASSESSOR ADMINISTRATIVO I TEÓFILO OTONI - COMARCA; COORD REG APOIO COM INC MOB SOC VALE MUCURI 0,00 0,00 4.345,58 0,00 0,00 0,00 0,00 2.078,00 6.423,58 644,55 560,92 0,00 0,00 1.205,47 5.218,11 31/03/2023
727 487700 DENIA FERREIRA MAIA SILVA OFICIAL DO MP TRÊS CORACOES - COMARCA; TRES CORACOES-PJ-04PJ 7.137,75 1.427,55 0,00 0,00 0,00 0,00 0,00 2.078,00 10.643,30 1.151,40 1.065,19 0,00 0,00 2.216,59 8.426,71 31/03/2023
728 726300 DENILZA RODRIGUES MORAES ASSESSOR ADMINISTRATIVO I BELO HORIZONTE - COMARCA; CENT DE ATENDIMENTO AS PROMOTORIAS DE JUSTICA 0,00 0,00 4.345,58 0,00 0,00 0,00 0,00 2.078,00 6.423,58 644,55 560,92 0,00 0,00 1.205,47 5.218,11 31/03/2023
729 424800 DENIS APARECIDO CAMPOS DELFINO ANALISTA DO MP LUZ - COMARCA; LUZ-PJ-UNPJ 15.659,55 3.131,91 0,00 0,00 0,00 0,00 482,31 7.339,61 26.613,38 2.787,58 3.323,16 0,00 0,00 6.110,74 20.502,64 31/03/2023
730 381400 DENISE ANGELICA MELLO DE PAULA OFICIAL DO MP BELO HORIZONTE - COMARCA; BH-18PJ DIREITOS HUMANOS-SECRETARIA 11.008,33 3.302,50 3.876,29 0,00 0,00 0,00 1.100,83 3.028,00 22.315,95 2.246,81 3.816,95 0,00 0,00 6.063,76 16.252,19 31/03/2023
731 702100 DENISE CANDIDO LIMA MACEDO KATOPODIS ASSESSOR PROCURADOR JUSTICA BELO HORIZONTE - COMARCA; GABINETE DE PROCURADOR DE JUSTIÇA - SALA 306 0,00 0,00 7.857,77 0,00 0,00 0,00 0,00 2.078,00 9.935,77 877,22 1.462,79 0,00 0,00 2.340,01 7.595,76 31/03/2023
732 196300 DENISE DE ALMEIDA VILELA FURTADO OFICIAL DO MP BELO HORIZONTE - COMARCA; CENTRAL DE APOIO TECNICO-SECRETARIA 18.312,36 7.324,94 0,00 0,00 0,00 0,00 0,00 3.503,00 29.140,30 3.882,92 5.113,09 0,00 0,00 8.996,01 20.144,29 31/03/2023
733 271100 DENISE ELOY PEIXOTO OFICIAL DO MP BELO HORIZONTE - COMARCA; DIRETORIA DE INTELIGENCIA 15.659,55 4.697,87 0,00 0,00 0,00 0,00 522,51 7.778,08 28.658,01 3.038,14 3.893,44 0,00 0,00 6.931,58 21.726,43 31/03/2023
734 385400 DENISE FREITAS DE ASSIS OFICIAL DO MP CARATINGA - COMARCA; CARATINGA-PJ-SECRETARIA 9.999,62 1.999,92 2.679,65 0,00 0,00 0,00 269,12 5.013,84 19.962,15 1.700,87 2.699,68 0,00 0,00 4.400,55 15.561,60 31/03/2023
735 437100 DENISE NOGUEIRA MAGRI MENDES ANALISTA DO MP BELO HORIZONTE - COMARCA; LAB TECNOLOGIA CONTRA LAVAGEM DINHEIRO 16.169,47 6.467,79 0,00 0,00 0,00 0,00 0,00 2.078,00 24.715,26 3.402,91 4.315,81 0,00 0,00 7.718,72 16.996,54 31/03/2023
736 524700 DENISE RAMOS GUIMARAES OFICIAL DO MP BELO HORIZONTE - COMARCA; BH-07PJ 01 TRIBUNAL JURI-SECRETARIA 6.694,66 1.338,93 0,00 0,00 0,00 0,00 0,00 2.078,00 10.111,59 1.066,32 1.046,64 0,00 0,00 2.112,96 7.998,63 31/03/2023
737 239100 DENISE RIBEIRO DOS SANTOS CAETANO OFICIAL DO MP ITANHANDU - COMARCA; ITANHANDU-PJ-SECRETARIA 15.659,55 6.263,82 0,00 0,00 0,00 0,00 482,31 7.339,61 29.745,29 3.288,69 4.203,04 0,00 0,00 7.491,73 22.253,56 31/03/2023
738 325500 DENISE ROSA TORRES OFICIAL DO MP BELO HORIZONTE - COMARCA; DIRETORIA DE PESSOAL ADMINISTRATIVO - DPAD 12.118,97 3.635,69 0,00 0,00 0,00 0,00 346,60 5.859,12 21.960,38 2.301,69 2.830,21 0,00 0,00 5.131,90 16.828,48 31/03/2023
739 437200 DENISE VIVIANE DOS SANTOS ANALISTA DO MP BELO HORIZONTE - COMARCA; CGMP-ASSESSORIA JURIDICA 13.776,02 2.755,20 0,00 0,00 0,00 0,00 60,61 4.164,25 20.756,08 2.425,94 2.957,45 0,00 0,00 5.383,39 15.372,69 31/03/2023
740 267900 DENISIA ALMEIDA SALES OFICIAL DO MP BELO HORIZONTE - COMARCA; BH-18PJ DIREITOS HUMANOS-SECRETARIA 11.008,33 3.302,50 0,00 0,00 0,00 0,00 524,73 7.802,33 22.637,89 2.070,68 2.444,54 0,00 0,00 4.515,22 18.122,67 31/03/2023
741 480300 DESIREE ARANTES FERREIRA GOUVEA OFICIAL DO MP PRATÁPOLIS - COMARCA; PRATAPOLIS-PJ-UNPJ 6.694,66 1.338,93 0,00 0,00 0,00 1.066,32 0,00 2.078,00 11.177,91 1.066,32 1.339,88 0,00 0,00 2.406,20 8.771,71 31/03/2023
742 355300 DEYSE CRISTINA MORAIS OFICIAL DO MP PASSOS - COMARCA; PASSOS-PJ-02PJ 11.008,33 3.302,50 0,00 0,00 0,00 0,00 262,37 4.940,17 19.513,37 2.070,68 2.496,68 0,00 0,00 4.567,36 14.946,01 31/03/2023
743 523700 DIANA CAMPOS RESENDE OFICIAL DO MP SÃO JOÃO DEL REI - COMARCA; SAO JOAO DEL REI-PJ-04PJ 8.650,50 6.055,35 0,00 0,00 0,00 0,00 215,69 4.430,94 19.352,48 2.133,88 2.535,79 0,00 0,00 4.669,67 14.682,81 31/03/2023
744 241900 DIANA CARDOSO MARTINS OFICIAL DO MP BELO HORIZONTE - COMARCA; CAO-DH CONT EXT ATIV POLIC E AP COMUNIT 11.008,33 4.403,33 0,00 0,00 0,00 0,00 0,00 2.078,00 17.489,66 2.246,81 2.750,97 0,00 0,00 4.997,78 12.491,88 31/03/2023
745 410100 DIANA GORDILHO SILVEIRA SENA ANALISTA DO MP BELO HORIZONTE - COMARCA; BH-06PJ JUIZO CIVEL-SECRETARIA 16.169,47 3.233,89 0,00 0,00 0,00 0,00 498,02 7.510,94 27.412,32 2.885,49 3.673,05 0,00 0,00 6.558,54 20.853,78 31/03/2023
746 553000 DIANA MARIA MARQUES ANALISTA DO MP BETIM - COMARCA; BETIM-PJ-07PJ 11.008,33 1.100,83 0,00 0,00 0,00 0,00 0,00 2.078,00 14.187,16 1.718,41 1.935,96 0,00 0,00 3.654,37 10.532,79 31/03/2023
747 520000 DIARLE TOSTE DOS SANTOS ANALISTA DO MP RIO POMBA - COMARCA; RIO POMBA-PJ-UNPJ 11.008,33 2.201,67 0,00 0,00 0,00 0,00 145,31 3.663,20 17.018,51 1.894,55 1.526,29 0,00 0,00 3.420,84 13.597,67 31/03/2023
748 539800 DIEGO CAMARGOS RODRIGUES OFICIAL DO MP CONTAGEM - COMARCA; CONTAGEM-PJ-05PJ 6.694,66 1.338,93 0,00 0,00 0,00 0,00 681,74 2.211,89 10.927,22 1.173,44 1.201,29 0,00 0,00 2.374,73 8.552,49 31/03/2023
749 607300 DIEGO CERVEIRA DE SOUZA ANALISTA DO MP PATOS DE MINAS - COMARCA; COORD REG BACIAS PARACATU,URUCUIA E ABAETE 11.008,33 1.100,83 0,00 0,00 0,00 0,00 44,40 2.562,37 14.715,93 982,16 2.095,65 0,00 0,00 3.077,81 11.638,12 31/03/2023
750 446900 DIEGO DE FREITAS OFICIAL DO MP UBERABA - COMARCA; UBERABA-PJ-06PJ 9.378,86 1.875,77 0,00 0,00 0,00 0,00 0,00 2.078,00 13.332,63 1.581,69 1.790,70 0,00 0,00 3.372,39 9.960,24 31/03/2023
751 288800 DILENE NEPOMUCENO ALVES OFICIAL DO MP BELO HORIZONTE - COMARCA; DIRETORIA DE PESSOAL ADMINISTRATIVO - DPAD 11.008,33 3.302,50 0,00 0,00 0,00 0,00 0,00 2.078,00 16.388,83 2.070,68 2.496,68 0,00 0,00 4.567,36 11.821,47 31/03/2023
752 681200 DILLIANY PAULA LOPES SERRANO ASSESSOR PROMOTOR JUSTICA RESPLENDOR - COMARCA; RESPLENDOR-PJ-UNPJ 0,00 0,00 7.857,77 0,00 0,00 0,00 0,00 3.028,00 10.885,77 877,22 1.462,79 0,00 0,00 2.340,01 8.545,76 31/03/2023
753 270101 DILSON DO AMARAL ANALISTA DO MP RIO CASCA - COMARCA; RIO CASCA-PJ-UNPJ 11.008,33 1.100,83 0,00 0,00 0,00 0,00 0,00 2.078,00 14.187,16 1.718,41 1.988,10 0,00 0,00 3.706,51 10.480,65 31/03/2023
754 466000 DIMITRI GUDE MARCIAL ANALISTA DO MP NANUQUE - COMARCA; NANUQUE-PJ-02PJ 11.008,33 2.201,67 0,00 0,00 0,00 0,00 145,31 5.563,20 18.918,51 1.894,55 2.085,98 0,00 0,00 3.980,53 14.937,98 31/03/2023
755 516300 DINORA APARECIDA MACEDO BRANDAO ANALISTA DO MP BELO HORIZONTE - COMARCA; BH-19PJ SAUDE-SECRETARIA 150PJ 11.008,33 2.201,67 0,00 0,00 0,00 0,00 0,00 2.078,00 15.288,00 1.894,55 2.242,39 0,00 0,00 4.136,94 11.151,06 31/03/2023
756 511700 DIOGENES HENRIQUES PEREIRA LOURENCO ANALISTA DO MP BELO HORIZONTE - COMARCA; BH-03PJ EMPRESARIAL-SECRETARIA 11.008,33 2.201,67 0,00 0,00 0,00 0,00 145,31 4.613,20 17.968,51 982,16 2.375,68 0,00 0,00 3.357,84 14.610,67 31/03/2023
757 604100 DIOGO CESAR DE OLIVEIRA HONORIO ASSESSOR ADMINISTRATIVO III PIUMHI - COMARCA; PIUMHI-PJ-02PJ 0,00 0,00 9.684,23 0,00 3.228,08 0,00 355,09 5.951,69 19.219,09 877,22 2.852,79 0,00 0,00 3.730,01 15.489,08 31/03/2023
758 259600 DIOGO MESQUITA MAIA ANALISTA DO MP BELO HORIZONTE - COMARCA; DIRET DE APOIO AS PROCURADORIAS DE JUSTICA 19.791,01 17.811,91 0,00 0,00 0,00 5.454,90 450,08 6.988,06 50.495,96 5.454,90 8.830,61 2.140,70 0,00 16.426,21 34.069,75 31/03/2023
759 386700 DIRCIMAR FERNANDES CARNEIRO OFICIAL DO MP VISCONDE DO RIO BRANCO - COMARCA; VISCONDE DO RIO BRANCO-PJ-03PJ 11.008,33 7.705,83 0,00 0,00 0,00 0,00 548,95 8.066,53 27.329,64 2.775,21 3.513,85 0,00 0,00 6.289,06 21.040,58 31/03/2023
760 113800 DIRSON APARECIDO GUIMARAES ASSESSOR ADMINISTRATIVO II BELO HORIZONTE - COMARCA; DIVISAO DE MANUTENCAO PREDIAL 0,00 6.694,66 6.694,66 0,00 0,00 0,00 0,00 2.078,00 15.467,32 877,22 2.983,97 0,00 0,00 3.861,19 11.606,13 31/03/2023
761 216700 DOMICIO VALDETE PEREIRA OFICIAL DO MP TEÓFILO OTONI - COMARCA; COORD REG PJ DEF EDU DIR CRIAN ADOL JEQUI MUC 18.312,36 7.324,94 0,00 0,00 0,00 0,00 470,02 7.205,46 33.312,78 3.882,92 5.008,82 0,00 0,00 8.891,74 24.421,04 31/03/2023
762 192701 DONIZETTI APARECIDO AMORIM ANALISTA DO MP PRATÁPOLIS - COMARCA; PRATAPOLIS-PJ-UNPJ 10.894,58 4.403,33 0,00 0,00 0,00 0,00 0,00 2.078,00 17.375,91 2.246,81 2.667,56 0,00 0,00 4.914,37 12.461,54 31/03/2023
763 558700 DORCILIA FATIMA DE OLIVEIRA OFICIAL DO MP DIVINÓPOLIS - COMARCA; DIVINOPOLIS-PJ-02PJ 6.694,66 669,47 0,00 0,00 0,00 959,93 0,00 2.078,00 10.402,06 959,93 1.103,64 0,00 0,00 2.063,57 8.338,49 31/03/2023
764 555300 DOUGLAS CUNHA DE SOUZA ANALISTA DO MP VARZEA DA PALMA - COMARCA; VARZEA DA PALMA-PJ-01PJ 11.008,33 1.100,83 0,00 0,00 0,00 0,00 44,40 3.512,37 15.665,93 982,16 2.095,65 0,00 0,00 3.077,81 12.588,12 31/03/2023
765 265900 DOUGLAS GOMES MOREIRA ANALISTA DO MP BELO HORIZONTE - COMARCA; CENTRAL DE APOIO TECNICO-SETOR DE ENGENHARIA 20.574,59 6.172,38 0,00 0,00 0,00 0,00 0,00 2.078,00 28.824,97 4.060,46 5.369,43 0,00 0,00 9.429,89 19.395,08 31/03/2023
766 241000 DOUGLAS MEIRELLES DE CASTRO OFICIAL DO MP CONCEIÇÃO DO RIO VERDE - COMARCA; CONCEICAO DO RIO VERDE-PJ-UNPJ 15.659,55 6.263,82 0,00 0,00 0,00 0,00 0,00 2.078,00 24.001,37 3.288,69 4.203,04 0,00 0,00 7.491,73 16.509,64 31/03/2023
767 534900 DOUGLAS SILVA E SOUZA ANALISTA DO MP CAMPOS GERAIS - COMARCA; CAMPOS GERAIS-PJ-01PJ 11.008,33 2.201,67 0,00 0,00 366,94 0,00 1.246,14 3.663,20 18.486,28 982,16 2.704,48 0,00 0,00 3.686,64 14.799,64 31/03/2023
768 638900 DOUGLAS WALLAS CONCEICAO NEVES OFICIAL DO MP RIBEIRÃO DAS NEVES - COMARCA; RIBEIRAO DAS NEVES-PJ-SEC CIVEL 5.889,39 588,94 0,00 0,00 0,00 0,00 0,00 2.078,00 8.556,33 822,63 685,96 0,00 0,00 1.508,59 7.047,74 31/03/2023
769 146800 DUCINALVA AMARAL LOPES REIS OFICIAL DO MP PARAISÓPOLIS - COMARCA; PARAISOPOLIS-PJ-UNPJ 20.574,59 16.459,68 0,00 0,00 0,00 5.454,90 450,09 6.988,05 49.927,31 5.454,90 8.778,48 1.572,05 0,00 15.805,43 34.121,88 31/03/2023
770 122500 DUILIO CARLOS FERREIRA UTSCH OFICIAL DO MP CONCEIÇÃO DO MATO DENTRO - COMARCA; CONCEICAO DO MATO DENTRO-PJ-UNPJ 18.312,36 16.481,13 0,00 0,00 0,00 5.347,91 0,00 2.078,00 42.219,40 5.347,91 8.698,85 0,00 0,00 14.046,76 28.172,64 31/03/2023
771 201800 DULCINEIA ANDRE DE SOUZA OFICIAL DO MP JEQUITINHONHA - COMARCA; JEQUITINHONHA-PJ-SECRETARIA 18.312,36 7.324,94 0,00 0,00 0,00 0,00 0,00 2.078,00 27.715,30 3.882,92 4.956,68 0,00 0,00 8.839,60 18.875,70 31/03/2023
772 395800 DUVIDIER MEDIRCIO JUNIOR ANALISTA DO MP BELO HORIZONTE - COMARCA; CENTRAL DE APOIO TECNICO-SETOR DE ENGENHARIA 17.614,89 3.522,98 0,00 0,00 0,00 0,00 0,00 2.078,00 23.215,87 3.163,01 4.073,73 0,00 0,00 7.236,74 15.979,13 31/03/2023
773 604800 ECIA RAMILIS ISSA DE ABREU ANALISTA DO MP BRASÍLIA DE MINAS - COMARCA; BRASILIA DE MINAS-PJ-01PJ 11.008,33 1.100,83 0,00 0,00 0,00 0,00 44,40 3.512,37 15.665,93 1.718,41 1.988,10 0,00 0,00 3.706,51 11.959,42 31/03/2023
774 273000 EDELFINA APARECIDA GUIMARAES OFICIAL DO MP CACHOEIRA DE MINAS - COMARCA; CACHOEIRA DE MINAS-PJ-UNPJ 12.118,97 9.695,18 0,00 0,00 0,00 0,00 0,00 2.078,00 23.892,15 3.271,21 4.177,81 0,00 0,00 7.449,02 16.443,13 31/03/2023
775 523300 EDER DOS SANTOS PATRICIO ANALISTA DO MP NOVA SERRANA - COMARCA; NOVA SERRANA-PJ-03PJ 11.008,33 2.201,67 0,00 0,00 0,00 0,00 145,31 4.613,20 17.968,51 982,16 2.323,54 0,00 0,00 3.305,70 14.662,81 31/03/2023
776 356700 EDER JOSE PACHECO OFICIAL DO MP CAMPO BELO - COMARCA; CAMPO BELO-PJ-04PJ 11.008,33 3.302,50 0,00 0,00 0,00 0,00 262,37 4.940,17 19.513,37 2.070,68 2.444,54 0,00 0,00 4.515,22 14.998,15 31/03/2023
777 507900 EDERSON SILVA LOPES OFICIAL DO MP BELO HORIZONTE - COMARCA; LABORATORIO TECNOLOGIA INTELIGENCIA 8.113,66 1.622,73 0,00 0,00 0,00 0,00 0,00 2.078,00 11.814,39 1.338,77 1.335,71 0,00 0,00 2.674,48 9.139,91 31/03/2023
778 296200 EDGARD GOULART MATOSINHO DE LAET JR ANALISTA DO MP GOVERNADOR VALADARES - COMARCA; GOVERNADOR VALADARES-PJ-12PJ 19.791,01 5.937,30 0,00 0,00 0,00 0,00 471,69 7.223,66 33.423,66 3.897,48 5.029,84 0,00 0,00 8.927,32 24.496,34 31/03/2023
779 295000 EDILA MARIA DA SILVEIRA OFICIAL DO MP FORMIGA - COMARCA; FORMIGA-PJ-01PJ 11.008,33 3.302,50 0,00 0,00 0,00 0,00 0,00 2.078,00 16.388,83 2.070,68 2.496,68 0,00 0,00 4.567,36 11.821,47 31/03/2023
780 332300 EDILA MARILAC MIRANDA PRADO OFICIAL DO MP DIAMANTINA - COMARCA; DIAMANTINA-PJ-01PJ 11.008,33 5.504,17 0,00 0,00 0,00 0,00 0,00 2.078,00 18.590,50 2.422,95 2.900,99 0,00 0,00 5.323,94 13.266,56 31/03/2023
781 376600 EDILANE CONSOLACAO ROSA NAZARETH ANALISTA DO MP BETIM - COMARCA; BETIM-PJ-10PJ 16.695,70 5.008,71 0,00 0,00 0,00 0,00 1.669,57 2.078,00 25.451,98 982,16 4.961,14 0,00 0,00 5.943,30 19.508,68 31/03/2023
782 309800 EDILZA DOS REIS OFICIAL DO MP UBERLÂNDIA - COMARCA; UBERLANDIA-PJ-03PJ 11.008,33 3.302,50 0,00 0,00 0,00 0,00 262,37 4.940,17 19.513,37 2.070,68 2.444,54 0,00 0,00 4.515,22 14.998,15 31/03/2023
783 200500 EDINEIA MARIA DE OLIVEIRA ANTUNES OFICIAL DO MP MONTES CLAROS - COMARCA; MONTES CLAROS-PJ-10PJ 18.312,36 9.156,18 0,00 0,00 0,00 0,00 503,59 7.571,71 35.543,84 4.175,91 5.536,11 0,00 0,00 9.712,02 25.831,82 31/03/2023
784 427700 EDISANGELA SOARES LOPES OFICIAL DO MP PIRAPORA - COMARCA; PIRAPORA-PJ-02PJ 6.694,66 1.338,93 0,00 0,00 0,00 0,00 0,00 2.078,00 10.111,59 1.066,32 1.046,64 0,00 0,00 2.112,96 7.998,63 31/03/2023
785 555400 EDISON MONTEIRO SAMPAIO NETO ANALISTA DO MP BELO HORIZONTE - COMARCA; BH-12PJ JUIZO CRIMINAL-GAB 094PJ 11.008,33 1.100,83 0,00 0,00 0,00 0,00 133,20 3.531,10 15.773,46 1.718,41 1.988,10 0,00 0,00 3.706,51 12.066,95 31/03/2023
786 517700 EDMILSON TADEU FERNANDES OFICIAL DO MP POUSO ALEGRE - COMARCA; GAECO REGIONAL DE POUSO ALEGRE 8.377,76 1.675,55 0,00 0,00 0,00 0,00 36,86 2.480,13 12.570,30 1.389,48 1.513,19 0,00 0,00 2.902,67 9.667,63 31/03/2023
787 358400 EDNA APARECIDA SILVA FERREIRA OFICIAL DO MP CORONEL FABRICIANO - COMARCA; CORONEL FABRICIANO-PJ-02PJ 12.118,97 3.635,69 0,00 0,00 0,00 0,00 346,60 5.859,12 21.960,38 2.301,69 2.725,93 0,00 0,00 5.027,62 16.932,76 31/03/2023
788 331800 EDNA MARCIA CAMILO DA SILVA OFICIAL DO MP SETE LAGOAS - COMARCA; SETE LAGOAS-PJ-SEC CRIMINAIS 11.008,33 3.302,50 0,00 0,00 0,00 0,00 0,00 2.078,00 16.388,83 2.070,68 2.444,54 0,00 0,00 4.515,22 11.873,61 31/03/2023
789 327900 EDRIEL SANTANA PEREIRA OFICIAL DO MP TUPACIGUARA - COMARCA; TUPACIGUARA-PJ-01PJ 11.008,33 3.302,50 0,00 0,00 0,00 0,00 262,37 5.890,17 20.463,37 2.070,68 2.496,68 0,00 0,00 4.567,36 15.896,01 31/03/2023
790 482400 EDSON GARCIA OFICIAL DO MP MACHADO - COMARCA; MACHADO-PJ-02PJ 6.694,66 1.338,93 0,00 0,00 0,00 0,00 0,00 2.078,00 10.111,59 1.066,32 942,36 0,00 0,00 2.008,68 8.102,91 31/03/2023
791 225601 EDSON LABRE FILHO ANALISTA DO MP VARGINHA - COMARCA; VARGINHA-PJ-01PJ 19.791,01 7.916,40 0,00 0,00 0,00 0,00 507,97 7.619,48 35.834,86 4.214,13 5.539,15 0,00 0,00 9.753,28 26.081,58 31/03/2023
792 602700 EDSON NOGUEIRA BUENO OFICIAL DO MP PITANGUI - COMARCA; PITANGUI-PJ-02PJ 6.694,66 669,47 0,00 0,00 0,00 0,00 0,00 2.078,00 9.442,13 959,93 891,80 0,00 0,00 1.851,73 7.590,40 31/03/2023
793 716500 EDUARDA CORREA MOREIRA ASSESSOR ADMINISTRATIVO I BELO HORIZONTE - COMARCA; DIRET DE FORMACAO, APERFEIC. E POS-GRADUACAO 0,00 0,00 4.345,58 0,00 0,00 0,00 0,00 3.028,00 7.373,58 644,55 560,92 0,00 0,00 1.205,47 6.168,11 31/03/2023
794 414400 EDUARDO ABRANTES CAMPOS ANALISTA DO MP SÃO JOÃO DEL REI - COMARCA; SAO JOAO DEL REI-PJ-02PJ 16.169,47 3.233,89 0,00 0,00 6.467,79 0,00 498,02 7.510,94 33.880,11 2.885,49 5.451,70 0,00 0,00 8.337,19 25.542,92 31/03/2023
795 476800 EDUARDO ALVES DE MOURA ANALISTA DO MP UBERLÂNDIA - COMARCA; UBERLANDIA-PJ-02PJ 11.008,33 2.201,67 0,00 0,00 0,00 0,00 145,31 4.613,20 17.968,51 982,16 2.219,27 0,00 0,00 3.201,43 14.767,08 31/03/2023
796 390800 EDUARDO AMORIM PETTERSEN OFICIAL DO MP CARANGOLA - COMARCA; CARANGOLA-PJ-SECRETARIA 9.999,62 2.999,89 0,00 0,00 0,00 0,00 1.568,27 8.528,03 23.095,81 2.020,86 2.424,76 0,00 0,00 4.445,62 18.650,19 31/03/2023
797 461600 EDUARDO ANTONIO DE ASSIS FARIA ASSESSOR ADMINISTRATIVO III BELO HORIZONTE - COMARCA; ASSESS EXECUTIVA DO CONSELHO SUPERIOR DO MP 0,00 0,00 9.684,23 0,00 0,00 0,00 0,00 2.078,00 11.762,23 877,22 1.912,93 0,00 0,00 2.790,15 8.972,08 31/03/2023
798 248800 EDUARDO DE CASTRO AMORIM ANALISTA DO MP BELO HORIZONTE - COMARCA; SUPER DE GESTAO DE PESSOAS-LOTACAO TEMPORARIA 20.574,59 8.229,84 0,00 0,00 0,00 0,00 528,08 7.838,89 37.171,40 4.389,66 5.844,70 0,00 0,00 10.234,36 26.937,04 31/03/2023
799 209100 EDUARDO DE SOUZA MAIA ANALISTA DO MP BELO HORIZONTE - COMARCA; SUPER DE GESTAO DE PESSOAS-LOTACAO TEMPORARIA 20.574,59 8.229,84 0,00 0,00 0,00 0,00 0,00 2.078,00 30.882,43 4.389,66 5.740,43 0,00 0,00 10.130,09 20.752,34 31/03/2023
800 633900 EDUARDO GONCALVES PIRES OFICIAL DO MP BELO HORIZONTE - COMARCA; DIRETORIA DE PAGAMENTO DE PESSOAL-DPAG 7.370,10 2.948,04 0,00 0,00 0,00 0,00 0,00 2.078,00 12.396,14 1.431,85 1.574,37 0,00 0,00 3.006,22 9.389,92 31/03/2023
801 350500 EDUARDO GONCALVES RIBEIRO OFICIAL DO MP VESPASIANO - COMARCA; VESPASIANO-PJ-04PJ 10.325,15 3.097,55 0,00 0,00 0,00 0,00 0,00 2.078,00 15.500,70 1.928,58 2.291,52 0,00 0,00 4.220,10 11.280,60 31/03/2023
802 115800 EDUARDO HENRIQUE DE CAMPOS MAIA OFICIAL DO MP BELO HORIZONTE - COMARCA; DIV FISCAL ADM CONT TERCEIRIZACAO 19.791,01 13.853,71 0,00 0,00 0,00 0,00 493,46 7.461,16 41.599,34 5.164,10 6.806,40 0,00 0,00 11.970,50 29.628,84 31/03/2023
803 392600 EDUARDO HENRIQUE DOS SANTOS COSTA ELIAZAR OFICIAL DO MP MATOZINHOS - COMARCA; MATOZINHOS-PJ-01PJ 9.684,23 1.936,85 0,00 0,00 0,00 0,00 42,61 2.542,84 14.206,53 1.640,32 1.771,07 0,00 0,00 3.411,39 10.795,14 31/03/2023
804 99101 EDUARDO JOSE DE FREITAS NUNES ASSESSOR ADMINISTRATIVO II BELO HORIZONTE - COMARCA; PROC JUST ATUACAO TRIBUNAIS SUPERIORES-GAB007 0,00 3.347,33 6.694,66 0,00 0,00 0,00 0,00 2.078,00 12.119,99 877,22 2.063,45 0,00 0,00 2.940,67 9.179,32 31/03/2023
805 407500 EDUARDO MASCARENHAS CURI AZEVEDO ANALISTA DO MP BELO HORIZONTE - COMARCA; DIR CONTEUDO JORNALISTICO 11.008,33 2.201,67 0,00 0,00 0,00 0,00 584,33 3.028,00 16.822,33 1.894,55 2.403,08 0,00 0,00 4.297,63 12.524,70 31/03/2023
806 601300 EDUARDO TRAD VIEIRA OFICIAL DO MP BELO HORIZONTE - COMARCA; SUPER DE GESTAO DE PESSOAS-LOTACAO TEMPORARIA 6.625,11 669,47 0,00 0,00 0,00 0,00 0,00 2.078,00 9.372,58 959,93 872,67 0,00 0,00 1.832,60 7.539,98 31/03/2023
807 257600 EDUARDO VALADARES CABRAL ANALISTA DO MP BELO HORIZONTE - COMARCA; COORD DE INCLUSAO E MOBILIZACAO SOCIAIS 20.574,59 8.229,84 0,00 0,00 0,00 0,00 0,00 2.078,00 30.882,43 4.389,66 5.844,70 0,00 0,00 10.234,36 20.648,07 31/03/2023
808 545700 EDVAIR FERREIRA DE CARVALHO OFICIAL DO MP ARAGUARI - COMARCA; ARAGUARI-PJ-06PJ 6.694,66 669,47 0,00 0,00 0,00 0,00 0,00 2.078,00 9.442,13 959,93 839,66 0,00 0,00 1.799,59 7.642,54 31/03/2023
809 401700 EDWANIA AMORIM DO CARMO OFICIAL DO MP RIBEIRÃO DAS NEVES - COMARCA; RIBEIRAO DAS NEVES-PJ-03PJ 11.008,33 2.201,67 0,00 0,00 0,00 0,00 532,80 7.890,40 21.633,20 1.894,55 2.242,39 0,00 0,00 4.136,94 17.496,26 31/03/2023
810 303600 EFIGENIO SARAIVA LOPES ANALISTA DO MP BELO HORIZONTE - COMARCA; DIRETORIA DE PAGAMENTO DE PESSOAL-DPAG 20.574,59 6.172,38 4.939,72 0,00 0,00 0,00 464,74 7.147,87 39.299,30 4.060,46 6.675,72 0,00 0,00 10.736,18 28.563,12 31/03/2023
811 286000 ELAINE APARECIDA SILVA BERZOINI OFICIAL DO MP JUIZ DE FORA - COMARCA; JUIZ DE FORA-PJ-07PJ 11.008,33 3.302,50 0,00 0,00 0,00 0,00 0,00 2.078,00 16.388,83 2.070,68 2.496,68 0,00 0,00 4.567,36 11.821,47 31/03/2023
812 509000 ELAINE CANDIDA PONTES OFICIAL DO MP BELO HORIZONTE - COMARCA; BH-02PJ FAMILIA-SECRETARIA 9.223,00 1.844,60 0,00 0,00 0,00 0,00 0,00 2.078,00 13.145,60 1.551,76 1.747,50 0,00 0,00 3.299,26 9.846,34 31/03/2023
813 283601 ELAINE CRISTINA MEQUELINO DUARTE ANALISTA DO MP ALFENAS - COMARCA; ALFENAS-PJ-02PJ 16.695,70 5.008,71 0,00 0,00 0,00 0,00 2.232,77 8.222,02 32.159,20 3.520,79 4.485,99 0,00 0,00 8.006,78 24.152,42 31/03/2023
814 535500 ELAINE DE OLIVEIRA CAMPOS REIS OFICIAL DO MP RIBEIRÃO DAS NEVES - COMARCA; RIBEIRAO NEVES-SEC PJ EXECUCAO PENAL 6.694,66 1.338,93 0,00 0,00 0,00 0,00 669,47 2.078,00 10.781,06 1.173,44 1.201,29 0,00 0,00 2.374,73 8.406,33 31/03/2023
815 455700 ELAINE DE OLIVEIRA CASTRO ANALISTA DO MP POMPÉU - COMARCA; POMPEU-PJ-UNPJ 11.008,33 2.201,67 0,00 0,00 0,00 0,00 0,00 2.078,00 15.288,00 1.894,55 2.138,11 0,00 0,00 4.032,66 11.255,34 31/03/2023
816 367200 ELAINE MUNIZ BARBOSA ANALISTA DO MP BELO HORIZONTE - COMARCA; DIRETORIA DE SISTEMAS DE INFORMACAO 18.312,36 5.493,71 0,00 0,00 0,00 0,00 0,00 3.028,00 26.834,07 3.589,92 4.637,94 0,00 0,00 8.227,86 18.606,21 31/03/2023
817 679200 ELAINE RIBEIRO CHAVES ASSESSOR PROCURADOR JUSTICA BELO HORIZONTE - COMARCA; GABINETE DE PROCURADOR DE JUSTIÇA - SALA 614 0,00 0,00 7.857,77 0,00 0,00 0,00 0,00 2.078,00 9.935,77 877,22 1.410,65 0,00 0,00 2.287,87 7.647,90 31/03/2023
818 176900 ELAINE RIBEIRO TAVEIRA OFICIAL DO MP BELO HORIZONTE - COMARCA; DIVISAO FROTA 15.165,83 6.066,33 0,00 0,00 0,00 0,00 544,96 8.023,00 29.800,12 3.178,09 4.095,51 0,00 0,00 7.273,60 22.526,52 31/03/2023
819 496200 ELAINE SABRINA MOREIRA SCHUWARTEN ANALISTA DO MP IPATINGA - COMARCA; GAECO REGIONAL DE IPATINGA 12.118,97 2.423,79 0,00 0,00 0,00 0,00 0,00 2.078,00 16.620,76 2.107,79 2.550,26 0,00 0,00 4.658,05 11.962,71 31/03/2023
820 489200 ELAINE VICENTINO GARCIA ANALISTA DO MP BELO HORIZONTE - COMARCA; CENTRAL DE APOIO TECNICO-SETOR CONTABIL 11.008,33 4.403,33 0,00 0,00 0,00 0,00 0,00 2.078,00 17.489,66 2.246,81 2.646,70 0,00 0,00 4.893,51 12.596,15 31/03/2023
821 731400 ELBERT MENDES PINHEIRO ASSESSOR PROMOTOR JUSTICA BELO HORIZONTE - COMARCA; COORD ESTADUAL DAS PJS DE HAB. E URBANISMO 0,00 0,00 7.857,77 0,00 0,00 0,00 0,00 2.078,00 9.935,77 877,22 1.462,79 0,00 0,00 2.340,01 7.595,76 31/03/2023
822 244500 ELCI ALVES DE SOUZA ASSESSOR ADMINISTRATIVO II BELO HORIZONTE - COMARCA; CAO-CONFLITOS AGRARIOS-SECRETARIA 0,00 2.677,86 6.694,66 0,00 0,00 0,00 0,00 2.078,00 11.450,52 877,22 1.827,21 0,00 0,00 2.704,43 8.746,09 31/03/2023
823 472500 ELCI VAZ DE OLIVEIRA FILHO ANALISTA DO MP PIUMHI - COMARCA; PIUMHI-PJ-02PJ 11.008,33 5.504,17 0,00 0,00 0,00 0,00 0,00 2.078,00 18.590,50 2.422,95 3.005,27 0,00 0,00 5.428,22 13.162,28 31/03/2023
824 385200 ELCI VIANA REIS OFICIAL DO MP RIO PARDO DE MINAS - COMARCA; RIO PARDO DE MINAS-PJ-SECRETARIA 11.008,33 5.504,17 0,00 0,00 0,00 0,00 423,82 6.978,40 23.914,72 2.422,95 3.005,27 0,00 0,00 5.428,22 18.486,50 31/03/2023
825 289801 ELCIO JOSE DOS SANTOS ANALISTA DO MP BELO HORIZONTE - COMARCA; DIVISAO DE SERVICOS 11.008,33 2.201,67 4.939,72 0,00 0,00 0,00 332,74 5.707,94 24.190,40 1.894,55 3.600,81 0,00 0,00 5.495,36 18.695,04 31/03/2023
826 319600 ELEN TULER DE ALBERGARIA ANALISTA DO MP BELO HORIZONTE - COMARCA; BH-19PJ SAUDE-SECRETARIA 130PJ 20.574,59 8.229,84 0,00 0,00 0,00 0,00 0,00 2.078,00 30.882,43 4.389,66 5.844,70 0,00 0,00 10.234,36 20.648,07 31/03/2023
827 205500 ELIANA ALVES DE SOUSA OFICIAL DO MP GOVERNADOR VALADARES - COMARCA; GOVERNADOR VALADARES-PJ-07PJ 11.008,33 4.403,33 0,00 0,00 0,00 0,00 0,00 2.078,00 17.489,66 2.246,81 2.750,97 0,00 0,00 4.997,78 12.491,88 31/03/2023
828 628800 ELIANA APARECIDA PEREIRA ANALISTA DO MP CAMBUÍ - COMARCA; CAMBUI-PJ-02PJ 9.378,86 937,89 0,00 0,00 0,00 0,00 0,00 2.078,00 12.394,75 1.431,63 1.521,91 0,00 0,00 2.953,54 9.441,21 31/03/2023
829 301700 ELIANA DA SILVEIRA ANALISTA DO MP BELO HORIZONTE - COMARCA; BH-11PJ COMB CRIME ORGANIZ-GAB 081PJ 19.037,29 5.711,19 0,00 0,00 0,00 0,00 544,47 8.017,64 33.310,59 3.740,71 4.907,78 0,00 0,00 8.648,49 24.662,10 31/03/2023
830 251500 ELIANA DE LIMA MILAGRES FONSECA ANALISTA DO MP CONTAGEM - COMARCA; CONTAGEM-PJ-16PJ 20.574,59 8.229,84 0,00 0,00 0,00 0,00 528,08 7.838,89 37.171,40 4.389,66 5.792,56 0,00 0,00 10.182,22 26.989,18 31/03/2023
831 503900 ELIANA DIAS DUTRA FERREIRA OFICIAL DO MP BELO HORIZONTE - COMARCA; DIRETORIA GESTAO COMPRAS LICITACOES 9.378,86 1.875,77 0,00 0,00 0,00 0,00 0,00 2.078,00 13.332,63 1.581,69 1.738,56 0,00 0,00 3.320,25 10.012,38 31/03/2023
832 413900 ELIANA PINTO DE OLIVEIRA NEVES ANALISTA DO MP CAMPO BELO - COMARCA; CAMPO BELO-PJ-04PJ 15.659,55 3.131,91 0,00 0,00 0,00 0,00 482,31 7.339,61 26.613,38 2.787,58 3.531,71 0,00 0,00 6.319,29 20.294,09 31/03/2023
833 228200 ELIANA RODRIGUES DA CUNHA PINHEIRO OFICIAL DO MP BELO HORIZONTE - COMARCA; DIRETORIA DE PROJETOS DE EDIFICACOES 15.659,55 6.263,82 0,00 0,00 0,00 3.288,69 462,22 7.120,41 32.794,69 3.288,69 5.159,57 0,00 0,00 8.448,26 24.346,43 31/03/2023
834 386600 ELIANA SABINO CHAVES PESSOA ANALISTA DO MP CARATINGA - COMARCA; CARATINGA-PJ-06PJ 16.169,47 11.318,64 0,00 0,00 0,00 4.179,05 464,45 7.144,75 39.276,36 4.179,05 6.637,73 0,00 0,00 10.816,78 28.459,58 31/03/2023
835 677500 ELIANA SILVA ANDRADE ASSESSOR PROMOTOR JUSTICA TRÊS CORACOES - COMARCA; TRES CORACOES-PJ-06PJ 0,00 0,00 7.857,77 0,00 0,00 0,00 0,00 2.078,00 9.935,77 877,22 1.462,79 0,00 0,00 2.340,01 7.595,76 31/03/2023
836 297400 ELIANE AUGUSTA RIBEIRO COSTA ANALISTA DO MP CONSELHEIRO LAFAIETE - COMARCA; CONSELHEIRO LAFAIETE-PJ-05PJ 20.574,59 6.172,38 0,00 0,00 0,00 0,00 490,36 7.427,39 34.664,72 4.060,46 5.265,16 0,00 0,00 9.325,62 25.339,10 31/03/2023
837 510600 ELIANE CAROLINA MAIA ANALISTA DO MP IGARAPÉ - COMARCA; IGARAPE-PJ-03PJ 11.008,33 2.201,67 0,00 0,00 0,00 0,00 145,31 3.663,20 17.018,51 1.894,55 2.085,98 0,00 0,00 3.980,53 13.037,98 31/03/2023
838 262600 ELIANE FERREIRA SOARES ASSESSOR ADMINISTRATIVO II BELO HORIZONTE - COMARCA; BH-18PJ DIREITOS HUMANOS-SECRETARIA 0,00 2.677,86 6.694,66 0,00 0,00 0,00 0,00 2.078,00 11.450,52 877,22 1.879,35 0,00 0,00 2.756,57 8.693,95 31/03/2023
839 204400 ELIANE GLAUCE DE QUEIROS MAIA OFICIAL DO MP GUANHÃES - COMARCA; GUANHAES-PJ-02PJ 18.312,36 7.324,94 0,00 0,00 0,00 0,00 470,02 7.205,46 33.312,78 3.882,92 5.113,09 0,00 0,00 8.996,01 24.316,77 31/03/2023
840 91800 ELIANE KAPLER ALVES OFICIAL DO MP BELO HORIZONTE - COMARCA; DIVISAO DE CONTROLE IMOBILIARIO 20.574,59 14.402,22 0,00 0,00 0,00 10.216,75 443,90 6.920,49 52.557,95 5.377,24 9.975,85 0,00 0,00 15.353,09 37.204,86 31/03/2023
841 334200 ELIANE MARCIA DE OLIVEIRA BRITO OFICIAL DO MP BELO HORIZONTE - COMARCA; BH-08PJ JUIZADO ESPECIAL-SECRETARIA 6.694,66 2.008,40 0,00 0,00 0,00 0,00 0,00 2.078,00 10.781,06 1.173,44 1.201,29 0,00 0,00 2.374,73 8.406,33 31/03/2023
842 365900 ELIANE MARIA DE OLIVEIRA FERREIRA OFICIAL DO MP SETE LAGOAS - COMARCA; SETE LAGOAS-PJ-SEC CRIMINAIS 11.008,33 5.504,17 0,00 0,00 0,00 0,00 0,00 2.078,00 18.590,50 2.422,95 3.005,27 0,00 0,00 5.428,22 13.162,28 31/03/2023
843 320600 ELIANE STADLER DE SOUZA OFICIAL DO MP FRANCISCO SÁ - COMARCA; FRANCISCO SA-PJ-SECRETARIA 10.325,15 3.097,55 0,00 0,00 0,00 0,00 0,00 2.078,00 15.500,70 1.928,58 2.239,39 0,00 0,00 4.167,97 11.332,73 31/03/2023
844 448900 ELIAS PEREIRA OTONI ASSESSOR ADMINISTRATIVO II BELO HORIZONTE - COMARCA; BH-18PJ DIREITOS HUMANOS-SECRETARIA 0,00 0,00 6.694,66 0,00 0,00 0,00 0,00 2.078,00 8.772,66 877,22 1.038,66 0,00 0,00 1.915,88 6.856,78 31/03/2023
845 495400 ELICA SOUZA GASPARONI MATTOS OFICIAL DO MP UBÁ - COMARCA; UBA-PJ-06PJ 9.378,86 1.875,77 0,00 0,00 0,00 0,00 0,00 2.078,00 13.332,63 1.581,69 1.790,70 0,00 0,00 3.372,39 9.960,24 31/03/2023
846 86600 ELIENE FERREIRA DA SILVA OFICIAL DO MP BELO HORIZONTE - COMARCA; BH-22PJ PES COM DEF E IDOSOS-SECRETARIA 23.116,32 18.493,05 0,00 0,00 0,00 5.454,90 450,08 6.988,05 54.502,40 5.454,90 8.726,34 6.147,15 0,00 20.328,39 34.174,01 31/03/2023
847 183800 ELIENE MARIA CUNHA OFICIAL DO MP BELO HORIZONTE - COMARCA; DIRETORIA DE PESSOAL ADMINISTRATIVO - DPAD 19.037,29 7.614,92 0,00 0,00 0,00 0,00 488,62 7.408,44 34.549,27 4.045,30 5.295,40 0,00 0,00 9.340,70 25.208,57 31/03/2023
848 172300 ELINA APARECIDA SILVA ASSESSOR ADMINISTRATIVO I BELO HORIZONTE - COMARCA; BH-19PJ SAUDE-SECRETARIA 130PJ 0,00 1.738,23 4.345,58 0,00 0,00 0,00 0,00 2.078,00 8.161,81 877,22 922,82 0,00 0,00 1.800,04 6.361,77 31/03/2023
849 492501 ELINE CAMPOS DA FONSECA CUNHA ANALISTA DO MP PONTE NOVA - COMARCA; PONTE NOVA-PJ-05PJ 11.008,33 2.201,67 0,00 0,00 0,00 0,00 145,31 3.663,20 17.018,51 1.894,55 2.242,39 0,00 0,00 4.136,94 12.881,57 31/03/2023
850 618900 ELISA MOURA VIEIRA MARCATTI OFICIAL DO MP BELO HORIZONTE - COMARCA; GRUPO ESP PROM JUST DEF PROB ADM PAT PUB 6.694,66 669,47 0,00 0,00 0,00 0,00 0,00 3.028,00 10.392,13 959,93 891,80 0,00 0,00 1.851,73 8.540,40 31/03/2023
851 256500 ELISABETE NOGUEIRA ANALISTA DO MP RIBEIRÃO DAS NEVES - COMARCA; RIBEIRAO NEVES-SEC PJ EXECUCAO PENAL 16.695,70 8.347,85 0,00 0,00 0,00 0,00 0,00 2.078,00 27.121,55 3.787,92 4.767,39 0,00 0,00 8.555,31 18.566,24 31/03/2023
852 355000 ELISANGELA DARLANTONI RIBEIRO OFICIAL DO MP ARAXÁ - COMARCA; ARAXA-PJ-05PJ 10.661,25 3.198,38 0,00 0,00 0,00 0,00 0,00 2.078,00 15.937,63 1.998,49 2.340,32 0,00 0,00 4.338,81 11.598,82 31/03/2023
853 604400 ELISANGELA DEMASI FERREIRA MOREIRA ANALISTA DO MP CABO VERDE - COMARCA; CABO VERDE-PJ-UNPJ 11.008,33 1.100,83 0,00 0,00 0,00 0,00 44,40 2.562,37 14.715,93 982,16 2.095,65 0,00 0,00 3.077,81 11.638,12 31/03/2023
854 323800 ELISANGELA GONCALVES DE JESUS OFICIAL DO MP BELO HORIZONTE - COMARCA; DIRETORIA DE PESSOAL ADMINISTRATIVO - DPAD 11.008,33 3.302,50 0,00 0,00 0,00 0,00 262,37 4.940,17 19.513,37 2.070,68 2.444,54 0,00 0,00 4.515,22 14.998,15 31/03/2023
855 507400 ELISANGELA MIGUEL DA ROCHA SILVA ASSESSOR ADMINISTRATIVO II BELO HORIZONTE - COMARCA; EXTINTA-CGMP-DIV APOIO FISC ORIENT FUNCIONAL 0,00 0,00 6.694,66 0,00 0,00 0,00 0,00 2.078,00 8.772,66 877,22 1.090,80 0,00 0,00 1.968,02 6.804,64 31/03/2023
856 261400 ELISANGELA REZENDE MENDES OFICIAL DO MP POUSO ALEGRE - COMARCA; POUSO ALEGRE-PJ-05PJ 11.008,33 3.302,50 0,00 0,00 0,00 0,00 0,00 2.078,00 16.388,83 2.070,68 2.496,68 0,00 0,00 4.567,36 11.821,47 31/03/2023
857 534100 ELISANGELA ROSINE SILVA OFICIAL DO MP UBERABA - COMARCA; UBERABA-PJ-06PJ 6.694,66 1.338,93 0,00 0,00 0,00 0,00 730,84 2.747,47 11.511,90 1.173,44 1.201,29 0,00 0,00 2.374,73 9.137,17 31/03/2023
858 634300 ELIUDE GRACA DAMASIO ROSARIO FRANCELINO OFICIAL DO MP BELO HORIZONTE - COMARCA; BH-18PJ VIOLENCIA DOMESTICA-SECRETARIA 5.889,39 588,94 0,00 0,00 0,00 0,00 0,00 3.978,00 10.456,33 824,08 685,56 0,00 0,00 1.509,64 8.946,69 31/03/2023
859 461700 ELIZABETH ALEIXO DA PAZ ANALISTA DO MP JUIZ DE FORA - COMARCA; JUIZ DE FORA-PJ-18PJ 11.008,33 2.201,67 0,00 0,00 0,00 0,00 145,31 3.663,20 17.018,51 1.894,55 2.242,39 0,00 0,00 4.136,94 12.881,57 31/03/2023
860 227300 ELIZABETH COIMBRA FELIX OFICIAL DO MP JABOTICATUBAS - COMARCA; JABOTICATUBAS-PJ-UNPJ 16.169,47 8.084,74 0,00 0,00 0,00 0,00 533,59 7.899,01 32.686,81 3.661,62 4.689,33 0,00 0,00 8.350,95 24.335,86 31/03/2023
861 354800 ELIZABETH DOS REIS OFICIAL DO MP BELO HORIZONTE - COMARCA; DIVISAO DE MATERIAIS 11.008,33 3.302,50 0,00 0,00 0,00 0,00 0,00 2.078,00 16.388,83 2.070,68 2.444,54 0,00 0,00 4.515,22 11.873,61 31/03/2023
862 612000 ELIZABETH MARIA DE QUEIROZ TANIGUCHI OFICIAL DO MP BELO HORIZONTE - COMARCA; SUPERINTENDENCIA GESTÃO DE PESSOAS 6.081,20 608,12 0,00 0,00 0,00 0,00 0,00 2.078,00 8.767,32 855,73 734,88 0,00 0,00 1.590,61 7.176,71 31/03/2023
863 452800 ELIZANGELA MARIA DAVI OFICIAL DO MP ARCOS - COMARCA; ARCOS-PJ-01PJ 6.694,66 1.338,93 0,00 0,00 0,00 0,00 0,00 2.078,00 10.111,59 1.066,32 994,50 0,00 0,00 2.060,82 8.050,77 31/03/2023
864 496300 ELIZANGELA MARQUES PINTO COELHO OFICIAL DO MP BELO HORIZONTE - COMARCA; DIRETORIA DE PESSOAL ADMINISTRATIVO - DPAD 9.378,86 1.875,77 0,00 0,00 0,00 0,00 0,00 2.078,00 13.332,63 1.581,69 1.790,70 0,00 0,00 3.372,39 9.960,24 31/03/2023
865 422500 ELIZETE FORTES DA CUNHA ANALISTA DO MP RIBEIRÃO DAS NEVES - COMARCA; RIBEIRAO DAS NEVES-PJ-07PJ 16.169,47 3.233,89 0,00 0,00 0,00 0,00 498,02 7.510,94 27.412,32 2.885,49 3.620,92 0,00 0,00 6.506,41 20.905,91 31/03/2023
866 506100 ELLEM CRISTINA ROCHA FONSECA BOWEN ANALISTA DO MP GOVERNADOR VALADARES - COMARCA; COORD REG PJ DEF EDU DIR CRIANCA ADOL RIODOCE 11.008,33 2.201,67 0,00 0,00 0,00 0,00 0,00 2.078,00 15.288,00 1.894,55 2.242,39 0,00 0,00 4.136,94 11.151,06 31/03/2023
867 468200 ELLEN CRISTINA BERNARDES DARE ANALISTA DO MP TRÊS PONTAS - COMARCA; TRES PONTAS-PJ-02PJ 11.008,33 2.201,67 0,00 0,00 0,00 0,00 145,31 4.613,20 17.968,51 1.894,55 2.190,25 0,00 0,00 4.084,80 13.883,71 31/03/2023
868 418800 ELLEN CRISTINA DE QUEIROZ FERREIRA ANALISTA DO MP BELO HORIZONTE - COMARCA; CENTRAL DE APOIO TECNICO-SETOR CONTABIL 15.659,55 3.131,91 0,00 0,00 0,00 0,00 482,31 8.764,61 28.038,38 982,16 3.795,47 0,00 0,00 4.777,63 23.260,75 31/03/2023
869 328401 ELLEN CRISTINA FERREIRA MORAIS MONTEIRO ANALISTA DO MP CAMANDUCAIA - COMARCA; CAMANDUCAIA-PJ-UNPJ 15.659,55 3.131,91 0,00 0,00 0,00 0,00 0,00 2.078,00 20.869,46 2.787,58 3.427,43 0,00 0,00 6.215,01 14.654,45 31/03/2023
870 556100 ELLEN CRISTINE BIANCHIN DA SILVA OFICIAL DO MP SÃO GONÇALO DO SAPUCAÍ - COMARCA; SAO GONCALO DO SAPUCAI-PJ-02PJ 6.694,66 669,47 0,00 0,00 0,00 0,00 0,00 2.078,00 9.442,13 959,93 839,66 0,00 0,00 1.799,59 7.642,54 31/03/2023
871 714500 ELLEN PROENCA CARVALHO DE ARAUJO ASSESSOR PROMOTOR JUSTICA MARIANA - COMARCA; MARIANA-PJ-02PJ 0,00 0,00 7.857,77 0,00 0,00 0,00 0,00 2.078,00 9.935,77 877,22 1.462,79 0,00 0,00 2.340,01 7.595,76 31/03/2023
872 447100 ELLEN ROSANA DE MACEDO BORGES OFICIAL DO MP UBERLÂNDIA - COMARCA; UBERLANDIA-PJ-17PJ 9.684,23 1.936,85 0,00 0,00 0,00 0,00 42,61 2.542,84 14.206,53 1.640,32 1.875,35 0,00 0,00 3.515,67 10.690,86 31/03/2023
873 477700 ELMA JACOB OFICIAL DO MP BELO HORIZONTE - COMARCA; COORD DE GABINETE DO PGJ 9.378,86 7.503,09 0,00 0,00 0,00 2.482,06 497,01 7.499,93 27.360,95 2.482,06 3.773,18 0,00 0,00 6.255,24 21.105,71 31/03/2023
874 123300 ELMA PAULA DOS SANTOS COELHO OFICIAL DO MP BELO HORIZONTE - COMARCA; BH-19PJ SAUDE-SECRETARIA 130PJ 20.574,59 20.574,60 0,00 0,00 0,00 5.454,90 0,00 2.078,00 48.682,09 5.454,90 8.882,75 5.686,97 0,00 20.024,62 28.657,47 31/03/2023
875 728200 ELMITA XISTO DO VALLE ASSESSOR ADMINISTRATIVO I BELO HORIZONTE - COMARCA; DIRET DE FORMACAO, APERFEIC. E POS-GRADUACAO 0,00 0,00 4.345,58 0,00 0,00 0,00 0,00 2.078,00 6.423,58 644,55 560,92 0,00 0,00 1.205,47 5.218,11 31/03/2023
876 356500 ELOISA CARDOSO SILVA FRANCA OFICIAL DO MP PEÇANHA - COMARCA; PECANHA-PJ-SECRETARIA 6.694,66 2.008,40 0,00 0,00 0,00 0,00 0,00 2.078,00 10.781,06 1.173,44 1.149,15 0,00 0,00 2.322,59 8.458,47 31/03/2023
877 251901 ELOISA COSTA E SILVA ANALISTA DO MP BELO HORIZONTE - COMARCA; SUPER DE RECURSOS HUMANOS-COOP REMOTA 11.008,33 4.403,33 0,00 0,00 0,00 0,00 0,00 2.078,00 17.489,66 2.246,81 2.698,84 0,00 0,00 4.945,65 12.544,01 31/03/2023
878 400400 ELOIZA MARIA FERRI PIRES DA SILVA OFICIAL DO MP BELO HORIZONTE - COMARCA; ASSESSORIA DE COMUNICACAO INTEGRADA 9.684,23 1.936,85 0,00 0,00 0,00 0,00 42,61 2.542,84 14.206,53 1.640,32 1.875,35 0,00 0,00 3.515,67 10.690,86 31/03/2023
879 258000 ELSO CECIANO PALMEIRA OFICIAL DO MP BELO HORIZONTE - COMARCA; DIRET DE PESSOAL DO MINISTERIO PUBLICO - DPMP 14.224,47 11.379,58 5.287,54 0,00 0,00 0,00 1.927,69 7.589,63 40.408,91 4.105,19 6.888,07 0,00 0,00 10.993,26 29.415,65 31/03/2023
880 206900 ELVIRA RITA DOS SANTOS ANALISTA DO MP BELO HORIZONTE - COMARCA; CENTRAL DE APOIO TECNICO-SETOR CONTABIL 20.574,59 8.229,84 0,00 0,00 0,00 4.389,66 0,00 2.078,00 35.272,09 4.389,66 7.051,86 0,00 0,00 11.441,52 23.830,57 31/03/2023
881 506800 ELVIS FERREIRA DA SILVA ANALISTA DO MP BELO HORIZONTE - COMARCA; DIRETORIA DE SISTEMAS DE INFORMACAO 11.008,33 2.201,67 0,00 0,00 0,00 0,00 145,31 4.613,20 17.968,51 1.894,55 2.085,98 0,00 0,00 3.980,53 13.987,98 31/03/2023
882 602400 ELZA MARIA MOREIRA MUNIZ ANALISTA DO MP RIO PARANAÍBA - COMARCA; RIO PARANAIBA-PJ-UNPJ 11.008,33 1.100,83 0,00 0,00 0,00 0,00 44,40 2.562,37 14.715,93 1.718,41 1.883,82 0,00 0,00 3.602,23 11.113,70 31/03/2023
883 368401 ELZIRA SIMOES DOS SANTOS ASSESSOR DE GABINETE I BELO HORIZONTE - COMARCA; ASSESSORIA DE COMUNICACAO INTEGRADA 0,00 6.467,79 16.169,47 0,00 0,00 0,00 0,00 2.078,00 24.715,26 877,22 5.527,15 0,00 0,00 6.404,37 18.310,89 31/03/2023
884 437400 EMANOELLE DA SILVA RODRIGUES OFICIAL DO MP UNAÍ - COMARCA; UNAI-PJ-03PJ 8.932,15 1.786,43 0,00 0,00 0,00 0,00 0,00 3.028,00 13.746,58 1.495,92 1.614,73 0,00 0,00 3.110,65 10.635,93 31/03/2023
885 458900 EMANUELLE CONRAD SILVA FREDERICO NAVES ANALISTA DO MP ALFENAS - COMARCA; ALFENAS-PJ-05PJ 15.659,55 3.131,91 0,00 0,00 0,00 0,00 0,00 3.028,00 21.819,46 2.787,58 3.479,57 0,00 0,00 6.267,15 15.552,31 31/03/2023
886 284100 EMERSON MAGNO ALMEIDA PEDROSA DA FONSECA ANALISTA DO MP BELO HORIZONTE - COMARCA; CENTRAL DE APOIO TECNICO-SETOR CONTABIL 20.574,59 6.172,38 0,00 0,00 0,00 0,00 490,36 8.377,39 35.614,72 4.060,46 3.884,33 0,00 0,00 7.944,79 27.669,93 31/03/2023
887 179900 EMERSON MORAIS DIAS OFICIAL DO MP BELO HORIZONTE - COMARCA; SUPERINTENDÊNCIA DE ENGENHARIA E ARQUITETURA 19.037,29 7.614,92 0,00 0,00 0,00 0,00 488,62 7.408,44 34.549,27 4.045,30 5.347,54 0,00 0,00 9.392,84 25.156,43 31/03/2023
888 488700 EMERSON SIQUEIRA DE SOUSA TEIXEIRA ANALISTA DO MP ITANHOMI - COMARCA; ITANHOMI-PJ-UNPJ 11.008,33 2.201,67 0,00 0,00 0,00 0,00 532,80 7.890,40 21.633,20 1.894,55 2.085,98 0,00 0,00 3.980,53 17.652,67 31/03/2023
889 194200 EMILIA ALVES FERREIRA RAMOS OFICIAL DO MP UBERLÂNDIA - COMARCA; UBERLANDIA-PJ-SEC CIVEIS CRIMINAIS 13.341,69 5.336,68 0,00 0,00 0,00 0,00 547,90 8.055,08 27.281,35 2.769,49 3.505,58 0,00 0,00 6.275,07 21.006,28 31/03/2023
890 679500 EMILY DIAS LEMOS E SILVA ASSESSOR PROCURADOR JUSTICA BELO HORIZONTE - COMARCA; GABINETE DE PROCURADOR DE JUSTIÇA - SALA 307 0,00 0,00 7.857,77 0,00 0,00 0,00 0,00 3.028,00 10.885,77 877,22 1.358,52 0,00 0,00 2.235,74 8.650,03 31/03/2023
891 620700 EMILY FONTANA DE SIQUEIRA ANALISTA DO MP BELO HORIZONTE - COMARCA; BH-18PJ VIOLENCIA DOMESTICA-SECRETARIA 10.325,15 1.032,52 0,00 0,00 0,00 0,00 0,00 3.028,00 14.385,67 1.598,18 1.762,36 0,00 0,00 3.360,54 11.025,13 31/03/2023
892 297000 ENEIDA SOARES COSTA MELO ANALISTA DO MP PIUMHI - COMARCA; PIUMHI-PJ-01PJ 20.574,59 6.172,38 0,00 0,00 0,00 0,00 490,36 7.427,39 34.664,72 4.060,46 5.369,43 0,00 0,00 9.429,89 25.234,83 31/03/2023
893 276000 ENEZIO RODRIGUES DE SOUZA FILHO OFICIAL DO MP UBERLÂNDIA - COMARCA; UBERLANDIA-PJ-10PJ 11.008,33 3.302,50 0,00 0,00 0,00 0,00 0,00 2.078,00 16.388,83 2.070,68 2.496,68 0,00 0,00 4.567,36 11.821,47 31/03/2023
894 387700 ENI MARIA DOS REIS OFICIAL DO MP POUSO ALEGRE - COMARCA; POUSO ALEGRE-PJ-07PJ 11.008,33 3.302,50 0,00 0,00 0,00 0,00 1.100,83 2.078,00 17.489,66 2.246,81 2.750,97 0,00 0,00 4.997,78 12.491,88 31/03/2023
895 605100 ENIA MAIA ASSESSOR ADMINISTRATIVO IV BELO HORIZONTE - COMARCA; DIRETORIA DE ORCAMENTO-DIOR/SPC 12.920,95 1.292,10 0,00 0,00 0,00 0,00 260,57 4.920,61 19.394,23 959,93 2.775,25 0,00 0,00 3.735,18 15.659,05 31/03/2023
896 612200 ENILDO GOMES MEIRA FILHO ANALISTA DO MP BELO HORIZONTE - COMARCA; BH-23PJ INFRACIONAL-ASS JURIDICA 10.325,15 1.032,52 0,00 0,00 0,00 0,00 2.920,54 3.028,00 17.306,21 2.065,46 2.332,73 0,00 0,00 4.398,19 12.908,02 31/03/2023
897 553700 ENIVALDO NOVATO PUBLIO ANALISTA DO MP DIVINÓPOLIS - COMARCA; DIVINOPOLIS-PJ-09PJ 11.008,33 1.100,83 0,00 0,00 0,00 0,00 0,00 2.078,00 14.187,16 1.718,41 1.935,96 0,00 0,00 3.654,37 10.532,79 31/03/2023
898 680600 ENZO JOSE FERES SOUZA JABER ASSESSOR PROMOTOR JUSTICA NOVO CRUZEIRO - COMARCA; NOVO CRUZEIRO-PJ-SECRETARIA 0,00 0,00 7.857,77 0,00 0,00 0,00 0,00 1.658,92 9.516,69 877,22 1.462,79 0,00 38,41 2.378,42 7.138,27 31/03/2023
899 417300 ERIC BARATTI DA SILVA ANALISTA DO MP FRUTAL - COMARCA; FRUTAL-PJ-04PJ 12.118,97 2.423,79 0,00 0,00 0,00 0,00 0,00 2.078,00 16.620,76 2.107,79 2.550,26 0,00 0,00 4.658,05 11.962,71 31/03/2023
900 637600 ERIC DA ROCHA CHEHUEN ANALISTA DO MP LIMA DUARTE - COMARCA; LIMA DUARTE-PJ-UNPJ 9.999,62 999,96 0,00 0,00 0,00 0,00 0,00 2.078,00 13.077,58 982,16 1.885,43 0,00 0,00 2.867,59 10.209,99 31/03/2023
901 398900 ERIC TEIXEIRA SILVA OFICIAL DO MP UBERLÂNDIA - COMARCA; UBERLANDIA-PJ-SEC CIVEIS CRIMINAIS 10.661,25 2.132,25 0,00 0,00 0,00 0,00 0,00 2.078,00 14.871,50 1.827,91 2.146,18 0,00 0,00 3.974,09 10.897,41 31/03/2023
902 703600 ERICA CORDEIRO SANTOS ASSESSOR PROMOTOR JUSTICA MINAS NOVAS - COMARCA; MINAS NOVAS-PJ-UNPJ 0,00 0,00 7.857,77 0,00 0,00 0,00 0,00 2.078,00 9.935,77 877,22 1.462,79 0,00 0,00 2.340,01 7.595,76 31/03/2023
903 274200 ERICA DE SOUZA ANDRADE OFICIAL DO MP CURVELO - COMARCA; CURVELO-PJ-03PJ 13.341,69 4.002,51 0,00 0,00 0,00 0,00 508,76 7.628,14 25.481,10 2.556,02 3.145,25 0,00 0,00 5.701,27 19.779,83 31/03/2023
904 225700 ERICA GOMES DO COUTO OFICIAL DO MP BELO HORIZONTE - COMARCA; BH-21PJ TUTELA FUNDACOES-SECRETARIA 16.695,70 6.678,28 0,00 0,00 0,00 0,00 0,00 3.028,00 26.401,98 3.520,79 4.590,27 0,00 0,00 8.111,06 18.290,92 31/03/2023
905 632600 ERICA LEONOR MARTINS OFICIAL DO MP RESENDE COSTA - COMARCA; RESENDE COSTA-PJ-UNPJ 6.483,63 648,36 0,00 0,00 0,00 0,00 0,00 2.078,00 9.209,99 923,95 837,85 0,00 0,00 1.761,80 7.448,19 31/03/2023
906 524800 ERICA MACHADO DA COSTA E SOUZA ANALISTA DO MP BELO HORIZONTE - COMARCA; ASSESS TECNICO-JUR JUNTO AS PROC. DE JUST 12.118,97 2.423,79 0,00 0,00 0,00 0,00 0,00 2.078,00 16.620,76 2.107,79 2.550,26 0,00 0,00 4.658,05 11.962,71 31/03/2023
907 249500 ERICA RODRIGUES ANDRADE OFICIAL DO MP SÃO FRANCISCO - COMARCA; SAO FRANCISCO-PJ-02PJ 11.008,33 4.403,33 0,00 0,00 0,00 0,00 339,06 5.776,80 21.527,52 2.246,81 2.698,84 0,00 0,00 4.945,65 16.581,87 31/03/2023
908 260800 ERICA VIANA GIARDINI DE OLIVEIRA OFICIAL DO MP BELO HORIZONTE - COMARCA; DIRETORIA GESTAO COMPRAS LICITACOES 11.736,91 4.694,76 0,00 0,00 0,00 0,00 3.964,34 2.078,00 22.474,01 2.597,81 4.025,15 0,00 0,00 6.622,96 15.851,05 31/03/2023
909 299800 ERICH DOUGLAS RIBEIRO GARCIA ANALISTA DO MP BELO HORIZONTE - COMARCA; CENTRAL DE APOIO TECNICO-SETOR CONTABIL 19.791,01 5.937,30 0,00 0,00 0,00 0,00 471,69 7.223,66 33.423,66 3.897,48 5.134,12 0,00 0,00 9.031,60 24.392,06 31/03/2023
910 365000 ERICK EDUARDO JOSE DA SILVA OFICIAL DO MP JUIZ DE FORA - COMARCA; JUIZ DE FORA-PJ-12PJ 6.694,66 2.008,40 0,00 0,00 0,00 0,00 0,00 2.078,00 10.781,06 1.173,44 1.201,29 0,00 0,00 2.374,73 8.406,33 31/03/2023
911 227400 ERIKA DE LAET GOULART BOECHAT OFICIAL DO MP BELO HORIZONTE - COMARCA; BH-17PJ PATRIMONIO PUBLICO-SECRETARIA 16.695,70 6.678,28 0,00 0,00 0,00 0,00 514,23 7.687,76 31.575,97 3.520,79 4.538,13 0,00 0,00 8.058,92 23.517,05 31/03/2023
912 681301 ERIKA FERNANDA ELISEU FERREIRA ASSESSOR PROCURADOR JUSTICA BELO HORIZONTE - COMARCA; GABINETE DE PROCURADOR DE JUSTIÇA - SALA 411 0,00 0,00 7.857,77 0,00 2.619,26 0,00 547,43 8.049,91 19.074,37 857,57 2.188,49 0,00 0,00 3.046,06 16.028,31 31/03/2023
913 285100 ERIKA FERREIRA DA SILVA OFICIAL DO MP JUIZ DE FORA - COMARCA; JUIZ DE FORA-PJ-11PJ 11.008,33 3.302,50 0,00 0,00 0,00 0,00 262,37 4.940,17 19.513,37 2.070,68 2.496,68 0,00 0,00 4.567,36 14.946,01 31/03/2023
914 420100 ERIKA JEANINE VERSIANI DE CASTRO ANALISTA DO MP BELO HORIZONTE - COMARCA; CAO-EDUCACAO 16.169,47 3.233,89 0,00 0,00 0,00 0,00 498,02 7.510,94 27.412,32 2.885,49 3.673,05 0,00 0,00 6.558,54 20.853,78 31/03/2023
915 677100 ERIKA LAYS CARDOSO FERNANDES ASSESSOR PROMOTOR JUSTICA GRAO MOGOL - COMARCA; GRAO MOGOL-PJ-UNPJ 0,00 0,00 7.857,77 0,00 0,00 0,00 0,00 2.078,00 9.935,77 877,22 1.462,79 0,00 0,00 2.340,01 7.595,76 31/03/2023
916 606900 ERIKA MARIA BARBOSA ANALISTA DO MP BELO HORIZONTE - COMARCA; CAO-SAUDE 10.325,15 1.032,52 0,00 0,00 0,00 0,00 0,00 2.078,00 13.435,67 1.598,18 1.762,36 0,00 0,00 3.360,54 10.075,13 31/03/2023
917 491000 ERIKA ROCHA PEREIRA E SILVA COORDENADOR II BELO HORIZONTE - COMARCA; DIR GOVERNANCA TECNOLOGIA INFORMACAO 18.312,36 3.662,47 0,00 0,00 0,00 0,00 483,45 7.351,96 29.810,24 2.034,43 4.614,25 0,00 0,00 6.648,68 23.161,56 31/03/2023
918 283201 ERIKA STEHLING COORDENADOR I BELO HORIZONTE - COMARCA; CENTRAL DE APOIO TECNICO-SETOR DE ENGENHARIA 14.687,60 2.937,52 0,00 0,00 0,00 0,00 129,25 3.488,01 21.242,38 1.894,55 3.456,55 0,00 0,00 5.351,10 15.891,28 31/03/2023
919 254000 ERLANDIA DA SILVA MENDES OFICIAL DO MP IPATINGA - COMARCA; IPATINGA-PJ-03PJ 15.659,55 7.829,78 0,00 0,00 0,00 0,00 516,77 7.715,44 31.721,54 3.539,24 4.460,50 0,00 0,00 7.999,74 23.721,80 31/03/2023
920 348500 ERNILANDIA DE OLIVEIRA DIAS OFICIAL DO MP MONTES CLAROS - COMARCA; MONTES CLAROS-PJ-16PJ 11.008,33 3.302,50 0,00 0,00 0,00 0,00 524,73 7.802,33 22.637,89 2.070,68 2.496,68 0,00 0,00 4.567,36 18.070,53 31/03/2023
921 199300 ERTON PORTINARI DE ANDRADE OFICIAL DO MP SETE LAGOAS - COMARCA; SETE LAGOAS-PJ-05PJ 18.312,36 9.156,18 0,00 0,00 0,00 0,00 503,59 7.571,71 35.543,84 4.175,91 5.002,18 0,00 0,00 9.178,09 26.365,75 31/03/2023
922 618800 ESLY DE CARLA AYALLA BARBOSA MENDES OFICIAL DO MP NOVA LIMA - COMARCA; NOVA LIMA-PJ-SECRETARIA 6.081,20 608,12 0,00 0,00 0,00 0,00 0,00 2.078,00 8.767,32 855,73 734,88 0,00 0,00 1.590,61 7.176,71 31/03/2023
923 537000 ESTANISLAU CORREIA ALMEIDA JUNIOR OFICIAL DO MP UBERLÂNDIA - COMARCA; UBERLANDIA-PJ-25PJ 6.694,66 1.338,93 0,00 0,00 0,00 0,00 865,84 4.220,29 13.119,72 1.173,44 1.201,29 0,00 0,00 2.374,73 10.744,99 31/03/2023
924 692100 ESTEFANIA FARIA FERREIRA ASSESSOR PROCURADOR JUSTICA BELO HORIZONTE - COMARCA; GABINETE DE PROCURADOR DE JUSTIÇA - SALA 814 0,00 0,00 7.857,77 0,00 0,00 0,00 0,00 2.078,00 9.935,77 877,22 1.462,79 0,00 0,00 2.340,01 7.595,76 31/03/2023
925 326900 ESTER ALICE PIMENTA OFICIAL DO MP BELO HORIZONTE - COMARCA; COORD DE INCLUSAO E MOBILIZACAO SOCIAIS 11.008,33 3.302,50 0,00 0,00 0,00 0,00 262,37 4.940,17 19.513,37 2.070,68 2.496,68 0,00 0,00 4.567,36 14.946,01 31/03/2023
926 503700 ESTHER GONCALVES FONSECA ANALISTA DO MP BELO HORIZONTE - COMARCA; DIR CRIACAO E MIDIAS 11.008,33 2.201,67 0,00 0,00 0,00 0,00 0,00 2.078,00 15.288,00 1.894,55 2.242,39 0,00 0,00 4.136,94 11.151,06 31/03/2023
927 475600 ETIENE DE FATIMA OLIVEIRA PEREIRA ANALISTA DO MP PATROCÍNIO - COMARCA; PATROCINIO-PJ-04PJ 11.008,33 2.201,67 0,00 0,00 0,00 0,00 0,00 2.078,00 15.288,00 982,16 2.302,77 0,00 0,00 3.284,93 12.003,07 31/03/2023
928 428800 EUGENIA RODRIGUES TRAJANO BORGES ANALISTA DO MP UBERABA - COMARCA; UBERABA-PJ-10PJ 15.659,55 3.131,91 0,00 0,00 0,00 0,00 0,00 3.028,00 21.819,46 2.787,58 3.531,71 0,00 0,00 6.319,29 15.500,17 31/03/2023
929 272700 EUGENIO DE BARCELOS FILHO OFICIAL DO MP FRUTAL - COMARCA; FRUTAL-PJ-03PJ 11.008,33 3.302,50 0,00 0,00 0,00 0,00 262,37 4.940,17 19.513,37 2.070,68 2.496,68 0,00 0,00 4.567,36 14.946,01 31/03/2023
930 254100 EULALIA ALVES MIRANDA LUCAS OFICIAL DO MP ALMENARA - COMARCA; ALMENARA-PJ-02PJ 14.224,47 7.112,24 0,00 0,00 0,00 0,00 547,64 8.052,28 29.936,63 3.194,82 4.015,39 0,00 0,00 7.210,21 22.726,42 31/03/2023
931 641200 EUNICE ELVIRA DA SILVA MATOS OFICIAL DO MP BELO HORIZONTE - COMARCA; BH-14PJ DEFESA CONSUMIDOR-SECRETARIA 5.889,39 588,94 0,00 0,00 0,00 0,00 0,00 2.078,00 8.556,33 824,08 685,56 0,00 0,00 1.509,64 7.046,69 31/03/2023
932 557900 EURIPEDES JOSUE PERES OFICIAL DO MP IBIÁ - COMARCA; IBIA-PJ-UNPJ 6.694,66 669,47 0,00 0,00 2.454,71 0,00 540,04 7.969,30 18.328,18 959,93 1.566,84 0,00 0,00 2.526,77 15.801,41 31/03/2023
933 225800 EURO CESAR VIEIRA BARBOSA ANALISTA DO MP BELO HORIZONTE - COMARCA; BH-17PJ PATRIMONIO PUBLICO-SECRETARIA 20.574,59 8.229,84 0,00 0,00 0,00 0,00 528,08 7.838,89 37.171,40 4.389,66 5.740,43 0,00 0,00 10.130,09 27.041,31 31/03/2023
934 199400 EUSTAQUIO ADAILTON LIMA E SILVA OFICIAL DO MP MANGA - COMARCA; MANGA-PJ-01PJ 18.312,36 12.818,66 0,00 0,00 0,00 0,00 456,59 7.058,96 38.646,57 4.761,91 6.225,73 0,00 0,00 10.987,64 27.658,93 31/03/2023
935 548000 EVA VILMA LEAO REIS JULIO OFICIAL DO MP BELO HORIZONTE - COMARCA; BH-07PJ 01 TRIBUNAL JURI-SECRETARIA 6.694,66 2.677,86 0,00 0,00 0,00 0,00 0,00 2.078,00 11.450,52 1.280,55 1.355,93 0,00 0,00 2.636,48 8.814,04 31/03/2023
936 517000 EVALDO SENA COSTA FILHO ANALISTA DO MP CONTAGEM - COMARCA; CONTAGEM-PJ-20PJ 11.008,33 4.403,33 0,00 0,00 0,00 0,00 0,00 2.078,00 17.489,66 2.246,81 2.646,70 0,00 0,00 4.893,51 12.596,15 31/03/2023
937 217500 EVELANGE LEAO RABELO ASSESSOR ADMINISTRATIVO II BELO HORIZONTE - COMARCA; CAO-PESSOAS IDOSAS E PESSOAS COM DEFICIENCIA 0,00 2.677,86 6.694,66 0,00 0,00 0,00 0,00 2.078,00 11.450,52 877,22 1.879,35 0,00 0,00 2.756,57 8.693,95 31/03/2023
938 679600 EVERTON BARBOSA DA SILVA ASSESSOR PROCURADOR JUSTICA BELO HORIZONTE - COMARCA; GABINETE DE PROCURADOR DE JUSTIÇA - SALA 510 0,00 0,00 7.857,77 0,00 0,00 0,00 0,00 2.078,00 9.935,77 877,22 1.462,79 0,00 0,00 2.340,01 7.595,76 31/03/2023
939 540400 EVIE SARAMELLA DE RESENDE OFICIAL DO MP BARBACENA - COMARCA; BARBACENA-PJ-05PJ 6.694,66 669,47 0,00 0,00 0,00 0,00 0,00 2.078,00 9.442,13 959,93 891,80 0,00 0,00 1.851,73 7.590,40 31/03/2023
940 469000 EWERTON CARDOSO DE SA RODRIGUES ANALISTA DO MP CAMPO BELO - COMARCA; CAMPO BELO-PJ-02PJ 11.008,33 2.201,67 0,00 0,00 0,00 0,00 145,31 3.663,20 17.018,51 1.894,55 2.138,11 0,00 0,00 4.032,66 12.985,85 31/03/2023
941 368900 FABIANA BARBOSA SIQUEIRA OFICIAL DO MP BELO HORIZONTE - COMARCA; CAO-ORDEM ECONOMICA E TRIBUTARIA-SECRETARIA 12.118,97 3.635,69 0,00 0,00 0,00 0,00 346,60 5.859,12 21.960,38 2.301,69 2.778,07 0,00 0,00 5.079,76 16.880,62 31/03/2023
942 273800 FABIANA CARNEIRO AMORIM OFICIAL DO MP BELO HORIZONTE - COMARCA; BH-23PJ CIVEL-COORD ADM CIVEL 13.776,02 4.132,81 3.876,29 0,00 0,00 0,00 479,27 7.306,43 29.570,82 2.646,36 4.341,66 0,00 0,00 6.988,02 22.582,80 31/03/2023
943 519300 FABIANA DE OLIVEIRA LOUREIRO ANALISTA DO MP BELO HORIZONTE - COMARCA; BH-09PJ AUDITORIA MILITAR-SECRETARIA 11.008,33 2.201,67 0,00 0,00 0,00 0,00 532,80 7.890,40 21.633,20 1.894,55 2.242,39 0,00 0,00 4.136,94 17.496,26 31/03/2023
944 363400 FABIANA DOURADO DUPIN VIEGAS ANALISTA DO MP BELO HORIZONTE - COMARCA; GABINETE DE PROCURADOR DE JUSTIÇA - SALA 705 19.037,29 5.711,19 0,00 0,00 0,00 0,00 0,00 2.078,00 26.826,48 3.740,71 4.855,64 0,00 0,00 8.596,35 18.230,13 31/03/2023
945 410800 FABIANA DUARTE QUITITE ANALISTA DO MP BELO HORIZONTE - COMARCA; BH-15PJ M AMB PAT HIST CULT-GAB 116PJ 16.169,47 3.233,89 0,00 0,00 0,00 0,00 498,02 7.510,94 27.412,32 2.885,49 3.673,05 0,00 0,00 6.558,54 20.853,78 31/03/2023
946 419500 FABIANA EULALIA DOS SANTOS ANALISTA DO MP SÃO JOÃO DEL REI - COMARCA; SAO JOAO DEL REI-PJ-01PJ 16.169,47 3.233,89 0,00 0,00 0,00 0,00 498,02 7.510,94 27.412,32 2.885,49 3.673,05 0,00 0,00 6.558,54 20.853,78 31/03/2023
947 725200 FABIANA LOPES DE JESUS ASSESSOR PROMOTOR JUSTICA CONTAGEM - COMARCA; CONTAGEM-PJ-01PJ 0,00 0,00 7.857,77 0,00 0,00 0,00 0,00 2.078,00 9.935,77 877,22 1.462,79 0,00 0,00 2.340,01 7.595,76 31/03/2023
948 700300 FABIANA MARCIA DE SOUZA ASSESSOR ADMINISTRATIVO II BELO HORIZONTE - COMARCA; DIRET DE CONTROLE E DE MANUTENCAO DE IMOVEIS 0,00 0,00 6.694,66 0,00 2.231,55 0,00 540,04 7.969,30 17.435,55 698,50 1.805,76 0,00 0,00 2.504,26 14.931,29 31/03/2023
949 331500 FABIANA PACHECO OFICIAL DO MP GUAXUPÉ - COMARCA; GUAXUPE-PJ-01PJ 11.008,33 3.302,50 0,00 0,00 0,00 0,00 0,00 2.078,00 16.388,83 2.070,68 2.392,41 0,00 0,00 4.463,09 11.925,74 31/03/2023
950 510700 FABIANA PEREIRA SANTOS BORGES ANALISTA DO MP BELO HORIZONTE - COMARCA; DIRETORIA DE SISTEMAS DE INFORMACAO 11.008,33 2.201,67 4.939,72 0,00 0,00 0,00 0,00 2.078,00 20.227,72 1.894,55 3.548,67 0,00 0,00 5.443,22 14.784,50 31/03/2023
951 181700 FABIANA SOUZA FERREIRA OFICIAL DO MP BELO HORIZONTE - COMARCA; BH-19PJ SAUDE-SECRETARIA 150PJ 6.694,66 2.677,86 0,00 0,00 0,00 0,00 0,00 2.078,00 11.450,52 1.280,55 1.251,66 0,00 0,00 2.532,21 8.918,31 31/03/2023
952 272900 FABIANA STOCKLER LEITE OFICIAL DO MP LAJINHA - COMARCA; LAJINHA-PJ-SECRETARIA 11.008,33 5.504,17 0,00 0,00 0,00 0,00 423,82 6.701,50 23.637,82 2.422,95 2.953,13 0,00 0,00 5.376,08 18.261,74 31/03/2023
953 225500 FABIANE DE FATIMA PORTELLA ANALISTA DO MP BELO HORIZONTE - COMARCA; BH-18PJ DIREITOS HUMANOS-SECRETARIA 20.574,59 8.229,84 0,00 0,00 0,00 0,00 0,00 2.078,00 30.882,43 4.389,66 5.844,70 0,00 0,00 10.234,36 20.648,07 31/03/2023
954 433800 FABIANE DINIZ MATTOS ANALISTA DO MP BELO HORIZONTE - COMARCA; BH-23PJ INFRACIONAL-ASS JURIDICA 16.169,47 3.233,89 0,00 0,00 0,00 0,00 3.991,55 3.978,00 27.372,91 3.524,13 4.595,10 0,00 0,00 8.119,23 19.253,68 31/03/2023
955 455000 FABIANO CARVALHO DA SILVA ANALISTA DO MP LAVRAS - COMARCA; LAVRAS-PJ-05PJ 11.008,33 2.201,67 0,00 0,00 0,00 0,00 145,31 3.663,20 17.018,51 1.894,55 2.242,39 0,00 0,00 4.136,94 12.881,57 31/03/2023
956 498800 FABIANO FURTADO PESSOA COELHO ANALISTA DO MP BELO HORIZONTE - COMARCA; DIRETORIA DE REDES E BANCOS DE DADOS 11.008,33 2.201,67 3.585,64 0,00 0,00 0,00 0,00 2.078,00 18.873,64 1.894,55 3.124,17 0,00 0,00 5.018,72 13.854,92 31/03/2023
957 663000 FABIANO MARQUES CORREA ASSESSOR ADMINISTRATIVO II BELO HORIZONTE - COMARCA; DIRETORIA DE SUPORTE E MANUTENCAO 0,00 0,00 6.694,66 0,00 0,00 0,00 0,00 2.078,00 8.772,66 877,22 1.142,94 0,00 0,00 2.020,16 6.752,50 31/03/2023
958 394600 FABIANO PALHARES SILVA ANALISTA DO MP BELO HORIZONTE - COMARCA; CENTRAL DE APOIO TECN-SETOR DE MEIO AMBIENTE 16.695,70 3.339,14 0,00 0,00 6.678,28 0,00 514,23 7.687,76 34.915,11 2.986,52 5.603,32 0,00 0,00 8.589,84 26.325,27 31/03/2023
959 676600 FABIANO RESENDE VELOSO ASSESSOR PROCURADOR JUSTICA BELO HORIZONTE - COMARCA; GABINETE DE PROCURADOR DE JUSTIÇA - SALA 1002 0,00 0,00 7.857,77 0,00 0,00 0,00 0,00 2.078,00 9.935,77 877,22 1.462,79 0,00 0,00 2.340,01 7.595,76 31/03/2023
960 444400 FABIANO SARAIVA MEDEIROS ANALISTA DO MP BETIM - COMARCA; BETIM-PJ-11PJ 15.659,55 3.131,91 0,00 0,00 0,00 0,00 0,00 2.078,00 20.869,46 2.787,58 3.427,43 0,00 0,00 6.215,01 14.654,45 31/03/2023
961 408700 FABIANO SOARES PORTILHO ANALISTA DO MP JUIZ DE FORA - COMARCA; GAECO REGIONAL DA ZONA DA MATA-JUIZ DE FORA 16.169,47 3.233,89 0,00 0,00 0,00 0,00 498,02 7.510,94 27.412,32 2.885,49 3.673,05 0,00 0,00 6.558,54 20.853,78 31/03/2023
962 442600 FABIO CARVALHO VIEIRA ANALISTA DO MP MONTES CLAROS - COMARCA; MONTES CLAROS-PJ-06PJ 11.008,33 2.201,67 0,00 0,00 0,00 0,00 0,00 2.078,00 15.288,00 1.894,55 2.242,39 0,00 0,00 4.136,94 11.151,06 31/03/2023
963 716600 FABIO DAMASCENA MONTEIRO DE CARVALHO ASSESSOR PROMOTOR JUSTICA JACINTO - COMARCA; JACINTO-PJ-UNPJ 0,00 0,00 7.857,77 0,00 0,00 0,00 0,00 2.078,00 9.935,77 877,22 1.462,79 0,00 0,00 2.340,01 7.595,76 31/03/2023
964 702700 FABIO JUNIOR COSTA BARREIROS ASSESSOR ADMINISTRATIVO II BELO HORIZONTE - COMARCA; DIVISAO DE MANUTENCAO PREDIAL 0,00 0,00 6.694,66 0,00 0,00 0,00 1.800,96 2.078,00 10.573,62 877,22 1.142,98 0,00 0,00 2.020,20 8.553,42 31/03/2023
965 240101 FABIO JUNQUEIRA DE ASSIS FONSECA OFICIAL DO MP BELO HORIZONTE - COMARCA; BH-17PJ PATRIMONIO PUBLICO-SECRETARIA 9.223,00 2.766,90 0,00 0,00 0,00 0,00 0,00 2.078,00 14.067,90 1.699,33 1.960,55 0,00 0,00 3.659,88 10.408,02 31/03/2023
966 271500 FABIO LUIZ VIEIRA OFICIAL DO MP SANTA VITÓRIA - COMARCA; SANTA VITORIA-PJ-UNPJ 11.008,33 3.302,50 0,00 0,00 0,00 0,00 262,37 4.990,60 19.563,80 2.070,68 2.444,54 0,00 0,00 4.515,22 15.048,58 31/03/2023
967 213100 FABIO PRATES GONCALVES ASSESSOR ADMINISTRATIVO IV BELO HORIZONTE - COMARCA; DIR RELACOES INSTITUCIONAIS 0,00 5.168,38 12.920,95 0,00 0,00 0,00 0,00 2.078,00 20.167,33 877,22 4.120,06 0,00 0,00 4.997,28 15.170,05 31/03/2023
968 436700 FABIO SANTIAGO DE CARVALHO OFICIAL DO MP POÇO FUNDO - COMARCA; POCO FUNDO-PJ-UNPJ 9.999,62 1.999,92 0,00 0,00 0,00 0,00 44,00 2.557,98 14.601,52 1.700,87 1.962,77 0,00 0,00 3.663,64 10.937,88 31/03/2023
969 208400 FABIOLA DE SOUSA CARDOSO ANALISTA DO MP BELO HORIZONTE - COMARCA; CGMP-ASSESSORIA JURIDICA 20.574,59 8.229,84 5.493,71 0,00 0,00 0,00 503,04 7.565,70 42.366,88 4.389,66 7.355,47 0,00 0,00 11.745,13 30.621,75 31/03/2023
970 392200 FABIOLA LEROY COSTA ANALISTA DO MP ESMERALDAS - COMARCA; ESMERALDAS-PJ-01PJ 11.008,33 2.201,67 0,00 0,00 0,00 0,00 0,00 3.978,00 17.188,00 1.894,55 2.242,39 0,00 0,00 4.136,94 13.051,06 31/03/2023
971 409000 FABIOLA MONTEIRO DE CARVALHO CASTRO ANALISTA DO MP BOM SUCESSO - COMARCA; BOM SUCESSO-PJ-UNPJ 13.776,02 2.755,20 0,00 0,00 0,00 0,00 0,00 2.078,00 18.609,22 2.425,94 3.009,59 0,00 0,00 5.435,53 13.173,69 31/03/2023
972 525800 FABRICIA ALVES DANTAS OFICIAL DO MP MONTES CLAROS - COMARCA; MONTES CLAROS-PJ-01PJ 8.650,50 1.730,10 0,00 0,00 0,00 0,00 0,00 2.078,00 12.458,60 1.441,84 1.536,66 0,00 0,00 2.978,50 9.480,10 31/03/2023
973 263400 FABRICIA PINTO TEIXEIRA SANTIAGO OFICIAL DO MP BELO HORIZONTE - COMARCA; CAO-FUNDACOES-SECRETARIA 15.659,55 4.697,87 0,00 0,00 0,00 0,00 522,51 7.778,08 28.658,01 3.038,14 3.789,17 0,00 0,00 6.827,31 21.830,70 31/03/2023
974 420800 FABRICIO BERNARDES DE OLIVEIRA OFICIAL DO MP ITURAMA - COMARCA; ITURAMA-PJ-02PJ 9.999,62 1.999,92 0,00 0,00 0,00 0,00 44,00 3.507,98 15.551,52 1.700,87 1.910,64 0,00 0,00 3.611,51 11.940,01 31/03/2023
975 474000 FABRICIO DE FREITAS SALES ANALISTA DO MP MONTES CLAROS - COMARCA; COORD REG PP NORTE MINAS GERAIS MONTES CLAROS 11.008,33 2.201,67 0,00 0,00 0,00 0,00 145,31 3.663,20 17.018,51 1.894,55 2.242,39 0,00 0,00 4.136,94 12.881,57 31/03/2023
976 510100 FABRICIO FURTADO ASSIS DO CARMO ANALISTA DO MP BELO HORIZONTE - COMARCA; SERVICO MEDICO-DEPTO PERIC MEDICA SAUDE OCUP 11.008,33 2.201,67 0,00 0,00 0,00 0,00 1.053,33 3.978,00 18.241,33 1.894,55 2.532,05 0,00 0,00 4.426,60 13.814,73 31/03/2023
977 519600 FABRICIO GONTIJO SALVATI ANALISTA DO MP JUIZ DE FORA - COMARCA; JUIZ DE FORA-CAO ESPECIALIZADO-SECRETARIA 11.008,33 2.201,67 0,00 0,00 0,00 0,00 532,80 7.890,40 21.633,20 1.894,55 2.242,39 0,00 0,00 4.136,94 17.496,26 31/03/2023
978 637400 FABRICIO HENRIQUE DA SILVA PASSOS ANALISTA DO MP BELO HORIZONTE - COMARCA; DIR CRIACAO E MIDIAS 11.008,33 1.100,83 3.585,64 0,00 0,00 0,00 444,88 2.078,00 18.217,68 1.718,41 3.096,49 0,00 0,00 4.814,90 13.402,78 31/03/2023
979 428200 FABRICIO ORZIL VIANA ANALISTA DO MP SANTA LUZIA - COMARCA; SANTA LUZIA-PJ-04PJ 11.008,33 2.201,67 0,00 0,00 0,00 0,00 145,31 3.663,20 17.018,51 1.894,55 2.242,39 0,00 0,00 4.136,94 12.881,57 31/03/2023
980 455600 FABRICIO PAIVA DA ROCHA ANALISTA DO MP SÃO JOÃO DEL REI - COMARCA; SAO JOAO DEL REI-PJ-06PJ 11.008,33 2.201,67 0,00 0,00 0,00 0,00 145,31 4.613,20 17.968,51 1.894,55 2.190,25 0,00 0,00 4.084,80 13.883,71 31/03/2023
981 511500 FABRICIO RENE CARDOSO DE PADUA ANALISTA DO MP SÃO SEBASTIÃO DO PARAÍSO - COMARCA; SAO SEBASTIAO DO PARAISO-PJ-03PJ 11.008,33 2.201,67 0,00 0,00 0,00 0,00 145,31 3.663,20 17.018,51 1.894,55 2.242,39 0,00 0,00 4.136,94 12.881,57 31/03/2023
982 496100 FABRICIO RESENDE GONCALVES OFICIAL DO MP ENTRE-RIOS DE MINAS - COMARCA; ENTRE RIOS DE MINAS-PJ-UNPJ 8.650,50 1.730,10 0,00 0,00 0,00 0,00 0,00 2.078,00 12.458,60 1.441,84 1.588,80 0,00 0,00 3.030,64 9.427,96 31/03/2023
983 650300 FABRICIO ROBERTO AZEVEDO OFICIAL DO MP NOVA SERRANA - COMARCA; NOVA SERRANA-PJ-04PJ 5.438,14 543,81 0,00 0,00 0,00 0,00 0,00 2.078,00 8.059,95 749,62 569,53 0,00 0,00 1.319,15 6.740,80 31/03/2023
984 514900 FADUA MARIA DRUMOND CHEQUER ANALISTA DO MP BETIM - COMARCA; BETIM-PJ-12PJ 11.008,33 2.201,67 0,00 0,00 4.403,33 0,00 532,80 7.890,40 26.036,53 1.894,55 3.349,03 0,00 0,00 5.243,58 20.792,95 31/03/2023
985 282500 FANNY FERREIRA MELO OFICIAL DO MP ARAXÁ - COMARCA; ARAXA-PJ-03PJ 11.736,91 3.521,07 0,00 0,00 0,00 0,00 0,00 2.078,00 17.335,98 2.222,23 2.715,47 0,00 0,00 4.937,70 12.398,28 31/03/2023
986 692500 FARID JUNIOR NUNES DA SILVA ASSESSOR PROCURADOR JUSTICA BELO HORIZONTE - COMARCA; GABINETE DE PROCURADOR DE JUSTIÇA - SALA 912 0,00 0,00 7.857,77 0,00 0,00 0,00 0,00 2.078,00 9.935,77 877,22 1.358,52 0,00 0,00 2.235,74 7.700,03 31/03/2023
987 382800 FATIMA DE OLIVEIRA COELHO E SILVA OFICIAL DO MP BELO HORIZONTE - COMARCA; DIRETORIA DE ADMINISTRACAO FINANCEIRA 9.999,62 3.999,85 3.585,64 0,00 0,00 0,00 0,00 2.078,00 19.663,11 2.020,86 3.358,67 0,00 0,00 5.379,53 14.283,58 31/03/2023
988 398601 FELIPE ANTONIO HORTA DE PAULA ANALISTA DO MP BELO HORIZONTE - COMARCA; PROC. JUSTICA DIR. DIFUSOS E COLETIVOS-SEC 11.008,33 1.100,83 0,00 0,00 0,00 0,00 44,40 2.562,37 14.715,93 1.718,41 1.988,10 0,00 0,00 3.706,51 11.009,42 31/03/2023
989 430900 FELIPE BOY VIEIRA ANALISTA DO MP BELO HORIZONTE - COMARCA; DIRETORIA DE SEGURANCA 14.224,47 2.844,89 5.127,46 0,00 0,00 0,00 0,00 2.078,00 24.274,82 982,16 4.767,46 0,00 0,00 5.749,62 18.525,20 31/03/2023
990 631700 FELIPE DE MORAIS SIMOES COELHO ANALISTA DO MP BELO HORIZONTE - COMARCA; BH-18PJ VIOLENCIA DOMESTICA-SECRETARIA 9.378,86 937,89 0,00 0,00 0,00 0,00 0,00 2.078,00 12.394,75 1.431,63 1.574,05 0,00 0,00 3.005,68 9.389,07 31/03/2023
991 549100 FELIPE FERNANDES ALVIM ANALISTA DO MP LAJINHA - COMARCA; LAJINHA-PJ-UNPJ 11.008,33 1.100,83 0,00 0,00 0,00 0,00 44,40 3.512,37 15.665,93 1.718,41 1.988,10 0,00 0,00 3.706,51 11.959,42 31/03/2023
992 693100 FELIPE FROIS DO AMARAL ASSESSOR PROMOTOR JUSTICA RIBEIRÃO DAS NEVES - COMARCA; RIBEIRAO NEVES-SEC PJ EXECUCAO PENAL 0,00 0,00 7.857,77 0,00 0,00 0,00 0,00 2.078,00 9.935,77 877,22 1.358,52 0,00 0,00 2.235,74 7.700,03 31/03/2023
993 620100 FELIPE GOMES DE AZEVEDO OFICIAL DO MP BELO HORIZONTE - COMARCA; DIVISAO DE SERVICOS 6.081,20 608,12 3.585,64 0,00 0,00 0,00 0,00 2.078,00 12.352,96 855,73 1.720,93 0,00 0,00 2.576,66 9.776,30 31/03/2023
994 601600 FELIPE RODRIGUES DE SIQUEIRA ANALISTA DO MP BELO HORIZONTE - COMARCA; BH-02PJ FAMILIA-SECRETARIA 11.008,33 1.100,83 0,00 0,00 0,00 0,00 0,00 2.078,00 14.187,16 982,16 1.665,99 0,00 0,00 2.648,15 11.539,01 31/03/2023
995 628900 FELIX FERNANDO JUNIO VIEIRA ANALISTA DO MP BELO HORIZONTE - COMARCA; BH-21PJ TUTELA DAS FUNDACOES-ASS CURADORES 10.325,15 1.032,52 0,00 0,00 0,00 0,00 0,00 3.028,00 14.385,67 1.598,18 1.710,23 0,00 0,00 3.308,41 11.077,26 31/03/2023
996 544500 FELLIPE LEMOS MARCONDES BUENO ANALISTA DO MP SÃO SEBASTIÃO DO PARAÍSO - COMARCA; SAO SEBASTIAO DO PARAISO-PJ-04PJ 11.008,33 1.100,83 0,00 0,00 0,00 0,00 44,40 2.562,37 14.715,93 1.718,41 1.988,10 0,00 0,00 3.706,51 11.009,42 31/03/2023
997 688500 FELLIPE TADEU DE ANDRADE RAMOS ASSESSOR PROCURADOR JUSTICA BELO HORIZONTE - COMARCA; GABINETE DE PROCURADOR DE JUSTIÇA - SALA 907 0,00 0,00 7.857,77 0,00 0,00 0,00 0,00 2.078,00 9.935,77 877,22 1.462,79 0,00 0,00 2.340,01 7.595,76 31/03/2023
998 612600 FERNANDA ADRIANA DE PAULA GUIDO ANALISTA DO MP BELO HORIZONTE - COMARCA; SUPER DE RECURSOS HUMANOS-COOP REMOTA 10.325,15 1.032,52 0,00 0,00 0,00 0,00 0,00 3.028,00 14.385,67 1.598,18 1.814,50 0,00 0,00 3.412,68 10.972,99 31/03/2023
999 508400 FERNANDA AGANETTI MATTOS DE OLIVEIRA ANALISTA DO MP BELO HORIZONTE - COMARCA; SUPER DE RECURSOS HUMANOS-COOP REMOTA 11.008,33 2.201,67 0,00 0,00 0,00 0,00 0,00 3.978,00 17.188,00 982,16 2.493,30 0,00 0,00 3.475,46 13.712,54 31/03/2023
1000 453600 FERNANDA ALBERNAZ RABELO ANALISTA DO MP BELO HORIZONTE - COMARCA; GABINETE DE PROCURADOR DE JUSTIÇA - SALA 616 11.008,33 2.201,67 0,00 0,00 0,00 0,00 0,00 3.028,00 16.238,00 1.894,55 2.242,39 0,00 0,00 4.136,94 12.101,06 31/03/2023
1001 255600 FERNANDA ALINA DE ALMEIDA ANDRADE OFICIAL DO MP BELO HORIZONTE - COMARCA; DIRETORIA DE INTELIGENCIA 11.008,33 4.403,33 0,00 0,00 0,00 0,00 0,00 2.078,00 17.489,66 2.246,81 2.750,97 0,00 0,00 4.997,78 12.491,88 31/03/2023
1002 443200 FERNANDA ALMEIDA LOPES ANALISTA DO MP CONTAGEM - COMARCA; CONTAGEM-PJ-10PJ 15.659,55 3.131,91 0,00 0,00 0,00 0,00 0,00 3.028,00 21.819,46 2.787,58 3.427,43 0,00 0,00 6.215,01 15.604,45 31/03/2023
1003 281100 FERNANDA ANANIAS MEIRA ANALISTA DO MP BELO HORIZONTE - COMARCA; BH-23PJ INFRACIONAL-ASS JURIDICA 19.791,01 5.937,30 0,00 0,00 0,00 0,00 5.292,68 2.078,00 33.098,99 4.744,31 6.356,73 0,00 0,00 11.101,04 21.997,95 31/03/2023
1004 539000 FERNANDA BARBOSA ALVES ANALISTA DO MP UBERABA - COMARCA; UBERABA-PJ-04PJ 11.008,33 2.201,67 0,00 0,00 0,00 0,00 1.100,83 3.028,00 17.338,83 2.070,68 2.496,68 0,00 0,00 4.567,36 12.771,47 31/03/2023
1005 451200 FERNANDA BLOISE PRADO OFICIAL DO MP BELO HORIZONTE - COMARCA; GAECO - SECRETARIA 9.378,86 1.875,77 0,00 0,00 0,00 0,00 495,20 7.480,22 19.230,05 1.581,69 1.790,70 0,00 0,00 3.372,39 15.857,66 31/03/2023
1006 427900 FERNANDA BRAGA CARNEIRO BICALHO ANALISTA DO MP PEÇANHA - COMARCA; PECANHA-PJ-SECRETARIA 11.008,33 2.201,67 0,00 0,00 0,00 0,00 0,00 2.078,00 15.288,00 1.894,55 2.190,25 0,00 0,00 4.084,80 11.203,20 31/03/2023
1007 507100 FERNANDA CABRINI VAZ MOTA ANALISTA DO MP BELO HORIZONTE - COMARCA; DIVISAO DE MATERIAIS 11.008,33 2.201,67 4.063,73 0,00 0,00 0,00 824,46 9.352,60 27.450,79 982,16 3.584,45 0,00 0,00 4.566,61 22.884,18 31/03/2023
1008 259800 FERNANDA CALZAVARA DE SOUSA OFICIAL DO MP BELO HORIZONTE - COMARCA; DIRET DE INFORMACAO E CONHECIMENTO-DINC/CEAF 15.659,55 6.263,82 5.493,71 0,00 521,99 0,00 2.126,03 9.137,80 39.202,90 3.539,24 6.219,10 0,00 0,00 9.758,34 29.444,56 31/03/2023
1009 494400 FERNANDA CAMPOS BARATA OFICIAL DO MP JUIZ DE FORA - COMARCA; JUIZ DE FORA-PJ-08PJ 6.694,66 1.338,93 0,00 0,00 0,00 0,00 0,00 2.078,00 10.111,59 1.066,32 1.046,64 0,00 0,00 2.112,96 7.998,63 31/03/2023
1010 555600 FERNANDA CAROLINE RIBEIRO ANALISTA DO MP BELO HORIZONTE - COMARCA; DIRETORIA GESTAO CONTRATOS CONVENIOS 11.008,33 1.100,83 0,00 0,00 0,00 0,00 0,00 2.078,00 14.187,16 1.718,41 1.988,10 0,00 0,00 3.706,51 10.480,65 31/03/2023
1011 692000 FERNANDA CESAR SILVA ASSESSOR PROCURADOR JUSTICA BELO HORIZONTE - COMARCA; GABINETE DE PROCURADOR DE JUSTIÇA - SALA 809 0,00 0,00 7.857,77 0,00 0,00 0,00 0,00 2.078,00 9.935,77 877,22 1.462,79 0,00 0,00 2.340,01 7.595,76 31/03/2023
1012 294500 FERNANDA COSTA FLORES OFICIAL DO MP PARÁ DE MINAS - COMARCA; PARA DE MINAS-PJ-04PJ 11.736,91 3.521,07 0,00 0,00 0,00 0,00 503,51 7.570,87 23.332,36 2.222,23 2.715,47 0,00 0,00 4.937,70 18.394,66 31/03/2023
1013 344500 FERNANDA CRISTINA DE SOUZA PAZ ASSESSOR ADMINISTRATIVO II BELO HORIZONTE - COMARCA; CENTRAL DE APOIO TECN-SETOR DE MEIO AMBIENTE 0,00 0,00 6.694,66 0,00 0,00 0,00 0,00 2.078,00 8.772,66 877,22 1.038,66 0,00 0,00 1.915,88 6.856,78 31/03/2023
1014 538100 FERNANDA CRISTINA DOS SANTOS ROSA OFICIAL DO MP RIBEIRÃO DAS NEVES - COMARCA; RIBEIRAO DAS NEVES-PJ-04PJ 6.694,66 2.677,86 0,00 0,00 0,00 0,00 0,00 2.078,00 11.450,52 1.280,55 1.355,93 0,00 0,00 2.636,48 8.814,04 31/03/2023
1015 337800 FERNANDA CRISTINA ROLAND CLIMACO MENDES COORDENADOR II BELO HORIZONTE - COMARCA; DIRETORIA DE PAGAMENTO DE PESSOAL-DPAG 18.312,36 5.493,71 0,00 0,00 0,00 0,00 523,73 7.791,46 32.121,26 2.646,36 4.949,56 0,00 0,00 7.595,92 24.525,34 31/03/2023
1016 545400 FERNANDA CUNHA GUIMARAES ANALISTA DO MP BELO HORIZONTE - COMARCA; CAO-VIOLENCIA DOMESTICA E FAMILIAR 11.008,33 1.100,83 0,00 0,00 4.036,39 0,00 532,80 7.890,40 24.568,75 1.718,41 3.098,10 0,00 0,00 4.816,51 19.752,24 31/03/2023
1017 429801 FERNANDA CUNHA PINHEIRO DA SILVA ANALISTA DO MP BELO HORIZONTE - COMARCA; ASSESSORIA DE COMUNICACAO INTEGRADA 11.008,33 2.201,67 0,00 0,00 0,00 0,00 0,00 2.078,00 15.288,00 1.894,55 2.138,11 0,00 0,00 4.032,66 11.255,34 31/03/2023
1018 408000 FERNANDA DAS NEVES RAMOS ANALISTA DO MP BELO HORIZONTE - COMARCA; BH-17PJ PATRIMONIO PUBLICO-SECRETARIA 16.169,47 3.233,89 0,00 0,00 0,00 0,00 0,00 2.078,00 21.481,36 2.885,49 3.673,05 0,00 0,00 6.558,54 14.922,82 31/03/2023
1019 496000 FERNANDA DE ALMEIDA VIANA ANALISTA DO MP BELO HORIZONTE - COMARCA; PROC JUST ATUACAO TRIBUNAIS SUPERIORES-GAB002 11.008,33 2.201,67 0,00 0,00 0,00 0,00 145,31 5.563,20 18.918,51 1.894,55 2.138,11 0,00 0,00 4.032,66 14.885,85 31/03/2023
1020 266700 FERNANDA DE CASTRO LUCAS OFICIAL DO MP BELO HORIZONTE - COMARCA; DIRET DE DESENV DE RECURSOS HUMANOS-DDRH 15.659,55 4.697,87 5.493,71 0,00 0,00 0,00 473,94 8.198,23 34.523,30 3.038,14 5.352,08 0,00 0,00 8.390,22 26.133,08 31/03/2023
1021 433200 FERNANDA DE FIGUEIREDO NORTE ANALISTA DO MP BELO HORIZONTE - COMARCA; ASSESS JUR DO CONS SUPERIOR DO MINISTERIO PUB 16.169,47 3.233,89 0,00 0,00 0,00 0,00 0,00 2.078,00 21.481,36 2.885,49 3.568,78 0,00 0,00 6.454,27 15.027,09 31/03/2023
1022 419200 FERNANDA DE MIRANDA MARTINS SIMOES ANALISTA DO MP UBERLÂNDIA - COMARCA; UBERLANDIA-PJ-17PJ 16.169,47 3.233,89 0,00 0,00 0,00 0,00 498,02 8.460,94 28.362,32 2.885,49 3.673,05 0,00 0,00 6.558,54 21.803,78 31/03/2023
1023 441400 FERNANDA DE MORAIS PINTO ANALISTA DO MP BELO HORIZONTE - COMARCA; PROC. JUSTICA DIR. DIFUSOS E COLETIVOS-SEC 15.659,55 3.131,91 0,00 0,00 0,00 0,00 0,00 2.078,00 20.869,46 2.787,58 3.531,71 0,00 0,00 6.319,29 14.550,17 31/03/2023
1024 432200 FERNANDA DE MOURA GUIMARAES ANALISTA DO MP BELO HORIZONTE - COMARCA; BH-26 CRIME CONT CRIAN ADOL-SECRETARIA 15.659,55 3.131,91 0,00 0,00 0,00 0,00 0,00 2.078,00 20.869,46 2.787,58 3.531,71 0,00 0,00 6.319,29 14.550,17 31/03/2023
1025 461800 FERNANDA DE OLIVEIRA SANTOS ANALISTA DO MP JUIZ DE FORA - COMARCA; JUIZ DE FORA-PJ-21PJ 13.341,69 2.668,34 0,00 0,00 0,00 0,00 410,92 7.510,81 23.931,76 2.342,55 2.889,20 0,00 0,00 5.231,75 18.700,01 31/03/2023
1026 432500 FERNANDA DE PAULA PINTO ANALISTA DO MP BELO HORIZONTE - COMARCA; PROC JUST ATUACAO TRIBUNAIS SUPERIORES-GAB003 15.659,55 3.131,91 0,00 0,00 0,00 0,00 0,00 3.028,00 21.819,46 2.787,58 3.531,71 0,00 0,00 6.319,29 15.500,17 31/03/2023
1027 431600 FERNANDA DIAS BARBOSA PEREIRA ANALISTA DO MP BELO HORIZONTE - COMARCA; BH-02PJ FAMILIA-SECRETARIA 15.659,55 3.131,91 0,00 0,00 0,00 0,00 482,31 8.289,61 27.563,38 2.787,58 3.375,30 0,00 0,00 6.162,88 21.400,50 31/03/2023
1028 162200 FERNANDA FERNANDES MONTEIRO ASSESSOR ADMINISTRATIVO II BELO HORIZONTE - COMARCA; BH-18PJ VIOLENCIA DOMESTICA-SECRETARIA 0,00 3.347,33 6.694,66 0,00 0,00 0,00 405,03 6.496,48 16.943,50 877,22 1.959,18 0,00 0,00 2.836,40 14.107,10 31/03/2023
1029 512800 FERNANDA FERREIRA BARBOSA MOREIRA ANALISTA DO MP IPATINGA - COMARCA; IPATINGA-PJ-05PJ 11.008,33 2.201,67 0,00 0,00 0,00 0,00 0,00 3.028,00 16.238,00 982,16 2.375,68 0,00 0,00 3.357,84 12.880,16 31/03/2023
1030 329200 FERNANDA GABRIEL GUZELLA OFICIAL DO MP BELO HORIZONTE - COMARCA; DIRET DE PLANOS PROJETOS E PROGRAMAS INST 11.008,33 3.302,50 0,00 0,00 0,00 0,00 0,00 2.078,00 16.388,83 2.070,68 2.496,68 0,00 0,00 4.567,36 11.821,47 31/03/2023
1031 324200 FERNANDA GEORGIA NEVES ZAHAN OFICIAL DO MP IPANEMA - COMARCA; IPANEMA-PJ-01PJ 11.008,33 8.806,67 0,00 0,00 0,00 0,00 508,59 7.626,20 27.949,79 2.951,35 3.768,14 0,00 0,00 6.719,49 21.230,30 31/03/2023
1032 548200 FERNANDA GONCALVES DE CARVALHO ZUZA OFICIAL DO MP TUPACIGUARA - COMARCA; TUPACIGUARA-PJ-01PJ 6.694,66 669,47 0,00 0,00 0,00 0,00 0,00 2.078,00 9.442,13 959,93 891,80 0,00 0,00 1.851,73 7.590,40 31/03/2023
1033 355400 FERNANDA HELENA BASQUES OFICIAL DO MP SABARÁ - COMARCA; SABARA-PJ-01PJ 11.008,33 3.302,50 0,00 0,00 0,00 0,00 524,73 7.802,33 22.637,89 2.070,68 2.496,68 0,00 0,00 4.567,36 18.070,53 31/03/2023
1034 454800 FERNANDA IATAROLA BARBOSA DIAS ANALISTA DO MP BARBACENA - COMARCA; BARBACENA-PJ-05PJ 13.341,69 2.668,34 0,00 0,00 0,00 0,00 410,92 6.560,81 22.981,76 2.342,55 2.837,06 0,00 0,00 5.179,61 17.802,15 31/03/2023
1035 515500 FERNANDA LILIANE MARUGEIRO ANALISTA DO MP LAGOA SANTA - COMARCA; LAGOA SANTA-PJ-01PJ 11.008,33 2.201,67 0,00 0,00 0,00 0,00 0,00 3.028,00 16.238,00 1.894,55 2.190,25 0,00 0,00 4.084,80 12.153,20 31/03/2023
1036 392900 FERNANDA MAGALHAES SILVA ANALISTA DO MP BELO HORIZONTE - COMARCA; DIR CONTEUDO JORNALISTICO 16.695,70 3.339,14 0,00 0,00 0,00 0,00 0,00 2.078,00 22.112,84 2.986,52 3.818,93 0,00 0,00 6.805,45 15.307,39 31/03/2023
1037 409200 FERNANDA MAIA SANTIAGO CARDOSO ANALISTA DO MP PIRAPORA - COMARCA; PIRAPORA-PJ-02PJ 11.008,33 2.201,67 0,00 0,00 0,00 0,00 145,31 4.613,20 17.968,51 1.894,55 2.242,39 0,00 0,00 4.136,94 13.831,57 31/03/2023
1038 714100 FERNANDA MELO FIORENZANO REIS ASSESSOR ADMINISTRATIVO IV BELO HORIZONTE - COMARCA; DIR CONTEUDO JORNALISTICO 0,00 0,00 12.920,95 0,00 0,00 0,00 0,00 2.078,00 14.998,95 877,22 2.855,17 0,00 0,00 3.732,39 11.266,56 31/03/2023
1039 556500 FERNANDA OTERO COSTA ANALISTA DO MP BELO HORIZONTE - COMARCA; ASSESS TECNICO-JUR JUNTO AS PROC. DE JUST 11.008,33 1.100,83 0,00 0,00 0,00 0,00 44,40 2.562,37 14.715,93 982,16 2.095,65 0,00 0,00 3.077,81 11.638,12 31/03/2023
1040 615300 FERNANDA PATRICIA RIBEIRO MOTA OFICIAL DO MP UBERABA - COMARCA; UBERABA-PJ-10PJ 6.694,66 669,47 0,00 0,00 0,00 0,00 0,00 2.078,00 9.442,13 959,93 891,80 0,00 0,00 1.851,73 7.590,40 31/03/2023
1041 619800 FERNANDA PINTO PEREIRA ANALISTA DO MP UBERLÂNDIA - COMARCA; UBERLANDIA-PJ-20PJ 10.325,15 1.032,52 0,00 0,00 0,00 0,00 0,00 3.978,00 15.335,67 1.598,18 1.762,36 0,00 0,00 3.360,54 11.975,13 31/03/2023
1042 412900 FERNANDA PORTELA ROSA ANALISTA DO MP BELO HORIZONTE - COMARCA; BH-08PJ JUIZADO ESPECIAL-SECRETARIA 16.169,47 3.233,89 0,00 0,00 0,00 0,00 498,02 8.460,94 28.362,32 2.885,49 3.673,05 0,00 0,00 6.558,54 21.803,78 31/03/2023
1043 274301 FERNANDA QUEIROZ PARREIRA ANALISTA DO MP PATOS DE MINAS - COMARCA; GAECO REGIONAL DE PATOS DE MINAS 11.008,33 2.201,67 0,00 0,00 0,00 0,00 0,00 2.078,00 15.288,00 1.894,55 2.242,39 0,00 0,00 4.136,94 11.151,06 31/03/2023
1044 467900 FERNANDA QUEIROZ SIMOES GANNAM ANALISTA DO MP SÃO LOURENÇO - COMARCA; SAO LOUREN